GFSSW_prec_cthk_000.txt.gz
RH
22 22 21 21 23 25 25 21 23 21 21 17 20 21 21 23 24 23 21 26 24 19 15 14 14 13 20 22 33 39 41 41 44 46 49 46 42 36 35 35 32 29 29 25 22
21 20 21 22 23 24 23 21 21 23 18 23 23 25 24 25 21 21 25 22 17 17 19 12 12 19 33 34 36 36 34 39 44 51 45 41 36 26 23 26 30 30 30 27 19
20 23 24 24 24 23 25 21 22 16 20 26 28 26 25 22 26 27 24 16 15 19 15 16 19 33 36 36 33 31 28 28 34 42 34 29 18 19 14 18 17 19 24 25 22
24 28 27 25 25 21 22 22 19 24 20 29 30 28 24 33 35 19 15 16 20 16 20 23 32 37 36 33 31 26 24 22 31 28 25 22 12 12 11 13 14 17 18 23 26
28 30 29 26 25 21 19 22 19 20 24 33 32 30 34 36 27 20 19 20 27 19 24 32 37 36 31 29 28 25 25 24 23 21 20 13 8 8 10 11 15 18 22 23 27
31 33 30 27 25 22 23 25 18 23 32 34 30 39 38 35 24 20 23 23 28 29 31 32 35 34 30 31 27 25 18 16 20 20 10 7 8 9 13 15 20 19 21 22 29
31 32 28 26 23 22 24 22 24 29 34 31 31 39 32 28 22 21 27 28 32 33 36 33 28 29 26 25 24 18 13 5 9 15 9 9 14 17 20 20 22 20 22 27 31
29 31 29 24 24 25 26 27 29 32 31 26 32 33 30 29 19 26 25 24 28 31 33 31 32 29 23 21 16 11 16 18 22 21 17 19 22 27 27 22 23 25 26 29 32
25 29 25 24 25 29 30 30 29 24 22 27 28 29 28 20 15 18 20 21 24 26 27 25 30 28 24 20 23 26 21 27 26 29 25 23 24 28 22 23 26 26 29 34 39
25 29 23 22 29 32 27 24 25 23 21 22 27 28 21 16 13 14 15 17 19 22 18 22 24 25 24 26 31 33 31 29 36 33 29 32 28 26 29 30 27 29 31 32 34
26 30 27 35 31 26 26 26 25 22 19 26 29 23 18 16 13 12 12 13 15 16 17 25 31 31 31 33 36 37 34 31 36 37 34 37 33 35 36 36 36 36 35 37 40
24 30 29 27 29 28 28 32 29 30 29 28 24 21 20 19 16 14 16 19 20 27 34 33 33 34 33 31 35 39 36 38 36 32 33 37 37 40 40 40 39 41 42 47 54
24 26 29 30 29 35 35 35 34 31 32 25 23 22 25 22 19 20 24 27 28 29 28 30 31 30 33 36 33 37 38 36 33 30 27 34 40 44 45 42 40 44 47 54 59
24 29 30 29 32 33 37 36 33 30 29 22 18 20 21 20 17 16 21 26 27 27 27 30 28 27 23 23 25 27 37 36 33 28 32 35 52 49 47 45 44 50 53 57 57
28 31 27 29 35 37 38 32 27 27 36 18 19 17 18 20 14 13 18 26 27 27 28 30 29 30 28 26 22 27 25 25 23 25 27 38 51 54 51 51 51 57 57 58 57
31 29 26 33 38 37 33 25 27 44 34 21 17 15 17 21 19 13 19 25 27 26 26 31 28 26 25 25 25 24 25 30 31 32 42 45 50 57 55 55 58 65 61 61 54
30 28 28 32 37 32 27 24 44 50 24 18 17 16 18 18 18 16 20 23 29 30 29 30 28 24 25 27 26 25 31 48 50 54 56 49 60 62 60 62 62 64 58 56 57
28 28 30 29 34 29 25 32 43 28 26 19 21 24 25 25 26 26 24 30 31 36 36 40 45 29 28 33 31 30 32 48 56 69 62 54 61 57 58 59 64 57 62 64 66
29 28 28 27 30 26 24 47 41 30 23 22 26 29 26 28 28 30 31 30 34 38 39 47 39 26 22 27 32 29 29 29 40 46 46 50 50 52 54 59 63 72 69 62 62
27 27 24 25 27 22 37 46 35 25 22 20 23 28 33 24 29 31 34 29 29 36 37 39 32 27 29 28 25 23 25 32 37 41 49 50 52 58 56 58 57 58 54 58 63
25 24 22 22 24 20 46 43 29 23 22 20 27 31 38 34 33 35 34 31 32 30 32 35 29 34 34 33 29 29 29 30 32 41 48 58 50 45 51 51 52 52 55 63 74
25 26 23 22 23 25 40 39 27 24 23 25 28 35 39 40 42 43 41 36 31 30 28 33 33 41 29 26 24 25 29 31 41 42 52 56 48 44 50 52 57 60 63 68 79
24 34 30 24 24 27 36 34 29 25 24 24 29 37 41 42 47 44 43 38 31 29 29 29 33 42 40 36 29 29 27 32 36 40 42 52 44 45 53 56 61 63 65 69 73
30 42 37 25 23 26 37 33 32 25 24 23 29 35 38 40 40 45 41 35 25 29 28 29 32 31 39 31 28 25 26 31 35 48 46 48 40 48 52 55 59 61 65 67 74
41 38 32 24 22 36 40 35 33 29 24 24 26 33 37 41 42 44 39 34 24 25 28 30 31 30 27 29 28 27 27 29 31 35 42 39 43 50 53 56 59 62 66 71 75
47 38 33 21 23 37 43 36 32 29 29 28 27 33 39 40 38 41 37 33 27 29 31 31 35 31 28 33 34 28 28 29 29 30 34 43 50 51 55 60 66 70 72 73 72
49 40 25 24 34 37 42 37 34 34 30 29 32 37 43 43 41 41 39 38 32 33 36 33 37 34 38 42 37 36 30 29 31 35 35 42 48 54 59 63 66 69 71 72 74

GFSSW_prec_cthk_003.txt.gz
RH
30 23 19 20 20 21 22 25 23 20 18 19 20 16 19 20 23 25 26 23 28 25 19 19 20 15 24 30 34 34 37 46 47 49 55 53 51 48 45 38 36 34 31 24 28
30 21 20 19 21 22 22 23 20 18 21 23 20 22 24 23 23 23 22 25 25 19 17 18 13 15 27 35 34 34 40 50 48 42 50 49 43 41 35 35 30 29 32 30 25
23 21 19 24 24 23 22 22 19 19 23 23 22 27 26 25 23 24 27 21 17 19 16 16 15 26 33 36 33 33 34 41 46 49 50 43 37 26 24 27 24 22 27 26 21
22 20 21 26 25 24 22 24 23 21 16 18 26 29 28 28 31 24 20 18 20 18 19 22 28 32 33 29 31 32 28 30 39 43 36 26 23 21 14 17 17 17 18 22 23
20 21 26 28 25 24 22 18 21 22 24 23 31 29 30 32 27 25 23 22 23 22 22 32 35 37 35 33 33 26 25 25 24 28 23 20 16 11 10 15 18 20 22 24 29
22 26 31 31 27 24 21 20 21 22 23 30 35 36 34 32 27 25 26 26 32 30 30 34 37 36 35 31 28 25 23 21 20 21 20 13 9 9 12 20 23 22 23 26 30
26 29 31 30 28 24 21 22 23 22 28 37 42 38 33 27 27 26 29 35 30 30 33 32 34 32 30 31 24 24 22 12 15 17 14 8 10 13 18 24 25 26 27 29 34
27 29 27 28 26 23 22 23 24 28 34 37 42 31 29 23 24 29 31 36 32 37 36 34 35 31 25 27 24 23 15 19 18 15 12 13 17 19 25 26 26 29 33 35 36
29 26 29 27 22 23 26 25 28 32 35 36 34 31 33 22 23 26 30 32 32 36 34 33 32 29 26 24 23 17 21 28 29 26 22 19 22 29 26 27 30 35 35 35 38
27 24 25 23 23 27 31 32 33 29 28 32 35 31 31 24 20 24 28 29 32 32 27 27 29 28 26 21 26 23 30 28 30 26 27 27 29 28 25 26 34 35 36 35 38
21 26 23 23 26 32 33 27 28 27 29 25 31 31 24 18 16 22 21 24 31 32 25 25 30 29 27 26 29 29 29 31 35 34 36 35 38 38 33 37 39 37 38 40 41
21 27 26 31 34 29 29 35 32 27 26 27 27 24 22 20 15 14 16 21 23 24 17 25 29 26 32 40 38 37 31 32 31 38 37 38 41 42 39 41 42 43 48 48 54
22 30 37 36 29 34 36 32 31 28 32 28 24 23 22 19 17 15 15 17 19 23 25 27 27 34 40 39 41 40 37 37 38 39 38 35 43 44 43 46 47 50 55 57 60
23 31 33 34 35 34 33 32 30 30 32 25 23 24 24 21 20 23 27 29 26 27 27 36 32 30 32 31 36 41 39 38 40 41 45 36 54 48 50 53 53 54 59 63 60
29 32 35 33 36 34 37 32 32 32 37 22 21 21 23 23 20 27 31 32 30 31 31 35 34 32 29 26 26 31 33 37 40 40 41 40 47 47 51 54 55 58 62 60 65
31 33 33 34 34 37 36 31 30 42 32 22 21 20 22 20 18 20 27 29 32 33 33 31 28 30 28 27 27 27 32 36 39 40 49 41 47 52 53 56 62 64 64 62 65
32 33 31 35 36 36 34 28 38 54 23 20 19 16 21 20 19 15 24 29 32 33 34 30 28 27 28 28 27 28 33 46 45 50 54 46 51 51 51 57 62 64 63 62 59
32 32 31 36 37 32 32 33 45 32 25 17 17 18 21 21 22 20 24 27 28 30 34 36 34 28 29 31 28 30 33 46 48 58 48 47 54 54 53 55 55 54 55 61 67
31 32 30 32 34 31 31 45 45 32 23 20 24 26 28 28 26 26 25 27 31 33 39 40 36 25 30 30 29 26 29 31 45 52 53 53 48 47 47 50 52 53 57 64 60
30 31 29 30 30 30 36 54 41 29 24 24 26 28 30 30 31 34 33 31 32 36 39 42 35 27 27 27 28 26 26 30 37 39 46 46 45 48 45 49 49 53 54 52 53
30 29 28 27 27 28 39 49 36 28 26 23 25 29 34 31 34 36 37 34 29 37 41 41 33 32 31 31 28 28 25 29 33 40 44 53 46 38 42 43 46 50 48 52 58
29 30 27 24 25 30 37 42 33 27 25 24 26 31 40 39 38 39 38 33 33 32 37 37 38 41 31 27 24 24 25 26 35 37 48 49 38 33 36 41 45 51 52 58 63
28 32 29 25 27 29 35 38 32 26 25 25 28 34 41 45 47 46 42 40 33 31 33 32 36 43 38 30 27 26 26 30 31 36 42 46 37 36 39 44 48 51 56 57 63
28 38 33 28 22 21 32 37 32 28 26 26 27 34 43 48 49 49 45 40 30 30 32 33 35 31 38 32 28 25 26 30 31 41 38 40 33 40 42 45 50 55 56 60 64
30 35 27 32 27 25 33 37 33 31 26 25 26 31 39 46 46 47 45 37 29 28 32 30 31 31 30 30 25 25 26 30 32 32 37 32 36 39 44 48 51 54 58 63 66
34 36 28 22 19 28 36 39 34 31 27 23 24 29 34 41 40 45 41 35 29 27 33 33 38 33 33 32 32 27 26 28 29 29 32 35 39 38 44 50 54 57 60 63 67
41 39 29 33 22 28 36 36 32 30 30 27 28 31 34 42 42 41 38 36 34 30 33 35 41 33 30 39 34 28 25 27 25 29 32 40 36 41 50 53 56 59 61 64 67

GFSSW_prec_cthk_006.txt.gz
RH
26 32 33 27 20 21 20 21 20 22 20 18 19 21 16 18 18 19 24 25 28 32 25 23 22 23 19 19 32 31 35 44 52 60 56 63 63 60 51 53 46 39 34 26 27
27 33 30 24 21 20 23 21 20 21 18 18 21 22 22 23 21 23 23 25 28 27 21 20 22 21 17 28 36 34 41 47 50 56 60 62 52 54 47 42 44 35 34 31 26
28 32 24 21 21 24 25 23 21 20 20 20 24 19 27 26 24 24 22 27 27 21 22 22 20 19 26 36 35 36 38 44 46 48 51 51 51 46 35 34 30 26 31 31 25
28 30 22 20 21 26 25 24 22 22 21 20 19 23 30 27 32 29 29 28 19 19 19 19 20 28 35 34 33 33 37 37 41 49 46 42 39 34 24 21 21 19 20 22 22
30 24 19 21 25 28 25 23 20 23 22 23 24 29 32 32 29 25 24 23 22 21 22 22 32 35 36 36 33 32 32 34 35 39 40 31 26 25 16 20 21 22 24 28 29
26 20 21 26 31 31 26 23 19 18 20 23 28 34 35 35 29 27 27 27 25 25 28 35 36 37 38 35 33 29 26 26 30 31 26 21 18 11 14 23 23 22 25 30 34
23 20 25 29 31 30 27 23 21 20 23 27 37 38 35 32 30 32 28 30 28 26 36 36 38 36 35 33 30 29 25 21 17 19 21 15 10 15 23 27 26 29 33 36 38
21 22 26 28 27 28 25 23 22 23 28 34 42 43 32 29 34 31 31 34 31 32 37 38 37 36 35 30 27 26 21 16 16 16 14 11 16 20 33 31 30 32 34 35 39
21 24 28 27 28 26 24 23 26 28 32 42 46 33 31 26 30 31 35 36 36 38 39 39 36 33 30 28 27 26 23 20 18 16 16 19 26 30 32 36 32 37 38 38 39
23 26 24 26 26 23 23 29 30 33 37 44 39 35 34 26 28 31 36 37 38 37 35 37 35 31 30 27 27 21 21 26 26 23 27 28 36 36 31 36 37 40 42 44 46
26 25 23 24 23 25 32 36 34 33 29 33 36 35 34 29 26 28 35 35 38 35 36 36 35 35 31 28 23 21 28 35 33 29 36 42 42 41 37 36 40 43 46 47 48
26 22 23 22 27 33 37 38 34 33 33 32 34 32 27 24 21 29 31 35 36 36 35 28 33 32 32 30 28 29 32 37 36 36 37 44 43 40 38 36 36 37 43 50 51
26 22 25 28 36 43 34 34 34 33 35 31 29 27 25 21 17 22 26 32 35 33 29 22 29 30 32 30 40 41 32 35 39 40 40 42 44 40 40 40 43 45 49 53 54
23 24 32 40 43 38 32 33 32 32 32 28 26 27 24 20 19 20 22 31 33 34 30 30 33 33 34 40 41 42 40 37 45 46 51 44 56 44 45 46 48 53 55 56 58
20 27 37 38 39 39 34 30 27 30 39 24 25 24 25 23 19 21 24 24 25 24 24 28 31 32 35 32 30 37 36 40 43 44 46 47 53 46 48 50 53 55 56 57 54
22 32 38 41 38 40 30 28 30 44 37 23 26 27 28 25 22 27 29 29 30 33 30 31 33 34 31 30 27 28 36 42 45 47 51 41 44 47 48 46 52 56 59 60 58
28 36 35 41 38 34 30 32 42 52 25 23 22 23 25 25 26 31 32 33 34 36 38 34 33 30 29 30 28 31 35 47 49 53 51 41 43 39 41 47 55 59 60 61 55
34 37 34 42 36 33 35 35 41 40 25 20 20 20 24 22 21 22 28 32 32 34 40 38 36 28 28 28 29 30 35 47 47 55 46 42 49 44 43 47 51 55 55 54 55
36 36 36 37 35 35 34 42 46 35 25 20 20 21 24 24 23 22 26 28 27 26 32 35 31 26 30 32 32 31 35 36 49 52 53 51 42 43 45 46 45 46 48 51 56
37 37 32 34 33 35 36 44 46 34 26 21 22 24 29 28 29 26 27 28 29 32 34 37 37 30 33 34 32 30 30 32 39 38 44 44 42 43 38 39 41 43 45 49 50
40 35 32 31 32 32 40 41 43 34 27 25 27 31 31 33 34 36 35 34 31 32 38 43 42 33 30 31 33 30 27 29 32 39 42 50 41 33 35 38 41 43 45 49 52
37 33 33 30 32 35 37 42 41 32 30 30 28 29 37 42 41 40 40 37 32 33 39 47 45 47 32 32 29 27 25 25 32 29 46 46 34 30 32 36 38 42 47 51 54
31 34 34 30 33 34 35 42 40 31 31 29 29 32 42 50 52 45 43 38 35 31 37 41 43 50 37 31 27 25 28 28 29 36 40 45 32 29 30 33 38 44 48 53 56
32 39 39 33 26 26 32 38 38 33 30 29 30 30 43 50 50 52 50 42 37 35 32 36 38 34 36 30 29 27 28 28 28 39 37 37 25 31 34 36 40 45 50 54 59
31 36 34 38 31 26 31 37 37 34 30 29 30 29 38 50 50 52 48 40 38 35 35 34 36 35 35 33 28 24 23 29 29 29 33 28 29 27 33 37 42 47 51 56 61
31 33 32 30 25 27 32 33 36 34 31 27 29 29 32 41 42 45 43 41 34 35 34 35 38 35 36 36 34 27 25 26 27 27 31 31 30 30 33 37 42 46 50 56 61
31 30 31 30 30 29 31 33 36 34 33 29 27 26 29 35 42 41 39 39 35 34 32 32 40 32 31 38 33 28 23 25 25 25 27 32 26 32 34 36 40 45 48 55 61

GFSSW_prec_cthk_009.txt.gz
RH
19 20 20 26 30 26 20 20 20 19 19 21 18 17 20 16 18 18 16 20 21 26 26 24 26 26 25 24 20 33 38 40 48 59 70 65 68 67 61 63 62 52 44 34 37
19 19 21 27 28 21 20 20 23 20 20 20 17 21 21 23 23 20 19 24 27 33 29 22 24 25 24 22 20 33 39 39 49 59 70 68 57 59 62 59 57 52 40 34 29
20 20 24 27 25 20 19 23 23 21 21 19 19 22 20 28 26 25 20 21 27 30 25 22 25 25 23 20 27 38 36 42 50 54 59 52 50 52 55 40 32 30 35 30 26
20 23 26 26 21 19 22 24 23 21 21 20 20 23 25 29 30 29 28 27 28 23 22 21 22 21 22 30 35 36 40 45 45 54 54 46 42 48 36 25 24 24 26 22 25
22 25 26 22 19 22 27 26 23 21 21 21 21 27 28 31 28 26 23 25 24 21 20 19 19 25 30 35 37 37 38 37 44 47 47 46 43 33 26 23 23 25 27 28 31
23 26 25 19 22 27 30 29 24 20 16 19 21 31 33 34 30 27 26 28 26 22 24 29 35 35 37 36 35 33 30 31 35 44 43 42 26 21 24 27 25 29 33 38 38
25 28 23 20 26 28 29 27 24 20 18 20 27 37 34 32 30 29 31 29 28 31 31 39 36 37 37 36 32 30 26 23 27 35 32 25 16 20 27 30 31 41 42 44 43
27 27 22 23 27 27 26 25 23 22 21 26 35 39 34 29 31 37 32 33 36 38 38 40 40 40 39 37 34 31 28 23 19 22 24 18 17 25 31 34 36 39 41 42 43
28 26 22 25 27 26 26 24 23 24 26 32 43 47 35 28 32 38 34 38 37 41 41 41 39 38 36 31 30 29 22 21 17 20 18 19 24 29 34 36 37 37 37 39 43
28 23 24 27 24 25 25 23 26 28 31 40 48 36 30 29 33 35 33 41 41 42 41 38 37 33 33 30 30 26 26 24 22 22 21 27 34 35 40 42 43 39 44 44 46
27 24 26 25 22 23 24 28 32 33 36 41 37 34 33 30 30 32 34 41 40 38 42 44 37 33 30 28 26 23 21 29 30 34 35 40 37 38 35 39 43 45 47 50 50
25 25 25 23 21 24 30 36 38 37 35 35 35 33 35 30 29 31 35 42 40 38 38 37 36 36 34 32 30 27 29 40 43 37 34 38 43 41 35 35 39 43 46 48 51
24 25 24 21 24 32 39 40 40 33 34 35 37 35 32 32 25 28 37 37 40 38 37 38 34 35 35 36 37 32 39 41 42 43 38 38 39 40 38 38 39 42 45 49 52
23 25 23 24 35 42 40 36 36 37 35 34 32 31 29 25 21 24 32 35 40 40 35 34 25 37 39 38 37 35 39 38 45 46 46 40 37 44 43 41 42 45 50 55 57
23 23 25 33 46 38 38 37 34 38 45 28 28 29 29 24 20 22 28 36 40 38 39 37 33 30 38 38 34 41 44 43 39 38 39 42 39 41 45 45 45 48 52 56 54
24 22 29 43 43 36 35 34 32 39 43 25 25 27 28 25 22 26 29 29 38 39 37 31 28 34 32 35 39 36 33 40 42 39 41 39 40 37 43 40 46 50 55 55 52
25 25 32 45 40 38 33 31 35 44 29 25 26 28 30 26 24 28 30 31 29 34 35 31 35 35 34 35 34 31 33 40 43 45 41 41 41 31 33 38 47 51 52 52 54
27 30 40 44 40 36 31 30 36 38 32 26 26 29 32 29 28 30 32 34 33 33 38 36 35 30 31 30 29 31 34 42 46 48 39 40 41 32 37 40 48 51 52 50 49
30 35 45 43 39 36 31 42 39 43 28 25 24 26 28 26 25 29 31 33 31 33 35 36 34 29 29 30 30 30 32 34 43 45 45 42 38 36 39 41 45 45 45 48 50
32 42 42 44 36 35 37 40 41 38 30 23 22 22 26 26 26 24 26 29 28 28 28 31 32 31 31 33 36 32 32 36 40 42 40 33 36 30 34 34 36 38 41 45 47
37 47 42 40 36 34 42 36 43 37 31 23 22 24 26 27 31 28 28 28 28 29 32 33 38 41 33 34 35 34 32 31 30 34 30 33 25 27 28 29 31 35 39 43 47
42 49 39 37 37 37 38 39 43 36 30 28 26 31 33 35 37 36 36 35 35 32 32 38 47 47 37 32 32 31 28 26 29 28 36 36 24 23 26 27 31 35 39 44 48
47 49 41 34 37 37 35 39 39 35 32 30 30 29 37 47 49 45 39 38 36 33 33 39 49 51 41 34 31 29 28 26 27 32 36 43 23 24 26 27 31 35 39 45 49
47 50 46 36 31 31 34 38 41 37 34 32 33 32 42 49 53 56 49 45 39 39 32 36 44 42 39 32 30 30 29 28 26 31 30 32 23 22 25 27 29 34 39 43 48
46 44 38 43 34 30 32 37 44 39 35 31 32 33 33 51 53 54 53 50 46 43 39 34 37 39 39 36 31 26 29 28 24 24 28 23 24 22 23 26 31 35 39 43 47
43 39 36 35 31 30 32 38 44 39 36 31 32 34 33 40 48 55 50 44 38 41 39 36 38 39 41 37 34 29 26 26 28 27 26 26 24 22 26 28 32 35 38 42 47
44 35 29 38 36 32 32 32 42 40 37 32 28 33 34 33 37 42 40 39 38 37 36 35 40 35 33 36 33 31 25 24 25 24 25 29 21 25 27 29 31 35 39 44 47

GFSSW_prec_cthk_015.txt.gz
RH
17 17 17 17 17 17 16 18 20 18 17 18 18 18 16 14 17 17 19 18 14 13 21 24 24 27 28 29 27 30 26 28 34 49 59 52 49 51 45 57 65 76 71 48 53
18 18 18 17 17 18 18 19 18 16 19 19 18 18 14 16 19 21 22 20 16 15 23 25 28 29 29 31 28 26 24 30 45 58 66 54 58 57 52 57 63 66 55 43 54
20 19 19 19 19 19 20 18 16 19 22 20 19 17 17 23 29 34 22 19 19 21 31 32 34 32 30 29 30 23 34 44 57 55 53 57 53 60 61 69 61 68 55 46 65
22 20 20 19 20 19 21 18 17 24 23 21 19 17 19 25 42 32 25 18 22 26 33 34 33 31 32 31 28 32 34 39 49 45 42 47 51 62 76 68 80 48 47 44 46
23 22 21 21 21 20 21 16 20 25 23 22 19 17 20 32 36 28 23 24 24 26 29 29 30 33 31 26 28 35 39 40 49 50 54 53 60 61 53 50 43 46 37 38 40
25 24 24 22 21 21 21 16 22 24 23 22 18 16 24 38 34 27 23 23 25 25 26 30 32 32 30 36 38 42 42 42 45 49 50 54 48 42 33 46 43 35 36 37 40
27 25 25 24 22 22 20 18 22 22 22 20 16 17 28 38 32 30 26 30 33 37 34 32 30 31 39 40 41 41 42 44 47 46 47 61 29 34 29 46 42 46 46 48 48
27 26 26 25 23 23 18 20 22 22 21 19 20 24 38 35 32 32 34 36 38 32 31 32 33 36 39 44 39 37 35 41 40 47 43 40 33 22 30 52 54 61 56 58 51
28 26 26 25 22 23 18 21 21 22 20 20 24 35 46 33 33 33 34 39 37 38 36 35 37 40 42 40 36 33 35 36 35 34 37 32 33 22 34 49 58 55 53 52 51
28 27 27 26 23 22 19 21 21 21 22 23 30 42 36 36 37 34 39 42 41 43 42 44 44 45 42 40 37 36 30 30 31 30 27 26 34 24 36 42 52 60 57 52 48
27 28 28 26 23 21 21 21 22 26 25 28 36 46 43 34 34 36 40 42 43 47 50 48 47 45 43 41 37 33 28 25 27 22 24 29 34 26 37 44 46 52 56 53 52
28 29 29 26 24 21 21 25 36 45 36 27 35 41 39 30 35 33 43 46 45 47 50 47 50 44 40 36 32 30 29 32 31 22 28 28 37 34 37 43 44 47 49 52 52
29 31 30 26 23 20 20 23 34 38 41 37 40 40 36 26 34 39 41 47 48 48 51 55 45 36 36 33 33 33 27 42 35 34 27 38 44 35 34 37 40 45 50 54 54
30 33 32 26 22 21 23 29 36 39 45 40 39 36 30 27 35 37 42 46 42 48 45 53 44 40 37 39 38 41 33 40 35 40 37 30 33 46 31 29 32 33 41 46 51
31 36 32 27 28 25 38 40 43 43 55 46 40 35 32 29 36 31 36 42 43 44 43 51 38 39 40 48 31 52 40 32 33 35 48 38 32 50 48 33 33 38 41 42 43
32 38 34 26 21 31 38 44 51 50 51 37 32 30 32 33 33 39 32 41 48 46 44 51 36 33 45 30 34 32 34 31 31 40 43 33 43 36 54 42 37 37 42 44 45
33 38 33 25 33 37 42 48 55 46 38 31 27 29 35 31 31 31 28 39 40 45 47 44 40 37 34 35 29 31 40 44 39 41 40 43 38 31 39 48 44 36 37 43 43
36 40 33 27 40 41 52 52 53 30 39 28 23 27 36 34 31 28 31 35 40 49 49 39 46 33 31 34 46 36 42 43 43 40 32 43 36 30 32 30 26 38 41 43 43
40 43 33 28 37 46 56 58 42 30 37 24 25 30 35 34 33 31 36 38 38 34 45 41 48 45 34 32 32 44 36 37 44 40 35 25 28 35 29 24 28 39 39 42 41
44 44 31 36 41 55 54 42 39 39 34 24 23 27 35 33 26 32 37 48 40 29 29 42 45 38 32 30 28 29 40 34 30 40 40 31 34 28 33 23 27 36 36 39 41
52 48 32 40 47 58 49 33 39 33 29 24 25 29 40 38 32 32 43 42 32 33 31 36 34 44 33 29 36 36 27 27 35 44 40 28 28 29 16 22 23 28 35 34 36
55 47 48 44 57 53 48 33 35 38 34 27 29 28 30 35 30 33 32 34 30 29 24 25 35 44 39 36 29 33 39 39 33 34 29 32 21 19 16 17 22 24 30 32 35
58 54 65 49 60 59 44 37 38 41 35 28 24 27 26 27 29 29 34 34 29 26 28 28 28 40 40 33 31 26 26 28 29 30 25 37 24 23 18 17 18 23 27 31 34
61 60 67 59 61 61 44 39 38 40 40 31 26 30 28 36 34 40 39 33 31 33 31 29 28 35 42 51 45 38 29 29 26 27 24 23 20 21 21 20 20 22 24 30 33
63 54 52 57 56 61 45 37 34 38 39 33 33 28 32 37 39 43 48 41 37 36 34 34 34 34 35 41 41 34 32 29 25 22 26 21 20 18 20 20 21 24 24 27 33
61 58 58 61 52 58 45 37 35 39 38 34 33 30 34 41 41 49 50 50 46 44 43 39 39 36 35 33 35 34 29 24 24 22 23 21 21 20 22 23 22 25 26 28 33
72 61 59 71 59 54 44 39 39 42 43 41 33 38 35 41 41 48 51 50 49 51 50 45 42 41 36 36 35 39 29 25 24 24 23 24 23 28 29 26 25 28 30 31 33

GFSSW_prec_cthk_018.txt.gz
RH
20 19 18 18 17 16 16 16 16 17 14 14 17 17 17 16 13 16 18 20 22 14 13 21 22 23 29 34 30 28 28 27 30 38 63 51 57 55 49 45 47 56 64 73 60
22 21 20 19 18 16 17 17 17 17 14 18 19 17 18 15 17 21 25 21 19 17 14 25 26 27 29 34 32 29 30 29 51 57 61 66 57 55 53 67 58 74 76 60 50
25 23 21 20 20 18 18 17 18 16 16 20 19 18 16 18 29 38 30 20 18 16 21 32 31 34 30 32 33 29 26 34 53 51 50 62 63 62 58 61 75 77 61 55 72
27 26 24 22 21 20 20 18 19 15 18 21 18 19 16 19 39 36 26 19 20 23 30 36 36 38 34 33 32 33 30 39 52 58 58 66 67 67 59 53 61 78 66 52 54
28 28 26 24 23 22 20 19 19 15 18 20 19 19 15 25 27 35 24 22 22 24 31 37 34 34 37 36 32 32 38 38 52 58 67 57 62 60 53 46 58 59 50 48 43
30 29 28 26 25 24 21 19 18 16 18 18 20 18 17 30 33 30 23 21 20 23 29 33 36 39 40 34 31 33 46 39 39 47 56 61 61 60 68 57 57 38 52 45 40
32 31 29 28 27 24 21 19 17 17 18 18 19 15 21 27 34 33 24 29 32 31 32 36 38 36 42 39 41 40 36 33 41 49 57 53 57 45 56 56 49 46 45 42 45
33 32 30 29 27 24 21 19 17 18 18 17 18 18 25 32 32 33 32 35 37 35 35 42 36 36 39 45 40 40 41 43 41 42 46 51 42 33 44 41 47 43 39 42 44
34 32 30 30 27 25 21 18 17 18 17 17 20 24 37 35 31 31 35 40 41 38 35 32 28 38 43 45 43 38 39 42 40 40 40 42 41 31 37 63 55 54 59 56 50
34 31 30 30 28 26 22 18 17 17 17 19 21 29 33 34 37 32 35 41 39 40 37 32 37 44 44 47 43 40 39 37 37 30 42 31 37 33 28 41 67 45 46 47 47
32 30 29 30 29 27 22 18 23 27 23 19 29 35 37 39 36 32 40 42 44 44 44 41 45 48 49 47 40 41 35 36 34 33 33 26 40 36 26 43 52 47 68 43 48
32 29 29 30 30 28 22 23 40 43 37 23 27 35 40 36 34 38 36 42 45 49 54 41 49 51 48 44 42 36 36 31 31 24 22 27 35 24 29 35 42 47 43 60 52
35 28 30 31 32 27 21 17 31 33 35 32 23 31 37 33 30 34 34 47 49 49 54 52 49 47 41 42 36 34 34 38 34 21 18 39 33 35 27 35 44 45 46 49 52
36 27 30 35 33 26 19 17 29 34 36 38 30 32 36 33 26 40 41 45 53 52 54 57 49 43 40 36 35 43 43 41 43 39 38 38 41 41 53 37 33 37 37 39 49
40 25 29 36 39 29 42 30 36 40 51 38 37 33 34 28 27 35 40 47 49 47 54 51 51 40 39 48 45 46 40 39 41 35 44 52 44 48 46 42 33 33 36 40 46
42 26 30 35 33 30 37 46 43 50 51 41 40 37 35 31 32 38 34 32 43 45 53 48 48 51 55 39 33 36 29 34 32 34 55 49 54 56 57 50 55 45 48 44 41
45 26 30 36 37 33 39 51 55 46 34 41 37 35 35 35 33 34 42 30 37 46 52 44 31 31 33 34 28 21 32 42 62 60 44 38 46 50 44 56 57 54 47 43 42
45 28 29 37 41 40 49 61 54 31 39 33 31 34 42 44 33 29 36 32 30 41 43 57 55 41 29 30 46 49 29 47 80 83 53 47 40 37 37 43 40 55 50 40 43
49 31 30 35 37 46 60 69 52 37 31 41 33 40 38 42 37 31 31 31 32 35 54 63 60 62 44 36 27 35 40 42 50 63 48 34 23 30 33 38 35 40 39 38 41
51 34 28 37 38 51 59 55 44 39 35 44 34 32 39 42 33 34 32 33 36 41 49 66 78 53 43 33 26 24 35 39 33 37 34 26 34 41 43 34 21 29 36 37 39
55 41 32 40 40 57 57 50 48 39 37 48 30 37 37 44 30 34 41 48 41 52 38 36 53 51 39 33 24 34 30 27 29 45 56 45 34 35 32 23 19 24 36 36 34
53 41 40 42 44 45 52 45 44 46 38 40 38 38 36 44 38 36 41 44 41 30 30 27 30 41 35 37 29 37 48 39 49 32 43 43 27 24 22 15 16 20 28 34 32
53 47 60 43 40 48 46 48 44 47 46 35 33 37 35 45 46 36 40 46 39 29 26 31 28 35 37 51 33 26 23 29 44 42 41 50 29 24 22 20 19 19 22 32 35
57 60 75 57 35 47 45 45 43 45 48 38 37 39 36 30 37 36 38 41 34 30 26 28 30 29 41 39 51 55 35 28 31 45 37 29 22 30 25 25 23 22 22 27 33
65 50 62 56 46 49 49 48 42 50 45 49 38 29 34 31 39 40 43 46 37 29 30 29 30 31 33 39 52 54 45 39 35 31 34 26 26 27 25 28 27 26 27 25 29
60 52 54 55 48 52 52 52 43 45 43 51 49 35 37 38 37 45 45 49 44 41 35 37 42 38 37 34 37 37 39 36 31 32 32 25 28 27 28 27 26 26 27 29 28
57 57 64 60 55 58 51 57 49 48 47 46 39 42 38 49 48 50 52 67 52 53 49 50 53 50 43 37 36 38 31 28 27 28 27 29 25 25 28 30 30 28 28 30 29

GFSSW_prec_cthk_021.txt.gz
RH
21 21 21 21 20 19 18 18 16 16 15 13 14 15 15 14 15 14 20 21 21 19 17 14 20 21 29 29 29 29 33 30 33 57 64 60 66 67 64 62 53 55 59 63 71
24 23 23 23 21 20 19 19 17 16 16 13 16 16 15 14 15 27 29 26 18 16 14 15 24 24 30 35 35 30 30 34 46 56 59 59 58 67 70 75 65 67 72 76 75
27 25 25 25 24 22 21 20 18 16 16 14 16 16 15 15 26 30 27 22 18 16 15 23 27 28 30 37 37 30 32 40 44 52 57 58 58 55 63 72 71 70 71 86 90
30 28 27 27 26 24 23 22 19 17 15 14 16 15 15 15 27 28 26 21 18 20 25 32 31 32 38 33 35 34 35 40 47 55 61 64 57 60 67 69 68 65 69 87 91
34 30 29 28 27 26 25 23 20 17 15 15 16 15 15 18 19 25 26 21 20 21 28 34 35 37 39 37 36 38 38 52 51 48 59 60 56 55 50 61 76 73 70 76 72
39 34 32 30 29 28 26 24 20 17 14 16 15 15 15 25 25 29 24 19 20 22 28 34 37 40 40 38 35 35 43 53 56 54 54 49 54 58 51 56 67 60 60 47 43
46 37 33 31 30 29 26 24 20 16 14 16 15 15 16 21 29 26 28 25 27 24 27 32 38 40 39 42 42 39 45 43 57 53 51 53 50 49 43 37 37 49 43 36 37
52 40 34 32 31 29 27 24 19 15 14 16 15 16 18 24 28 30 29 32 35 32 32 34 38 38 38 39 37 35 42 47 46 48 52 51 46 47 45 44 37 39 34 39 48
50 42 36 33 32 30 28 24 18 15 14 15 16 25 22 26 27 27 31 38 41 41 36 34 32 34 38 43 44 40 42 43 44 47 49 48 50 49 63 53 56 49 44 41 42
44 44 35 33 31 30 29 23 17 14 15 15 16 24 22 24 28 29 31 40 42 40 37 33 30 42 45 44 48 43 42 41 40 36 47 43 41 49 49 46 48 64 58 56 38
39 46 34 31 29 31 29 23 28 32 28 14 20 26 27 31 32 30 36 40 41 45 42 35 42 50 46 50 45 44 41 42 38 39 31 37 36 43 42 35 44 48 55 43 42
39 48 37 30 29 31 30 24 33 33 32 23 21 26 28 32 31 29 36 38 45 46 46 47 49 46 46 48 48 44 45 40 36 37 27 38 38 31 36 35 48 48 52 41 47
42 46 40 28 31 33 31 24 31 29 31 22 19 24 29 32 29 28 36 40 47 49 50 48 45 51 49 45 45 44 46 38 35 31 16 27 34 35 34 37 52 51 43 42 43
35 44 42 30 32 37 37 23 22 26 36 23 27 20 27 32 29 27 36 41 45 48 50 51 45 46 49 46 40 41 44 43 41 37 27 32 40 44 44 45 43 44 45 49 49
28 36 42 27 32 38 43 33 34 35 54 24 29 28 26 29 26 31 38 46 44 49 48 52 50 46 47 46 40 44 41 41 40 45 52 47 45 44 50 43 45 51 47 47 46
28 32 42 24 29 38 50 45 42 48 54 34 32 30 28 27 24 28 38 42 44 50 46 48 46 45 42 41 41 33 35 35 42 45 56 40 46 53 44 45 43 46 46 43 48
34 32 39 28 31 40 45 51 53 61 28 35 33 33 30 29 26 32 41 39 44 47 47 45 46 50 46 38 32 36 30 45 45 59 55 50 54 51 46 46 39 35 34 39 43
39 41 42 30 40 43 44 56 64 36 33 34 35 37 30 28 27 34 46 41 31 30 43 50 52 48 53 44 47 49 34 52 59 78 59 59 64 50 40 41 44 39 43 41 39
40 34 44 32 46 52 51 60 49 36 27 32 37 37 27 35 40 33 38 40 35 25 43 51 55 49 54 46 49 39 47 47 65 69 72 58 42 45 46 45 49 44 41 35 39
44 45 31 36 46 58 55 52 42 31 38 40 43 33 30 40 46 43 37 28 34 33 41 51 55 56 61 51 42 30 40 50 54 54 43 30 41 53 53 50 38 32 34 39 39
42 41 31 43 43 57 52 52 38 36 45 50 43 35 27 40 44 40 35 39 40 44 49 53 56 56 58 56 41 33 32 27 30 44 54 56 45 40 37 34 31 36 37 37 34
41 43 34 47 52 53 46 42 34 40 48 50 46 40 29 42 50 41 31 52 47 44 51 61 56 53 44 39 35 31 37 52 56 38 50 50 36 30 30 29 29 26 30 33 35
50 48 48 50 43 47 40 38 35 45 50 48 44 34 32 43 54 38 37 48 49 51 51 38 37 45 39 39 41 41 32 37 44 48 48 50 37 25 23 26 26 24 25 30 35
54 60 61 52 30 38 37 32 38 43 49 49 42 34 35 49 50 49 42 51 45 45 39 35 31 32 36 25 39 47 45 37 33 49 45 45 33 22 26 31 29 27 26 27 32
62 51 54 53 47 37 39 32 38 51 51 51 43 35 38 46 49 54 52 44 39 36 33 31 29 26 27 29 38 44 46 57 44 37 43 36 34 25 33 33 32 31 31 31 33
64 47 50 48 50 46 38 35 36 47 52 51 51 31 40 38 39 43 41 39 36 37 33 29 33 29 29 29 36 40 46 46 46 38 36 34 34 30 33 31 30 31 32 34 35
64 49 47 50 56 50 34 33 36 43 46 45 44 40 39 40 37 42 39 44 47 48 44 42 42 44 45 41 35 35 25 30 30 37 36 33 31 31 34 31 30 30 31 32 32

GFSSW_prec_cthk_024.txt.gz
RH
20 21 22 22 23 22 21 20 20 18 17 14 13 12 14 12 12 15 23 24 20 18 16 17 18 19 27 28 30 40 37 38 36 51 56 54 58 57 60 63 68 67 62 69 70
24 23 24 24 24 24 23 22 21 20 17 15 13 12 13 12 15 22 24 22 22 16 15 15 19 21 30 30 36 38 32 36 41 52 47 49 56 58 62 62 68 72 74 80 75
29 27 27 27 26 26 25 24 23 21 18 15 12 12 13 11 22 23 21 22 18 17 16 19 26 28 30 37 38 35 31 40 45 44 46 51 56 60 64 69 69 73 77 81 86
39 33 31 29 29 28 27 25 25 22 18 15 12 13 12 12 22 20 21 21 18 20 23 31 32 33 36 38 40 36 37 39 42 41 48 56 59 61 62 68 71 68 73 82 95
48 43 35 31 31 30 29 27 26 22 18 14 12 13 12 15 19 23 21 20 18 22 27 34 34 39 41 40 40 38 39 38 46 53 54 56 58 62 58 68 69 71 83 90 82
49 50 40 33 32 32 30 29 28 23 18 14 12 14 12 20 23 26 24 19 18 23 30 35 36 40 40 40 41 42 40 46 49 57 55 52 57 59 58 70 74 73 76 73 64
44 49 46 35 34 33 32 30 28 22 18 14 13 13 13 19 24 25 26 22 24 24 29 32 38 41 37 40 45 42 47 51 55 55 52 50 52 52 49 46 52 58 51 46 46
33 44 49 40 35 34 32 31 28 22 17 14 13 14 13 19 24 23 26 27 29 31 33 32 36 38 35 38 39 37 41 51 55 57 54 48 50 48 48 42 38 43 45 46 45
31 36 44 43 37 35 33 31 28 21 17 14 14 16 16 21 23 24 31 33 38 38 39 33 36 37 36 40 38 38 42 45 50 58 55 52 51 50 51 55 52 50 49 47 50
29 31 41 43 35 37 34 31 27 21 17 14 15 16 16 23 25 25 30 33 37 38 38 36 31 34 43 45 49 41 38 40 44 45 48 45 47 48 46 42 50 52 56 48 45
31 30 36 45 36 37 34 31 28 35 29 14 14 15 22 25 26 25 28 33 38 44 39 36 39 44 42 50 49 48 47 42 42 42 44 43 47 47 47 42 40 49 50 45 43
34 33 32 42 39 35 37 32 34 32 29 21 22 22 24 27 30 28 29 32 40 44 45 43 46 47 52 52 49 53 46 45 39 35 39 41 42 47 50 41 41 37 47 49 50
36 36 28 42 39 38 38 38 33 36 32 17 19 19 24 27 30 28 29 31 39 43 48 43 41 46 52 53 50 48 47 44 40 34 38 37 40 51 48 46 51 44 38 38 35
38 44 50 50 52 37 48 38 27 32 37 21 19 18 24 28 30 29 29 31 39 44 48 46 42 45 52 49 46 45 41 41 38 39 34 25 40 40 41 45 51 52 46 36 36
30 32 48 47 36 38 52 42 33 36 45 20 21 19 22 25 27 26 29 30 37 42 45 50 46 45 50 47 44 42 43 44 43 44 38 38 40 42 42 46 46 51 49 49 37
26 37 34 36 37 44 52 47 43 51 50 29 28 26 24 26 26 28 30 30 38 42 48 46 48 45 50 49 45 43 41 47 47 50 58 52 51 45 48 44 43 46 49 47 47
24 25 40 34 36 38 53 53 56 60 25 31 30 28 26 25 24 30 33 33 42 46 51 47 46 44 44 45 43 39 34 47 48 62 63 54 50 45 44 43 42 42 42 41 47
33 21 33 38 45 37 48 61 61 38 29 32 32 32 29 27 24 28 29 31 38 40 46 49 53 51 44 46 41 45 46 45 44 61 52 51 46 34 44 42 43 39 42 45 46
30 38 31 39 50 46 52 66 51 36 26 30 35 36 33 30 25 30 30 29 34 36 38 50 55 50 44 44 45 51 49 45 59 65 63 57 47 37 40 41 36 40 32 34 37
28 32 43 29 62 54 55 56 52 28 37 34 38 35 36 29 31 34 31 26 33 36 37 40 52 51 51 46 49 45 47 54 61 65 64 39 35 42 38 42 43 38 33 31 33
38 41 39 36 58 67 58 53 46 28 40 43 40 40 34 30 32 39 35 32 29 36 40 45 50 50 47 46 51 45 38 41 50 59 53 53 43 38 39 31 31 28 27 26 27
39 48 43 35 69 50 55 50 44 34 44 50 50 47 36 29 37 42 37 33 35 39 44 44 51 65 52 46 40 40 36 38 51 41 55 52 39 35 36 36 33 30 29 25 27
41 52 51 37 56 51 46 49 49 35 45 50 51 46 36 31 36 41 45 37 38 40 44 49 58 64 58 47 46 42 43 43 45 60 54 52 44 31 28 28 31 29 28 28 29
50 61 64 56 33 39 47 42 45 33 45 51 54 48 45 34 36 46 44 41 44 42 53 53 51 42 42 36 38 42 43 47 50 51 50 49 38 35 29 27 29 28 27 29 32
61 56 54 50 41 42 42 42 37 38 40 46 55 49 50 40 38 42 47 46 48 48 55 55 50 43 36 29 28 30 34 36 46 52 50 35 39 35 27 28 28 29 28 28 32
61 56 54 44 37 38 44 41 32 32 36 47 52 48 44 39 39 43 51 47 49 50 49 49 50 46 39 35 29 28 35 32 42 53 52 44 39 36 35 30 28 29 33 34 36
64 60 57 40 42 42 35 37 24 30 37 46 50 49 43 37 43 41 45 53 55 51 46 44 46 44 39 34 31 39 25 30 33 49 45 46 42 40 38 36 35 36 39 40 40

GFSSW_prec_cthk_030.txt.gz
RH
20 19 18 17 18 19 20 20 22 23 24 24 23 20 15 13 10 13 16 15 16 17 16 18 18 21 23 27 28 28 39 35 39 44 47 56 59 61 59 64 71 73 75 77 77
23 22 22 21 20 20 22 22 22 24 25 25 24 20 15 13 12 18 18 15 16 18 16 17 17 21 27 29 32 34 42 36 41 45 53 56 60 64 65 70 73 75 77 79 80
32 29 28 29 26 23 23 23 23 26 27 27 25 21 16 12 13 18 16 17 16 18 15 20 23 25 29 30 34 39 43 41 40 47 53 57 59 62 66 69 72 76 81 85 85
46 44 41 40 39 32 26 25 25 27 29 29 26 22 16 12 17 17 18 15 16 17 19 25 30 32 33 37 38 42 43 40 41 45 52 59 58 63 60 64 67 72 77 83 84
35 39 41 43 46 42 31 28 27 29 31 30 27 22 16 13 15 20 16 13 14 18 26 29 34 36 34 41 44 42 37 40 41 49 56 61 62 64 62 70 67 64 69 80 87
36 36 39 38 38 43 37 31 29 31 32 31 27 23 16 13 19 19 17 16 16 22 27 32 36 38 38 40 41 41 44 46 48 50 58 59 60 57 62 69 63 58 56 57 57
32 33 33 37 35 40 42 36 33 32 33 32 28 23 16 12 18 20 20 20 19 22 26 31 34 40 42 37 39 42 48 57 60 54 53 57 58 60 62 60 64 56 45 46 44
29 32 33 38 38 40 46 42 35 34 34 33 29 22 16 11 17 20 20 22 22 23 25 30 34 39 43 42 37 43 47 48 60 59 56 54 57 60 61 54 57 48 46 45 50
24 29 30 35 40 41 45 44 37 35 35 33 30 23 15 12 16 20 21 25 26 29 32 31 33 35 41 45 40 43 46 49 56 59 55 53 51 63 68 63 63 49 49 45 46
29 29 34 34 34 38 47 47 39 37 36 34 32 26 14 15 18 21 23 26 29 32 35 34 35 37 39 47 46 45 44 48 50 53 55 55 53 57 66 62 62 56 51 45 44
35 40 41 38 37 38 47 49 45 42 39 34 29 22 16 17 19 22 25 27 32 34 35 35 38 37 38 45 45 47 44 45 47 45 46 46 47 50 58 59 57 69 58 43 42
33 40 55 58 58 46 44 43 49 45 41 33 33 30 19 20 23 23 24 27 30 35 38 42 43 39 41 45 47 45 45 47 47 45 40 41 44 43 50 55 49 53 58 44 43
27 29 44 56 55 50 49 46 42 47 45 35 33 28 18 20 22 23 25 27 30 36 38 44 43 43 37 45 50 48 49 50 48 39 41 38 37 44 42 50 53 53 52 44 44
24 20 38 50 52 42 40 48 54 50 47 41 36 28 20 20 22 24 25 27 30 35 40 42 43 43 38 44 51 51 48 49 46 43 41 43 42 37 39 49 49 52 51 46 35
24 21 31 39 50 52 56 57 49 50 54 39 42 33 21 19 20 24 27 28 30 34 41 43 46 44 42 44 45 47 45 44 42 42 43 45 42 36 37 44 47 45 50 51 51
22 21 26 31 45 50 65 63 59 65 52 37 41 33 25 21 23 25 28 27 28 32 38 41 45 48 44 44 41 43 43 44 44 44 50 46 45 40 40 39 44 47 48 50 51
23 24 23 29 28 44 60 80 84 76 43 41 41 30 24 22 25 26 28 29 29 33 38 41 44 45 46 46 43 42 44 48 44 56 53 50 50 39 35 35 37 42 44 44 42
27 27 23 24 25 37 54 82 84 60 51 43 42 30 26 24 26 29 30 31 29 29 43 45 46 46 45 48 47 44 44 51 42 56 49 50 45 30 35 34 35 38 38 37 36
31 32 27 23 29 41 56 82 68 59 48 39 39 39 33 27 27 29 31 31 30 27 37 47 45 47 49 49 50 49 49 45 58 65 63 48 37 28 32 38 39 39 38 37 39
35 33 29 25 26 43 59 59 64 50 46 51 37 40 38 33 29 30 33 30 28 27 35 43 46 50 52 54 52 48 48 52 56 55 57 51 46 37 28 38 41 38 37 33 27
46 41 28 34 38 48 52 53 53 51 49 55 52 44 39 37 32 32 32 29 27 27 33 42 44 45 51 52 49 50 46 46 51 59 61 59 44 40 27 31 34 38 36 30 27
54 46 29 34 51 50 51 50 44 50 49 56 54 47 45 38 38 33 30 26 27 29 33 34 43 50 42 47 48 44 45 49 59 54 68 62 40 33 29 31 37 32 29 29 31
56 52 45 30 57 47 42 54 42 42 53 50 44 46 48 43 43 38 30 28 28 31 36 40 45 52 43 41 46 46 46 48 52 57 57 55 38 31 43 33 29 28 29 26 27
60 65 71 58 24 37 45 51 54 37 52 47 35 44 52 50 47 40 35 38 35 35 38 42 46 41 39 33 42 49 48 51 52 60 48 47 37 36 34 34 31 28 26 27 26
65 64 56 58 42 37 39 40 50 43 47 43 36 41 55 55 53 45 41 42 42 42 43 43 46 46 43 43 47 44 43 49 47 47 47 35 38 35 33 37 38 30 28 26 29
70 60 54 50 39 39 47 43 44 41 48 46 42 34 50 63 57 49 48 45 41 45 45 46 49 47 50 53 51 51 38 35 35 32 35 36 32 27 30 41 38 36 35 34 33
69 59 55 47 53 50 36 37 41 37 45 50 38 35 41 52 56 55 53 51 48 47 49 48 51 55 62 62 60 58 40 36 33 28 29 32 27 27 29 37 45 46 42 39 39

GFSSW_prec_cthk_033.txt.gz
RH
23 22 22 22 21 19 18 19 20 21 22 22 23 25 22 18 16 15 16 15 14 14 14 15 20 19 21 25 26 28 36 37 43 47 49 57 61 66 63 66 67 70 69 71 75
28 26 25 26 26 25 22 20 21 22 23 23 24 26 23 19 17 18 18 15 14 15 13 15 19 24 25 28 30 35 41 36 45 48 51 58 59 64 69 71 70 73 71 71 74
41 34 31 30 31 31 31 25 24 24 25 25 25 27 24 20 18 20 16 16 14 14 12 16 19 24 26 29 31 38 41 38 41 44 51 58 59 62 70 70 69 73 74 73 78
40 43 46 42 39 38 39 35 30 28 27 27 27 28 25 20 22 19 18 14 13 14 18 20 25 27 29 34 36 38 42 41 41 45 51 59 62 61 65 66 66 65 72 78 82
39 38 38 39 42 41 43 44 35 31 29 28 30 30 26 21 18 22 16 12 13 16 22 26 29 30 30 35 38 37 39 42 41 44 57 61 61 57 65 72 62 63 83 89 84
36 39 40 38 42 42 42 44 42 35 31 31 32 32 27 22 20 23 17 13 14 19 24 27 31 31 34 36 41 41 39 44 46 53 59 59 61 59 63 58 60 57 73 88 89
29 34 38 41 38 36 38 42 46 38 35 35 35 34 28 21 21 25 20 15 17 20 23 27 31 33 33 34 40 45 53 59 64 62 62 61 60 61 59 61 62 56 56 64 63
24 26 30 35 38 38 41 41 48 43 37 35 37 36 28 21 20 25 21 18 19 20 22 26 30 34 34 36 39 45 54 54 65 65 65 60 65 66 59 58 61 50 54 42 38
23 25 25 30 34 40 41 40 47 46 41 39 39 37 29 21 20 23 21 21 21 24 28 28 29 33 33 37 43 45 48 49 58 64 62 60 61 65 64 62 48 46 46 50 39
23 22 25 29 31 38 37 38 43 38 43 44 44 41 31 23 22 24 22 23 26 27 31 31 31 32 33 37 46 48 48 48 54 57 57 55 55 63 65 62 52 47 47 42 40
23 25 26 31 42 44 41 38 34 37 43 42 46 36 30 23 23 25 23 25 28 29 33 32 31 32 31 37 44 44 45 47 45 49 50 49 48 54 60 62 66 59 45 42 40
21 23 29 32 44 51 48 44 44 44 47 42 40 41 35 26 26 27 23 25 29 31 33 35 33 29 33 38 40 41 44 46 46 45 45 45 47 45 51 54 57 64 52 41 41
22 21 24 29 44 54 57 56 59 48 49 38 39 37 34 30 27 28 23 26 29 32 35 38 33 33 38 45 46 41 44 49 47 45 42 36 40 45 44 48 56 59 60 52 47
22 21 20 31 36 47 50 49 54 54 53 39 38 36 33 32 30 29 24 25 30 31 36 37 37 38 39 41 47 48 42 48 49 45 39 37 35 35 40 46 49 54 53 44 44
20 21 18 25 32 41 53 51 49 51 55 38 43 39 37 36 30 28 24 26 30 30 34 35 37 38 39 43 51 51 48 50 48 45 46 43 38 38 35 40 43 48 50 53 42
25 22 20 22 27 33 52 61 55 59 57 37 43 44 44 38 32 27 25 26 30 31 33 37 39 39 38 40 46 51 49 48 49 47 47 45 44 36 32 33 38 42 47 51 54
30 27 22 21 26 30 46 66 72 73 41 38 47 44 43 39 36 27 26 28 30 34 34 34 38 39 42 41 43 48 49 50 43 50 46 48 47 39 36 33 34 36 41 46 50
41 33 29 21 26 28 48 67 76 53 44 45 48 49 43 38 35 28 29 29 30 30 34 34 39 40 41 40 43 46 48 51 47 46 39 48 44 33 30 32 37 35 36 40 40
49 43 34 27 31 35 51 60 52 55 51 49 46 58 46 37 30 30 32 28 29 29 31 41 39 41 43 44 44 47 50 47 55 61 54 42 38 31 29 28 38 41 43 41 40
51 47 40 37 37 39 51 41 43 46 46 56 51 52 51 39 33 31 33 29 29 30 30 37 42 43 46 47 50 51 51 55 55 53 53 45 43 34 33 29 34 36 36 39 39
57 51 36 44 50 50 48 38 40 40 44 50 61 55 54 45 35 33 33 30 28 31 31 35 41 46 48 50 48 53 53 53 50 51 49 50 42 37 32 31 32 34 41 38 34
75 54 36 44 63 56 40 35 36 34 46 52 60 65 53 52 46 39 34 30 30 30 32 35 43 52 44 46 47 47 48 49 52 48 53 54 44 40 30 33 31 30 30 34 34
75 61 49 40 61 54 32 40 38 35 39 51 58 61 57 54 50 44 38 31 30 31 32 35 42 45 45 44 47 49 48 48 48 51 53 58 42 29 27 29 38 32 30 30 28
84 78 71 55 34 41 50 47 46 34 38 49 53 55 59 60 60 50 41 38 31 30 32 35 40 38 36 34 39 43 43 52 52 54 51 47 36 30 36 36 31 30 27 24 23
89 74 75 51 45 43 48 43 45 40 37 42 50 56 49 61 66 57 48 46 41 36 38 41 43 45 39 37 41 39 41 48 48 47 49 42 42 35 26 25 24 30 34 33 26
89 70 63 52 28 37 53 55 47 41 32 42 42 44 49 43 59 62 57 53 49 47 45 48 45 46 44 45 47 48 43 46 47 43 34 32 30 25 24 24 24 31 36 40 37
81 63 54 49 44 49 41 49 52 48 37 35 44 48 47 28 54 65 64 55 53 54 54 55 54 52 51 51 53 51 46 47 51 43 34 35 26 25 26 28 27 27 41 44 47

GFSSW_prec_cthk_036.txt.gz
RH
28 26 27 25 24 25 23 19 17 19 20 21 22 22 22 20 20 21 21 19 14 13 12 13 17 20 20 21 23 26 30 36 43 45 47 54 62 65 62 63 68 67 69 68 72
36 32 30 29 28 27 27 26 22 20 21 22 23 24 24 21 20 24 23 19 15 13 12 13 17 20 22 25 25 30 32 37 43 42 43 51 54 59 65 68 71 69 69 72 72
43 43 41 36 33 33 32 30 30 25 24 25 27 26 26 22 22 26 22 18 15 13 11 13 16 20 23 26 29 34 40 36 37 40 42 52 57 63 65 68 69 73 74 77 75
39 38 39 40 43 41 39 36 35 33 28 27 29 31 27 25 26 26 23 18 15 13 13 15 19 23 25 31 32 34 39 38 35 41 49 58 61 63 62 69 68 65 68 75 79
33 35 38 38 37 37 42 40 37 39 36 32 32 32 30 30 24 23 23 17 15 16 17 21 24 26 26 31 35 34 38 39 39 43 54 58 61 59 68 74 65 66 83 83 87
26 28 32 38 39 37 34 37 37 41 40 36 35 34 36 33 24 27 22 18 16 18 19 22 25 26 30 33 42 41 41 46 42 53 60 61 59 59 61 63 65 66 90 91 92
25 24 26 30 36 40 39 36 34 37 40 38 37 38 37 34 26 30 23 20 18 19 20 22 25 28 30 31 38 44 52 51 54 66 64 60 58 59 60 67 68 62 72 91 91
25 25 23 24 27 34 37 36 38 36 42 44 42 39 39 33 27 30 26 22 21 19 19 22 24 28 30 29 37 44 50 57 65 61 60 62 61 60 58 62 61 60 54 56 64
25 25 24 22 22 27 30 33 37 36 39 44 41 45 40 34 28 29 28 26 24 21 20 22 25 28 30 30 38 39 47 52 57 59 62 62 59 62 64 57 49 53 49 40 44
22 24 22 21 20 22 28 32 36 35 35 38 42 45 43 38 31 29 29 27 26 24 26 27 26 27 30 29 42 45 46 50 57 56 57 56 55 59 62 62 49 50 49 43 46
20 20 21 20 19 22 27 38 45 44 40 34 39 39 37 44 36 32 29 28 29 28 29 27 28 28 30 29 38 40 43 46 48 48 54 49 50 54 58 64 59 50 47 44 40
19 18 20 18 17 21 27 43 51 49 44 36 32 36 39 41 39 34 31 31 32 30 31 29 27 27 26 29 32 36 41 46 42 44 48 45 43 43 51 52 62 55 45 43 42
21 19 18 18 15 20 27 38 44 50 51 41 38 35 39 42 38 35 31 33 34 33 30 31 31 27 30 35 36 37 43 43 42 43 47 42 40 40 41 47 51 57 51 43 42
27 23 20 16 16 22 27 30 42 55 55 40 43 38 37 39 40 33 31 36 36 34 33 32 31 31 34 38 40 45 40 41 44 44 43 37 39 34 36 40 45 47 48 41 42
30 28 25 20 21 23 25 31 44 59 44 35 41 41 38 35 36 33 32 37 36 31 33 31 31 35 35 37 40 47 45 44 45 47 45 42 37 40 34 31 38 44 42 44 37
28 37 30 27 20 21 28 35 49 57 42 33 42 42 42 39 36 34 33 36 36 35 34 39 31 36 37 38 42 44 44 46 48 48 48 42 39 40 37 31 34 38 45 45 46
28 37 40 33 22 31 35 41 53 50 33 32 41 44 41 39 38 35 38 39 34 34 35 35 35 35 37 37 42 43 46 50 50 51 49 43 40 40 36 31 30 30 38 43 46
31 39 38 37 30 37 45 49 45 24 34 38 40 46 42 39 39 38 39 37 36 28 36 35 40 34 37 40 43 43 47 50 54 47 42 44 39 39 33 29 25 29 32 35 45
42 49 46 29 27 43 62 59 24 23 33 35 42 47 48 39 40 42 41 39 33 28 34 35 38 35 38 41 43 46 45 47 51 51 46 43 38 31 29 28 26 32 36 33 42
55 56 54 40 31 45 65 53 24 23 35 40 40 42 51 43 37 41 42 40 31 28 30 34 40 36 42 45 46 48 47 48 48 55 53 45 41 39 37 32 28 29 34 39 42
70 66 47 56 45 53 68 42 27 30 38 40 48 44 47 52 42 41 43 39 29 29 31 33 36 47 42 44 46 48 47 47 51 51 50 47 42 37 38 35 34 32 34 35 32
83 69 63 67 65 56 53 28 32 36 45 40 49 57 48 52 53 43 39 32 27 29 31 32 37 45 44 46 47 49 47 49 52 50 47 49 38 36 38 38 33 36 32 32 38
84 82 80 74 74 51 30 30 48 46 43 46 42 48 52 58 57 47 43 35 31 31 33 35 37 44 43 43 44 45 44 44 47 48 46 55 41 34 30 27 30 35 33 30 30
94 97 95 79 49 49 25 26 45 52 54 51 46 41 52 64 58 53 48 44 34 31 35 35 35 35 42 38 43 48 44 47 49 52 46 47 40 40 43 34 34 34 33 35 30
96 95 78 73 62 34 29 19 29 48 44 54 58 49 50 65 63 60 58 56 46 37 35 38 38 36 35 36 37 37 38 39 40 39 47 46 43 38 37 40 36 23 21 27 31
93 85 80 68 67 42 36 38 33 42 43 38 54 51 48 63 64 67 69 65 57 47 39 41 40 38 37 36 40 41 35 38 38 38 39 38 40 29 27 28 27 23 20 29 34
87 86 79 74 72 60 38 40 37 37 41 39 40 45 47 44 64 68 74 75 69 61 48 46 43 45 43 45 46 47 38 37 36 37 39 42 37 31 32 29 25 28 30 26 39

GFSSW_prec_cthk_042.txt.gz
RH
40 41 42 37 32 27 24 21 21 21 20 20 20 19 18 19 20 22 24 26 24 18 16 16 17 17 18 18 17 26 32 37 35 36 42 39 48 48 52 57 57 61 63 67 78
36 34 35 37 40 38 29 25 24 24 23 21 21 21 19 20 21 22 27 26 24 19 16 18 18 18 20 25 23 26 36 39 35 32 32 35 43 49 39 60 71 64 56 59 68
31 31 33 34 35 36 38 35 28 25 24 23 22 23 22 22 24 29 30 28 24 21 18 19 19 18 23 29 28 30 35 42 34 35 26 37 42 57 60 78 55 61 67 59 67
30 28 29 32 33 33 34 34 36 34 30 27 25 26 27 26 30 32 32 29 25 21 17 17 17 17 25 33 36 26 29 34 31 33 30 32 63 71 57 73 60 60 62 57 65
31 29 29 28 29 31 31 33 33 32 33 32 30 31 34 32 32 35 32 29 25 21 19 18 18 20 29 38 31 34 31 33 34 32 30 37 49 59 70 54 50 56 55 61 68
31 30 28 28 28 28 29 31 32 32 33 33 32 32 37 39 37 35 34 29 27 23 21 21 21 30 28 33 31 37 35 27 42 30 36 47 62 67 81 55 53 55 59 59 65
36 32 31 28 28 27 28 28 28 30 32 32 33 35 38 34 35 35 38 32 29 27 24 24 22 26 27 32 35 27 28 40 52 53 54 54 66 70 70 63 55 51 50 65 71
37 37 33 29 28 27 27 27 26 27 27 29 32 35 40 35 35 37 42 38 32 31 26 25 22 22 25 27 30 28 33 40 52 52 55 52 60 56 60 67 57 50 58 62 68
34 32 31 28 26 28 27 25 25 26 26 28 30 34 36 34 36 42 42 39 35 31 29 24 22 20 22 27 29 36 38 42 46 48 50 62 76 59 66 67 54 49 55 52 63
24 26 30 28 23 21 25 26 26 29 36 36 35 38 32 29 36 42 39 42 41 34 31 25 23 21 24 29 39 45 46 47 53 49 43 67 75 63 72 52 50 44 41 44 49
20 19 20 20 22 15 13 17 33 51 54 43 43 39 36 34 36 35 39 42 45 44 35 28 27 24 28 32 33 38 43 47 50 45 42 51 67 72 66 55 46 43 30 28 34
19 19 26 19 18 12 10 15 24 43 41 37 33 36 33 39 35 35 37 44 44 43 34 32 32 33 31 35 33 35 36 40 38 44 36 33 40 59 60 54 39 41 39 33 38
19 19 24 26 17 13 10 9 26 34 34 24 25 28 33 36 36 35 36 42 43 42 37 33 34 44 38 32 30 27 30 37 42 49 44 34 36 41 58 60 51 41 46 42 37
22 23 27 29 16 19 12 15 20 23 27 15 17 27 30 36 35 31 37 39 43 42 37 37 38 42 36 29 25 28 30 41 46 47 39 47 46 40 54 53 52 39 40 41 44
30 26 25 31 32 24 42 35 34 25 24 14 20 26 29 34 35 34 33 42 44 42 42 36 44 36 35 24 26 36 42 43 41 37 43 44 42 33 40 46 58 47 42 44 41
42 33 29 31 31 18 38 43 26 30 26 15 27 27 29 33 35 38 35 37 43 45 44 39 46 44 38 28 32 43 44 52 44 34 46 42 40 48 47 47 47 50 53 51 46
46 42 36 37 35 32 42 41 34 26 12 12 28 30 28 32 35 39 39 40 42 46 44 40 42 47 37 34 34 37 43 46 50 53 49 43 41 40 43 41 45 42 43 44 47
61 54 46 39 40 43 55 53 32 10 16 23 23 26 30 33 37 37 40 42 42 42 46 44 50 42 37 36 40 37 39 47 73 83 63 55 44 34 35 38 40 33 32 40 48
72 68 59 51 45 56 63 66 26 17 16 13 33 32 34 33 34 37 38 41 42 42 44 48 49 43 43 34 38 45 41 40 69 81 80 73 43 34 32 35 29 29 31 31 34
77 77 69 64 58 62 71 62 28 16 17 26 22 29 39 40 36 39 38 38 43 44 43 45 55 46 49 44 32 35 49 52 54 70 74 45 38 39 42 41 40 32 32 36 35
80 80 74 80 79 74 66 40 26 23 19 25 33 33 32 44 44 41 40 42 43 43 42 46 51 52 51 48 41 36 37 47 51 54 61 53 45 52 54 43 42 36 35 34 33
80 77 75 86 88 79 61 32 27 30 21 20 38 40 41 46 54 67 51 46 47 46 44 44 48 52 57 50 42 37 36 37 60 51 57 64 46 47 50 47 43 36 32 36 33
90 79 82 82 79 67 56 43 35 33 29 25 24 41 40 48 58 52 55 55 50 51 45 48 50 61 53 58 51 40 38 52 43 51 54 73 56 44 40 35 36 29 30 32 30
99 95 84 83 66 59 54 40 40 42 36 33 33 35 40 51 70 69 58 64 52 51 51 51 52 49 56 48 53 49 45 48 54 59 53 59 50 44 47 44 41 48 39 37 35
98 90 72 71 62 50 62 44 45 45 39 36 41 46 38 45 64 71 70 69 67 57 54 55 59 54 49 48 46 53 50 40 53 61 56 50 47 34 38 46 50 57 50 46 41
98 90 77 68 73 72 65 54 48 42 46 37 33 31 44 39 55 69 78 77 79 67 56 55 59 58 55 54 48 49 47 50 42 36 35 41 44 45 44 45 47 51 45 38 32
99 89 91 74 80 82 63 46 39 53 55 49 35 27 44 43 38 73 90 91 89 85 69 59 56 63 62 54 55 50 46 45 47 48 43 45 43 41 37 44 48 46 40 36 33

GFSSW_prec_cthk_045.txt.gz
RH
34 31 31 32 34 36 30 25 21 19 19 17 18 19 20 19 18 18 18 20 25 25 21 17 16 16 15 17 19 24 31 35 39 39 44 43 44 41 60 67 77 80 71 69 61
33 33 32 33 32 31 32 32 30 24 20 18 18 19 19 20 18 17 20 23 25 26 22 19 17 19 18 19 21 27 31 35 42 39 40 43 44 44 53 70 78 82 76 71 69
34 33 32 31 33 33 31 29 28 29 28 22 19 19 19 19 19 24 26 25 27 26 22 21 19 19 22 23 21 26 31 31 39 41 34 32 42 48 65 69 76 66 69 71 65
33 32 32 31 30 32 33 30 27 27 28 28 28 24 22 22 26 29 26 28 30 26 22 21 17 18 25 24 29 31 28 28 32 34 32 34 44 54 76 83 63 57 57 54 52
39 34 32 30 31 31 32 32 31 29 30 28 28 27 27 31 28 29 31 33 31 26 24 20 18 19 24 25 31 31 31 31 30 34 38 33 41 48 57 72 67 59 58 60 53
49 41 36 34 32 31 30 31 29 30 30 31 30 29 31 35 30 33 37 35 33 28 25 24 20 22 24 25 28 27 32 29 34 41 47 51 62 60 64 62 62 52 58 63 75
36 39 41 38 35 33 32 29 28 28 29 28 30 34 35 33 31 34 35 36 33 30 27 27 24 24 27 23 25 28 27 30 38 44 52 52 60 61 54 58 52 58 61 62 85
55 53 43 32 30 32 32 32 29 27 27 26 27 32 35 30 31 31 33 37 38 35 31 32 29 24 23 21 25 26 27 34 40 44 52 50 57 65 55 50 50 57 58 53 63
34 33 39 46 29 23 26 29 30 29 27 31 30 33 35 31 28 27 32 41 42 35 33 33 31 26 23 21 24 29 36 38 42 49 58 51 54 57 56 52 47 52 56 45 53
30 32 31 31 36 31 20 18 22 27 32 43 41 43 31 31 30 33 33 41 45 38 36 35 31 26 23 23 32 35 38 42 49 55 56 50 50 55 59 57 41 52 45 45 52
22 27 27 29 25 25 20 26 19 35 49 52 46 38 33 36 37 33 33 38 42 42 40 38 35 28 23 22 28 32 33 39 44 49 50 53 52 48 55 59 47 43 42 33 39
25 20 18 20 27 19 13 9 19 47 38 32 37 42 37 34 38 36 34 37 42 45 43 41 38 25 27 29 28 36 35 37 42 56 50 45 48 51 54 58 53 45 40 35 33
29 22 21 17 17 17 15 10 7 25 37 18 14 19 25 26 32 34 36 35 42 44 43 42 32 30 38 38 34 31 32 32 38 46 44 45 44 58 57 57 58 47 36 36 33
35 31 24 22 19 22 18 20 25 25 36 18 9 12 17 21 27 32 36 35 41 44 44 43 35 37 41 44 38 29 26 28 39 42 45 43 45 59 55 58 56 54 39 38 38
41 44 34 27 29 25 38 24 34 26 27 9 14 14 14 17 22 29 33 38 38 42 44 40 37 39 43 39 34 27 27 32 34 40 39 38 46 49 57 61 57 57 51 40 37
47 48 50 36 24 27 43 50 31 35 48 11 19 22 23 22 23 26 32 34 35 40 42 42 39 38 41 38 33 26 33 38 41 46 49 32 50 51 57 56 64 56 52 49 39
57 55 55 51 28 34 47 57 43 47 8 8 25 26 24 27 27 30 33 34 36 44 44 43 42 42 45 48 35 32 39 52 54 57 48 46 48 40 47 45 47 38 42 40 41
68 68 66 59 39 43 49 62 54 14 14 13 14 27 30 24 28 31 34 37 35 41 46 50 50 41 41 45 35 31 37 53 60 71 60 56 57 49 45 41 38 38 41 40 42
80 74 70 66 56 53 60 62 34 21 13 10 25 25 39 32 32 33 36 35 38 38 46 50 45 41 42 46 39 37 44 43 61 66 71 63 55 50 43 44 40 40 39 42 38
89 83 74 77 75 66 68 51 34 27 14 19 21 27 38 44 46 42 39 30 35 37 45 48 53 44 47 46 39 37 43 54 58 73 83 64 67 56 49 46 39 39 34 33 35
96 87 73 84 87 82 62 41 32 29 26 20 21 22 35 44 44 50 46 35 34 36 44 47 51 52 51 52 46 41 42 44 62 63 77 67 59 55 52 45 46 40 34 32 28
98 87 78 85 87 72 54 43 38 32 28 26 22 27 30 40 52 44 58 51 46 42 43 47 52 55 52 53 52 50 42 38 57 56 66 68 56 49 44 46 45 43 37 34 27
97 91 90 81 69 59 49 47 47 50 44 40 31 23 33 39 47 48 52 57 58 66 52 50 50 59 53 52 55 53 48 43 42 44 58 74 52 52 51 47 49 47 44 38 32
99 96 93 86 64 52 54 52 54 49 46 41 37 31 25 49 51 55 56 67 70 67 62 57 52 47 50 49 57 57 49 47 43 54 49 59 49 38 49 55 50 48 45 40 42
98 85 79 71 64 69 61 49 50 51 47 43 38 34 24 41 50 51 62 70 71 70 70 69 58 51 46 46 53 58 57 48 44 42 53 52 51 42 41 45 45 44 46 45 48
97 84 79 68 80 81 76 52 44 43 51 45 40 31 32 35 37 44 65 75 79 78 82 75 62 58 58 53 51 54 53 52 48 52 54 51 52 50 40 42 48 45 51 44 48
96 87 85 80 86 85 57 45 45 57 49 56 46 43 37 26 31 39 53 55 69 83 94 86 75 68 59 60 57 62 47 50 51 54 53 50 44 39 44 43 49 45 43 47 46

GFSSW_prec_cthk_048.txt.gz
RH
30 29 27 25 23 22 21 25 29 27 20 17 15 15 14 14 14 15 16 17 19 21 22 21 21 17 17 19 19 25 32 33 31 35 40 47 45 45 45 45 48 64 65 69 70
36 36 34 32 30 27 25 27 26 26 25 23 18 16 15 14 13 14 17 18 22 23 23 23 22 19 19 21 23 26 30 31 30 32 42 43 40 42 42 47 59 64 55 65 72
39 36 35 35 35 33 32 31 29 26 24 22 23 21 17 15 15 17 21 23 21 23 26 25 24 19 19 22 22 25 28 28 28 33 39 42 42 39 37 40 53 47 49 55 62
48 42 36 34 34 34 33 31 29 29 27 24 23 23 24 22 20 25 26 27 28 28 28 25 25 20 20 22 22 24 26 28 29 33 34 39 46 51 51 52 52 48 50 55 59
58 51 44 38 35 33 32 31 29 27 27 28 27 26 25 29 26 24 24 30 31 32 28 25 25 20 22 25 24 30 29 32 31 34 41 49 57 63 65 60 60 51 48 51 62
54 54 50 44 40 35 33 32 29 29 27 27 28 30 32 37 27 27 29 32 35 35 30 25 24 24 21 24 25 26 27 28 32 37 47 48 56 58 60 59 51 50 49 57 75
58 56 51 45 43 40 36 34 31 29 27 26 27 30 38 34 29 32 34 33 36 35 31 27 27 31 23 24 24 24 26 28 32 41 44 49 53 56 61 52 53 50 47 56 65
67 58 60 53 45 38 34 36 34 30 29 25 27 32 37 26 30 29 32 32 35 36 33 33 33 30 28 24 24 22 29 39 38 40 45 48 53 54 60 50 46 49 46 53 54
59 56 45 50 50 53 35 27 31 29 29 27 29 36 36 31 31 28 27 35 34 38 35 36 35 33 29 26 25 23 36 36 37 39 48 51 51 48 57 49 40 46 44 44 45
38 53 46 39 36 33 39 32 22 23 23 27 41 46 34 28 33 35 31 31 34 38 42 39 38 37 33 28 27 30 35 36 38 43 50 52 46 49 49 51 50 42 40 44 45
35 29 49 33 40 33 30 27 32 35 37 37 43 44 35 37 36 34 34 31 34 38 44 39 38 42 32 24 23 28 34 35 36 40 51 50 45 42 47 53 58 49 47 36 38
37 43 24 31 26 26 35 30 28 40 39 31 30 33 35 39 42 36 35 35 35 41 45 43 40 39 29 26 25 32 34 34 37 40 50 53 50 48 46 49 55 51 40 40 34
31 34 43 33 20 25 18 26 39 39 38 22 22 23 19 26 36 36 36 35 36 42 43 42 42 36 33 35 37 34 33 33 36 36 41 45 48 49 45 51 55 54 38 41 36
36 38 36 32 31 22 28 25 31 47 40 22 13 13 16 17 20 28 34 36 36 40 44 45 42 37 35 40 40 39 33 35 31 35 41 42 45 45 45 48 52 57 52 43 38
42 42 43 37 26 27 37 34 35 32 16 9 15 12 16 15 11 20 26 38 37 39 43 43 43 41 40 39 43 37 38 35 30 34 37 35 45 41 47 53 54 54 56 48 41
47 49 49 43 38 24 34 34 51 40 41 13 16 19 20 18 13 18 18 28 35 39 41 43 41 40 37 39 44 38 39 32 37 40 45 39 42 39 53 48 48 51 51 51 46
53 55 55 50 46 32 37 55 49 44 11 7 22 20 21 21 20 20 24 23 32 41 40 39 39 41 39 42 42 43 45 45 50 54 51 46 45 38 39 41 43 46 43 43 43
61 63 62 56 56 40 43 66 55 26 14 14 17 28 30 24 23 25 29 30 29 32 39 43 48 41 40 44 44 45 44 48 55 60 49 48 43 34 40 41 44 45 41 38 40
71 70 67 64 65 56 55 57 53 33 20 13 15 26 25 33 27 29 33 31 30 32 39 46 43 37 41 46 46 47 46 36 58 60 63 50 43 37 39 43 42 38 41 41 41
77 76 72 75 76 70 63 52 45 33 20 20 21 24 35 41 40 38 37 35 36 34 38 41 47 43 44 47 46 47 44 47 59 64 60 51 52 56 47 41 37 37 43 41 41
88 82 71 86 89 81 61 52 43 36 34 27 25 29 33 43 45 45 41 43 42 35 37 42 47 45 49 48 48 50 47 46 54 61 64 57 50 49 49 46 44 45 40 42 39
97 86 81 91 91 73 55 54 55 50 40 36 27 30 39 48 51 48 48 49 54 51 42 41 47 49 45 47 50 50 48 46 56 60 57 64 50 51 45 46 46 43 45 42 38
98 92 92 90 81 65 61 61 64 60 52 42 32 23 24 41 57 53 52 49 58 61 64 59 51 58 50 48 49 53 53 48 49 53 61 64 52 45 51 45 45 43 42 43 42
98 96 91 85 71 71 70 66 64 64 62 56 44 36 28 31 44 57 50 51 56 68 69 70 61 54 48 45 49 53 53 52 50 61 54 54 39 39 51 45 49 47 47 47 43
97 86 79 75 71 73 68 60 60 59 60 57 50 42 42 34 31 35 53 59 59 71 79 86 76 68 55 52 50 49 51 54 54 52 53 45 48 37 40 46 43 42 46 47 44
92 85 83 74 75 78 69 54 56 61 57 54 51 48 39 36 37 40 48 52 60 68 75 82 94 82 59 56 53 52 51 51 53 53 53 51 48 41 45 50 48 47 45 42 47
96 90 86 79 77 76 50 59 66 70 59 53 50 51 45 41 36 32 41 50 49 59 72 84 96 97 71 61 62 64 40 50 55 56 56 60 53 44 44 41 49 46 42 45 43

GFSSW_prec_cthk_051.txt.gz
RH
39 34 32 31 29 24 21 19 19 19 20 20 18 15 13 12 11 11 12 14 16 17 20 21 21 22 20 20 20 18 25 34 30 28 29 38 42 41 38 41 41 51 54 60 63
42 42 39 35 35 32 28 24 22 20 19 18 21 21 18 14 12 11 12 15 16 19 23 21 23 25 23 23 24 21 27 30 28 27 28 35 38 38 36 39 53 53 49 45 46
55 46 45 42 37 37 35 31 28 25 24 24 23 21 20 20 17 15 17 18 18 21 23 23 25 27 23 23 25 23 26 27 26 26 26 39 47 50 54 56 55 58 53 41 41
61 58 49 49 43 40 36 35 34 31 28 28 26 25 22 22 22 25 23 22 23 24 26 27 28 29 23 24 26 22 22 26 25 24 33 43 49 53 56 54 50 49 47 37 36
67 64 60 53 47 41 37 35 33 32 32 29 26 26 26 27 25 28 28 25 27 30 31 29 28 27 25 26 25 25 24 26 26 30 38 43 49 53 52 47 49 40 39 46 50
62 63 67 71 64 47 42 38 34 31 30 28 26 25 29 38 27 28 26 26 28 31 33 32 29 27 26 26 26 27 24 25 28 34 40 43 48 51 52 47 45 42 40 55 55
70 63 64 69 65 64 54 45 38 35 31 28 25 25 31 31 25 31 31 33 33 34 35 34 28 32 31 26 24 26 23 25 30 34 42 45 46 47 47 48 45 42 42 54 52
53 68 68 69 67 59 54 44 40 38 34 32 28 28 30 27 27 30 33 35 35 38 36 33 30 37 36 30 25 25 27 30 34 39 40 46 43 42 51 51 44 41 41 47 47
55 54 58 64 62 59 56 51 43 33 33 32 31 31 34 30 30 31 31 33 36 37 38 33 36 39 38 34 31 25 28 33 35 38 44 49 46 43 52 53 53 45 37 39 39
31 50 44 51 55 50 55 50 46 35 31 30 38 35 32 30 32 37 35 35 34 36 39 35 41 43 40 38 36 27 33 33 34 37 46 50 48 45 46 51 54 45 39 33 32
23 26 48 39 41 46 35 40 39 57 51 36 34 32 35 39 37 35 37 34 35 35 40 36 42 44 45 38 30 26 32 38 35 37 38 43 48 44 43 49 54 52 37 28 25
26 31 26 40 35 39 38 48 54 59 53 43 40 34 28 31 41 38 39 37 34 36 42 40 39 45 42 38 34 28 34 36 34 36 46 46 46 44 45 46 49 52 41 35 23
27 28 29 28 37 36 30 46 49 54 56 40 27 27 26 25 30 34 42 39 37 37 39 42 40 44 41 37 35 30 33 37 37 36 42 42 43 42 44 46 51 50 46 35 32
28 31 31 30 30 33 37 41 50 53 48 29 30 23 24 25 25 25 34 40 39 38 41 43 40 44 43 40 35 37 35 39 37 37 41 40 45 37 40 45 49 47 48 41 32
33 37 36 35 35 33 36 46 51 51 29 14 19 18 23 23 18 17 23 38 40 41 43 43 43 43 45 40 42 40 43 43 42 38 39 40 44 35 40 44 47 48 52 50 35
36 38 43 39 38 41 29 35 56 64 50 15 14 27 25 23 15 17 17 26 36 42 45 43 44 45 43 40 44 42 46 46 43 41 45 38 44 42 36 35 41 44 46 50 43
37 41 46 46 45 48 34 40 61 68 20 13 23 23 26 26 19 20 18 25 33 43 44 42 42 43 43 42 43 46 47 53 50 49 48 40 52 42 33 29 33 39 41 43 43
39 49 48 49 55 55 45 52 60 37 27 15 16 24 28 29 25 19 24 20 25 34 41 44 47 41 42 40 41 47 47 57 56 58 42 48 51 37 32 30 29 34 37 41 44
48 52 49 54 61 64 56 60 57 48 30 24 20 24 27 30 31 29 28 30 23 28 35 44 42 39 39 41 42 47 51 46 59 67 61 45 41 31 31 31 31 34 37 35 38
54 56 50 61 71 72 67 55 52 52 42 31 26 30 32 31 31 33 39 39 35 32 31 36 43 40 39 41 43 46 50 56 61 67 63 48 46 38 33 42 38 35 36 35 36
64 67 56 69 76 80 69 59 52 49 45 39 35 33 40 39 34 32 34 44 44 44 42 37 41 39 43 44 45 48 52 54 56 61 55 53 44 35 40 42 42 40 37 36 37
70 74 69 76 80 72 68 67 58 58 52 43 34 36 33 41 44 38 41 42 52 54 54 48 45 45 40 42 44 48 54 55 61 61 62 58 42 37 42 43 45 44 42 39 33
80 76 82 84 79 69 76 75 74 67 58 55 44 38 30 36 45 50 55 55 53 59 65 59 54 52 47 48 48 48 52 55 55 59 59 60 47 37 41 42 44 44 44 39 36
85 86 89 87 74 75 85 81 81 68 65 64 57 44 37 37 46 51 59 59 51 63 66 59 65 67 63 54 54 54 53 56 55 62 58 50 45 37 39 38 36 37 39 44 40
90 84 86 81 77 82 85 79 81 72 66 65 56 50 50 47 46 48 48 55 59 73 73 69 75 73 71 63 63 56 54 55 55 55 60 51 51 40 41 37 32 32 37 43 46
86 85 91 89 87 89 83 77 79 76 68 67 63 63 56 51 44 39 42 45 57 59 70 79 75 73 70 70 64 61 50 49 53 58 58 59 56 48 42 41 40 38 38 39 40
91 93 95 91 88 84 76 81 78 76 72 68 67 69 65 56 50 42 38 36 47 59 65 71 84 88 79 78 83 61 53 56 56 55 58 63 60 56 48 45 43 41 44 39 39

GFSSW_prec_cthk_054.txt.gz
RH
39 38 38 39 41 37 34 30 25 20 18 17 17 18 17 12 11 11 11 11 12 15 18 18 18 20 21 23 23 22 23 27 26 25 23 27 31 40 44 48 55 60 57 56 53
41 40 41 40 41 43 42 39 32 27 23 20 18 18 17 18 17 13 12 12 14 15 18 20 19 22 24 26 24 24 24 26 24 25 24 27 37 43 47 52 59 59 59 59 54
48 49 45 46 43 48 43 43 42 35 31 25 22 20 18 19 21 21 19 16 16 16 21 21 21 25 29 28 26 26 24 25 25 25 24 28 39 45 47 53 55 53 48 50 49
41 50 61 55 53 62 52 48 42 41 40 35 30 25 24 26 27 30 26 23 20 19 21 21 24 29 30 27 25 26 24 23 25 25 27 32 40 44 46 47 49 49 43 46 51
43 45 52 55 52 56 60 51 47 42 38 38 36 31 28 35 34 30 34 29 26 24 23 24 26 30 30 27 28 26 24 25 25 24 28 36 38 43 48 46 48 49 42 55 60
34 41 48 56 56 55 56 60 55 52 39 36 35 34 33 43 34 28 26 33 30 27 29 29 27 29 30 29 31 28 27 26 25 25 30 36 40 46 43 43 48 47 41 55 58
23 35 48 55 65 58 61 62 59 56 46 37 34 34 35 36 31 30 30 31 33 30 30 32 30 32 32 32 33 30 27 26 23 27 32 37 43 47 42 44 47 45 43 51 54
16 22 36 51 56 58 59 63 68 61 55 42 37 36 38 35 31 32 30 31 38 36 35 34 33 32 33 36 35 33 28 26 25 31 32 36 39 39 41 46 50 54 44 43 48
17 16 20 37 53 48 53 57 55 70 69 47 42 39 39 39 39 36 32 32 42 42 40 38 34 33 35 39 40 37 32 30 32 34 36 41 40 40 46 52 53 53 47 45 42
18 20 18 20 34 49 43 56 50 65 66 55 53 45 35 37 45 48 43 41 35 44 43 40 36 38 40 42 47 40 32 32 35 35 35 37 41 40 41 48 51 53 48 39 38
21 19 20 20 23 35 39 36 46 49 65 62 53 44 36 40 49 45 47 44 40 36 42 42 39 38 43 44 42 36 34 29 31 33 34 32 36 37 40 46 50 52 48 37 32
19 21 21 23 24 29 41 44 57 62 55 48 50 48 43 39 44 45 45 46 42 41 41 43 37 38 44 47 42 41 38 34 30 34 38 35 35 36 39 42 45 49 46 40 37
20 21 23 25 26 25 31 43 53 60 61 47 42 44 44 38 36 31 47 49 45 43 40 42 40 39 45 50 45 42 39 32 32 39 40 38 32 33 33 41 41 45 41 40 37
20 24 26 27 26 32 38 40 54 52 56 36 34 29 37 42 38 27 32 43 47 43 43 42 42 41 42 46 47 44 39 31 36 43 46 40 44 32 30 35 39 42 42 40 36
21 25 27 31 32 38 39 36 40 60 42 17 29 23 31 36 33 32 27 33 45 47 44 43 42 43 44 47 44 43 38 35 43 48 47 43 40 29 32 33 35 37 42 44 36
23 32 32 31 35 43 39 39 45 58 59 24 18 30 36 34 32 33 34 31 30 45 50 45 46 45 42 45 44 44 47 49 50 52 57 45 41 32 28 29 30 34 40 42 39
22 30 37 36 38 47 44 42 57 58 28 24 29 22 27 33 37 32 34 32 26 43 50 47 48 48 45 48 48 45 51 60 59 66 62 45 48 33 27 27 29 33 36 38 39
26 35 36 37 43 52 51 52 59 46 38 26 26 29 30 33 43 31 28 25 22 28 43 49 49 46 46 47 49 49 51 62 65 68 53 53 55 38 28 28 28 32 35 38 37
32 35 36 35 47 57 58 60 52 47 43 36 24 25 30 37 41 41 31 25 16 22 36 49 49 43 43 43 46 51 53 49 64 69 71 57 49 38 25 24 27 27 31 37 37
37 40 37 40 52 63 64 57 53 60 51 36 34 32 35 34 42 45 53 50 33 20 24 37 45 43 43 46 47 49 49 58 64 70 71 60 56 44 30 26 31 31 32 36 36
47 51 37 48 59 66 62 62 56 53 59 48 43 40 42 42 40 44 53 58 56 48 37 34 36 36 41 48 50 50 51 53 57 65 64 62 53 42 33 36 32 40 36 37 38
55 58 49 57 69 67 63 65 60 56 62 58 49 45 44 39 42 43 51 55 55 59 56 50 46 43 36 40 46 49 53 55 63 61 67 65 53 42 39 41 43 35 40 38 35
62 61 58 69 72 74 70 67 63 65 66 64 58 51 42 47 40 46 51 52 50 62 63 56 65 58 51 45 47 48 48 48 55 58 60 66 58 44 43 42 45 50 47 45 41
71 72 73 78 68 75 77 70 68 63 72 75 67 62 54 49 50 50 48 53 56 53 66 59 64 69 66 66 67 63 54 50 50 58 59 60 56 49 49 45 43 46 48 45 43
77 75 78 76 74 76 78 73 78 74 77 79 73 72 74 66 53 48 47 45 47 58 62 67 68 72 73 67 66 63 62 57 56 57 58 55 60 56 53 52 47 42 39 34 36
81 82 80 80 73 84 86 84 84 87 83 86 79 78 79 68 55 48 41 48 53 53 68 65 76 74 71 63 58 62 66 62 59 58 55 55 54 54 52 53 53 47 45 37 34
86 90 92 85 83 85 85 89 85 88 87 81 83 84 79 68 64 53 45 44 51 59 61 70 71 75 71 71 60 59 59 60 60 60 59 58 55 54 52 54 54 55 53 48 41

GFSSW_prec_cthk_057.txt.gz
RH
34 33 33 31 30 30 29 29 29 33 33 33 29 23 19 18 16 12 10 9 11 12 17 17 17 16 17 20 24 26 26 23 24 22 20 24 28 35 42 43 47 54 57 51 53
32 34 35 37 38 34 33 32 32 32 34 35 34 30 25 20 19 18 14 11 11 13 17 18 17 16 18 22 26 27 26 21 22 20 21 24 31 38 43 43 48 54 55 49 45
28 28 29 31 33 40 40 37 34 36 39 41 39 34 32 26 23 22 25 19 13 17 20 20 19 18 21 25 28 28 25 21 23 21 22 26 32 38 41 40 42 49 49 46 46
23 23 25 25 30 34 40 45 43 47 53 45 42 42 38 35 31 34 29 26 21 20 22 22 21 21 22 27 30 29 27 25 24 22 25 28 34 40 40 39 43 47 47 45 52
16 16 17 17 22 32 36 41 44 53 56 53 46 43 44 43 39 31 38 36 30 26 26 24 20 22 24 27 29 29 26 25 24 24 24 30 32 40 43 40 44 45 45 47 54
14 12 12 16 20 23 34 43 48 52 57 57 53 44 46 51 41 35 33 44 37 31 29 27 24 24 26 27 29 29 28 28 25 24 23 30 34 43 42 38 44 45 44 44 51
13 12 11 11 18 18 23 39 49 53 57 60 54 54 51 43 45 40 33 37 42 38 32 36 32 28 26 29 31 33 31 31 26 25 25 31 36 40 40 41 46 51 49 44 45
15 15 14 13 15 18 18 24 38 42 53 54 57 56 51 41 44 47 37 36 40 41 37 36 35 31 28 31 35 36 35 33 28 27 28 31 33 34 41 44 47 52 52 47 42
17 16 15 14 15 15 15 15 29 33 48 52 59 56 44 46 48 50 47 38 36 45 42 40 39 36 31 34 37 39 37 35 27 30 31 35 32 36 41 44 45 49 52 45 42
17 17 16 15 15 15 17 12 18 35 43 52 55 68 58 53 59 63 58 48 38 47 53 49 45 39 36 33 36 40 41 35 29 34 35 34 28 31 37 42 43 48 52 48 40
20 17 16 17 18 19 19 16 16 28 39 50 49 58 65 69 60 61 55 57 48 43 52 52 49 42 37 39 41 40 37 34 30 35 31 30 31 30 35 43 43 46 50 50 42
19 15 18 20 22 23 24 28 33 39 43 41 45 50 48 71 64 57 56 59 59 48 48 52 49 46 42 41 38 41 41 38 33 34 34 31 32 30 30 37 39 42 47 48 43
18 16 18 21 22 24 30 30 37 40 40 42 39 42 42 44 60 47 48 50 59 54 45 47 47 45 46 44 40 44 44 44 38 34 37 36 35 30 30 33 35 38 44 45 40
19 17 21 24 23 30 33 34 40 40 42 24 36 38 36 38 46 56 43 42 55 55 51 44 42 44 46 45 42 45 48 42 39 35 35 38 39 36 29 27 30 32 39 44 44
20 20 25 27 28 34 33 35 37 42 30 16 28 31 35 30 30 48 46 32 40 54 57 47 45 43 44 44 45 43 49 47 41 37 41 40 39 34 31 25 26 27 35 39 42
22 21 28 29 29 36 37 38 38 51 42 22 24 41 36 38 33 39 51 43 34 46 59 51 47 44 40 43 44 45 48 46 47 47 48 41 40 35 31 24 23 25 32 38 39
25 24 28 31 33 39 42 41 48 49 24 28 27 27 34 33 35 42 47 49 43 53 58 55 51 49 46 46 48 47 47 50 54 57 48 49 48 36 30 24 24 25 31 36 39
27 28 28 28 33 40 45 48 53 36 38 29 28 28 30 46 38 43 55 47 37 40 43 51 57 53 50 49 48 49 48 53 62 60 51 56 52 37 33 28 28 27 30 34 37
31 32 28 26 35 42 50 54 47 39 40 35 27 24 29 40 52 43 46 54 41 41 42 40 43 51 52 53 53 57 55 49 58 69 64 53 48 39 36 32 25 26 26 32 36
37 35 26 27 38 49 53 48 44 51 49 37 39 35 40 40 45 54 52 61 47 29 37 42 42 46 49 52 55 53 53 58 60 60 62 57 55 43 39 37 26 27 25 29 35
39 40 30 32 41 53 54 58 47 43 54 50 43 42 42 45 44 50 66 60 63 51 23 35 38 46 54 54 54 57 55 55 54 58 58 58 52 45 43 36 31 30 34 32 31
49 48 41 44 55 56 59 67 49 42 50 54 49 49 48 48 49 47 59 66 65 72 58 34 32 39 46 53 52 56 56 54 61 63 67 64 53 45 44 43 39 37 35 39 37
51 49 48 55 60 62 61 60 67 46 53 61 64 55 54 51 51 48 55 59 61 66 79 67 59 55 50 47 53 54 55 54 58 59 60 65 56 48 47 49 44 38 43 43 44
58 56 54 59 59 66 68 71 65 52 55 66 70 66 60 55 55 55 49 50 59 56 71 67 74 70 64 62 62 63 59 60 56 59 55 58 56 52 46 50 51 51 44 44 45
61 60 55 66 58 61 77 77 72 64 66 72 74 75 70 67 60 57 53 47 49 59 64 71 70 67 68 68 70 64 62 62 62 58 60 58 58 54 49 50 51 52 51 46 41
62 62 61 60 77 73 84 84 64 70 77 79 80 86 83 72 63 57 59 54 48 52 58 61 75 70 66 61 62 60 57 57 61 58 58 58 58 57 55 49 50 54 55 53 50
56 62 70 63 65 87 76 67 68 87 87 85 88 91 89 83 75 65 59 58 54 54 61 62 72 69 61 62 58 52 52 56 59 61 62 63 57 54 58 57 54 55 54 56 56

GFSSW_prec_cthk_060.txt.gz
RH
25 26 27 27 27 28 29 31 28 25 22 21 22 23 25 29 31 21 21 13 10 10 13 16 17 17 16 19 21 22 24 24 21 23 22 20 22 26 31 37 44 48 45 47 44
22 22 22 23 24 23 24 26 28 28 25 24 24 25 27 30 34 29 23 21 13 11 13 16 19 19 17 18 22 23 26 25 20 22 20 20 21 26 32 37 43 45 45 44 43
15 14 17 17 17 17 17 20 24 27 28 26 29 33 28 29 41 40 33 30 25 13 15 18 22 20 17 19 22 24 27 25 23 22 21 21 22 26 32 37 37 39 41 41 43
12 12 13 13 12 11 14 16 19 26 28 32 34 41 43 34 40 44 46 37 28 21 18 20 21 20 19 21 23 26 28 26 23 23 23 22 24 28 32 34 39 40 39 40 41
13 11 10 10 10 10 12 13 15 22 26 33 37 45 51 46 44 41 43 39 38 30 24 23 23 22 22 22 24 27 30 29 26 25 24 24 25 27 31 36 40 38 39 39 38
13 12 13 12 11 10 9 10 12 15 21 29 41 47 58 56 50 56 42 43 45 37 33 27 25 25 24 24 23 27 30 29 28 26 25 25 23 29 33 35 42 38 42 40 39
15 16 16 15 14 12 8 6 8 11 12 21 28 41 56 59 50 56 60 34 41 44 41 35 29 25 23 25 26 28 32 32 30 27 27 26 23 31 32 40 45 44 46 43 40
17 16 16 16 14 11 10 8 8 7 8 11 24 41 51 53 52 63 58 47 33 45 47 39 36 33 31 30 30 30 32 34 33 30 28 28 24 31 32 39 41 45 45 45 38
16 16 16 15 13 12 10 8 9 8 11 10 27 43 53 51 56 59 67 63 40 36 50 51 40 38 35 33 32 33 31 34 35 33 32 33 26 33 34 35 38 44 44 47 41
17 15 17 16 16 16 12 9 9 12 15 15 33 42 45 48 49 57 66 71 59 41 48 50 48 43 37 34 32 34 36 35 35 33 33 34 28 31 31 35 37 39 45 47 46
17 16 16 16 16 19 14 15 17 20 17 16 23 37 45 55 56 58 76 66 74 55 48 51 51 43 39 39 37 36 36 36 33 34 32 33 30 27 29 30 36 39 40 44 46
15 15 15 15 19 21 24 27 27 29 26 15 23 32 38 51 59 67 71 76 75 58 54 57 54 49 48 46 43 39 38 37 37 39 32 30 30 28 31 29 33 40 40 42 45
14 14 16 17 23 27 29 30 29 29 30 18 19 23 30 35 51 71 72 77 76 71 48 53 52 52 55 48 47 42 40 41 42 40 34 32 30 31 31 29 31 38 37 39 43
17 16 18 20 30 32 34 34 32 31 37 21 21 26 36 37 39 46 72 75 70 63 61 52 49 53 54 50 48 44 43 44 47 44 35 34 33 33 34 32 28 32 35 37 41
17 18 22 27 32 34 34 34 32 35 25 19 24 30 38 37 38 38 51 63 64 51 64 61 56 48 49 47 48 46 45 46 51 44 39 33 34 30 31 30 28 25 32 34 37
19 22 25 31 37 33 37 34 37 41 26 22 23 25 30 40 37 42 44 61 59 57 67 61 59 53 47 44 47 48 49 49 49 49 46 39 37 30 31 31 24 24 28 30 35
22 27 27 30 39 32 37 41 42 27 19 27 26 25 24 34 44 42 47 47 61 50 53 50 57 62 49 45 49 49 47 52 51 54 46 42 40 35 35 33 25 24 27 31 34
28 28 30 30 35 35 38 46 44 27 24 25 23 23 25 33 44 50 48 48 52 52 44 47 53 61 58 49 49 48 47 46 55 53 45 51 45 38 38 33 30 25 26 29 34
31 34 31 32 32 38 47 46 32 35 34 28 21 21 23 29 42 51 52 51 50 52 51 50 54 57 62 56 49 51 52 49 51 58 55 53 48 38 38 37 34 26 25 27 32
40 45 33 35 33 50 52 42 35 35 38 34 31 30 30 33 37 48 54 61 59 54 47 48 49 45 48 61 61 56 56 58 57 60 62 50 52 43 38 41 40 35 28 27 28
42 50 36 32 39 55 55 42 36 33 42 40 39 35 36 41 41 44 59 64 66 57 49 52 58 62 48 54 59 64 60 57 57 56 56 55 52 45 42 46 44 39 35 34 34
49 47 39 41 50 52 53 42 40 37 33 43 41 42 40 44 48 50 59 58 67 72 56 40 54 61 58 51 52 56 58 58 61 62 59 59 53 46 45 44 44 41 37 42 41
52 47 44 55 57 53 48 45 52 48 46 44 41 42 41 43 48 45 53 60 67 72 78 66 43 47 44 45 50 58 58 57 60 60 64 65 56 49 46 43 46 46 45 47 49
55 53 51 56 57 56 53 54 54 52 52 53 53 49 49 50 53 53 53 54 65 62 80 77 72 44 45 41 52 59 64 64 59 62 60 56 56 52 48 48 47 47 45 47 50
57 55 51 62 52 53 61 67 56 57 55 56 51 49 53 57 54 55 54 51 61 61 64 78 79 74 68 60 58 58 61 59 61 62 63 58 56 52 50 49 49 47 49 49 48
58 56 63 57 59 57 57 50 64 60 64 58 55 60 61 61 62 60 57 58 54 62 65 63 75 75 66 68 71 68 62 59 56 58 58 58 58 57 51 50 50 49 49 51 52
59 61 65 59 56 60 57 56 53 63 71 63 70 75 75 73 73 66 62 61 61 58 64 68 72 69 67 65 60 53 50 56 63 60 60 62 62 54 49 48 50 51 53 54 54

GFSSW_prec_cthk_063.txt.gz
RH
26 23 22 20 19 19 19 17 17 18 20 21 19 18 18 18 21 21 27 28 26 19 13 16 18 18 17 17 18 21 22 23 24 26 27 27 22 23 27 25 32 39 42 44 43
20 20 18 16 16 15 13 12 13 13 14 16 20 21 20 22 22 28 26 31 29 25 15 16 19 20 18 17 19 20 21 23 26 25 27 27 24 22 27 31 34 40 42 41 40
17 15 16 13 10 10 8 8 10 11 12 14 16 19 23 25 30 31 37 33 41 34 22 19 22 24 20 18 18 19 21 26 27 26 25 24 24 24 24 28 36 39 39 41 40
19 15 13 9 6 6 5 5 7 9 9 11 15 17 22 30 34 26 30 37 43 43 32 23 24 27 22 20 18 19 21 26 28 28 25 22 24 25 25 30 33 34 37 36 36
18 15 13 9 7 6 5 5 5 6 7 8 11 15 17 29 35 44 32 33 48 51 44 30 24 26 25 20 20 20 22 27 29 28 26 24 23 26 25 29 32 35 36 35 38
19 17 15 11 8 7 7 7 7 6 6 6 8 9 17 21 30 45 49 36 42 59 50 38 29 27 26 24 23 23 24 28 30 29 27 26 24 26 26 30 33 35 37 38 42
21 17 13 11 12 10 8 8 7 6 6 6 7 7 12 10 30 43 46 45 42 58 50 47 38 34 31 30 27 25 25 28 30 30 28 29 27 25 23 29 32 37 39 42 43
19 15 12 12 13 10 9 8 7 7 6 6 6 13 15 12 31 46 54 53 57 60 48 46 45 41 34 30 28 26 25 29 31 33 32 31 28 27 29 35 33 38 40 42 42
17 16 13 12 12 10 9 8 9 9 9 8 14 17 15 19 35 47 55 56 61 68 53 44 44 38 36 33 33 32 28 30 33 34 35 34 33 29 35 33 32 38 40 43 43
22 18 15 13 11 11 10 10 15 15 18 20 23 24 22 20 37 54 57 60 65 78 52 47 49 42 36 36 34 34 34 32 33 37 35 35 40 33 38 33 31 35 39 41 42
20 19 16 14 12 14 14 22 24 31 24 18 18 21 17 25 32 53 64 64 66 76 68 40 51 48 41 40 39 39 40 38 37 36 35 35 36 38 33 36 34 36 36 39 42
24 20 17 14 14 16 28 31 28 29 26 18 18 17 16 16 23 43 66 67 71 79 79 56 46 48 52 50 46 43 39 38 38 36 35 36 31 33 32 30 35 38 40 40 39
23 20 18 16 17 25 31 34 32 37 34 19 18 19 21 21 26 38 58 73 78 87 83 69 58 60 54 55 52 49 45 42 41 40 38 39 33 29 31 30 34 30 29 38 40
28 23 22 18 28 32 37 31 36 39 41 29 23 26 27 25 28 28 54 78 83 87 88 74 67 66 63 57 59 52 47 43 44 42 41 41 33 31 30 32 34 33 28 31 36
29 26 24 21 29 34 35 33 37 44 37 24 27 22 26 27 26 34 42 62 75 78 76 75 61 56 63 62 62 55 52 48 47 43 45 46 37 32 31 35 33 32 30 33 33
30 28 24 30 32 38 32 35 42 59 39 25 23 24 23 25 31 26 36 53 62 83 78 69 67 65 59 54 59 55 54 53 52 46 50 49 44 35 36 33 37 31 29 29 34
34 37 28 33 37 40 32 39 51 38 24 29 26 22 22 25 32 34 34 39 53 66 78 74 68 66 65 58 59 51 54 57 57 53 46 45 45 40 39 35 35 34 28 31 32
38 37 32 35 35 38 39 45 47 27 26 26 22 16 18 24 38 41 43 43 44 61 70 68 70 69 65 63 56 54 54 54 58 55 45 42 44 42 43 40 36 30 30 31 35
43 40 40 41 36 38 53 52 35 32 31 30 18 15 21 29 29 40 45 51 48 50 61 58 50 55 58 66 60 54 53 53 53 64 57 49 46 42 44 40 38 36 39 36 31
42 52 49 47 41 48 62 46 36 36 34 27 24 24 30 35 30 36 54 53 53 51 56 58 57 53 60 64 66 61 57 55 56 62 64 53 57 46 42 43 45 41 45 39 32
40 46 51 48 50 61 65 47 37 39 37 35 30 33 28 35 35 37 65 67 56 53 57 60 63 59 57 60 63 65 61 62 55 55 59 59 51 48 46 51 50 52 48 44 33
46 55 52 45 59 60 59 47 43 41 40 32 32 36 36 37 42 40 43 52 53 60 68 54 61 60 71 58 57 62 63 62 65 74 58 61 56 54 51 51 49 47 49 50 41
54 54 56 69 65 58 53 48 40 42 37 36 34 34 36 38 41 40 43 48 55 65 71 67 53 62 66 74 58 58 64 67 65 65 77 74 57 56 54 51 51 53 55 54 49
71 71 54 65 60 59 53 52 45 42 41 37 41 40 42 40 44 47 49 48 57 73 72 67 68 57 53 57 54 55 60 63 60 69 66 69 64 61 57 53 53 55 54 50 50
76 65 70 68 56 58 54 60 48 46 46 42 50 46 47 48 45 48 47 50 50 69 73 79 82 82 65 66 57 53 59 57 63 63 69 66 62 56 55 54 54 54 56 54 55
77 65 61 66 71 61 52 60 56 59 52 55 56 53 48 48 52 53 53 49 53 64 77 77 85 97 78 70 70 64 58 58 59 61 63 61 60 59 62 52 51 55 55 57 57
82 72 75 73 65 72 71 55 48 55 63 68 70 63 60 66 64 63 56 59 64 66 79 76 75 90 93 74 67 71 62 62 63 60 60 62 62 64 56 53 52 51 54 57 57

GFSSW_prec_cthk_069.txt.gz
RH
29 26 26 23 23 19 17 17 15 14 13 11 10 10 8 8 8 10 10 11 13 16 17 17 18 19 16 19 19 24 29 25 21 21 22 32 36 35 33 29 28 26 23 22 31
33 30 28 24 22 19 15 14 13 12 12 11 9 8 8 6 7 8 11 12 14 15 15 18 18 21 24 22 25 26 27 22 17 17 27 34 34 35 31 27 27 27 27 29 33
33 29 27 26 22 19 17 15 14 14 12 11 10 9 8 5 5 13 11 11 12 14 13 17 21 23 28 26 26 24 24 19 17 17 32 35 34 32 32 30 27 26 31 32 34
30 27 29 25 22 19 16 15 15 13 12 11 9 8 8 7 10 14 10 11 13 14 15 20 24 25 30 32 30 32 25 20 17 19 29 32 33 32 32 30 27 26 26 29 31
36 32 31 28 23 19 16 14 12 12 12 11 9 7 6 8 6 4 9 12 12 16 20 26 28 26 32 33 37 34 26 21 19 19 28 29 29 29 29 29 28 28 28 28 31
34 33 31 27 23 19 16 14 12 10 9 9 8 8 8 14 5 8 10 13 13 18 20 29 34 31 37 37 38 37 32 25 22 22 25 29 28 30 28 27 25 25 28 28 29
33 34 31 27 25 20 17 14 12 10 8 9 10 10 11 5 6 6 10 11 12 16 18 29 34 40 45 45 42 36 38 31 24 24 24 29 28 28 29 29 27 25 29 30 30
35 32 31 28 23 19 16 14 11 8 11 12 14 15 14 10 13 12 10 11 14 18 22 23 35 42 51 50 47 44 42 35 25 24 25 30 26 28 31 31 29 29 30 31 29
35 33 31 27 21 18 17 16 13 11 13 17 17 21 22 16 16 16 17 17 17 22 25 28 35 45 56 59 59 52 49 38 28 24 24 29 27 30 34 31 30 29 31 35 32
37 34 31 26 20 18 17 20 15 17 20 23 27 34 25 21 21 21 19 21 19 22 26 34 43 50 61 66 67 63 50 37 27 22 31 35 33 32 38 38 37 32 34 37 37
35 32 31 26 20 18 23 23 23 25 26 26 25 23 22 21 20 18 17 28 27 24 35 42 55 57 61 67 67 61 55 44 31 29 41 42 39 35 38 39 42 38 37 37 39
37 34 30 27 20 26 33 34 41 40 32 19 14 15 16 19 20 18 16 25 33 37 45 54 64 64 66 70 69 64 57 43 31 36 52 46 42 39 39 39 38 36 36 36 42
39 34 32 26 22 31 36 41 43 42 37 18 18 18 19 21 24 20 22 28 35 41 49 57 69 73 73 78 73 65 58 44 37 46 54 48 47 41 36 37 36 34 35 35 40
33 28 28 22 24 36 44 46 44 41 44 26 25 24 27 24 25 21 20 26 31 39 51 64 73 80 75 74 73 74 61 52 45 51 61 52 52 42 39 43 38 36 32 33 38
25 19 19 22 26 28 40 44 42 41 56 35 34 34 27 25 25 26 20 24 31 43 54 59 77 87 83 70 75 79 71 59 55 63 64 51 50 38 39 40 37 35 33 34 34
24 25 19 18 26 36 39 38 45 55 55 30 31 28 29 29 30 29 27 24 26 39 51 58 68 81 80 76 81 77 78 65 59 64 73 52 51 38 37 37 37 37 35 35 33
25 25 22 20 16 33 43 46 55 58 32 38 33 32 31 27 36 35 34 33 34 42 45 45 61 71 82 86 82 81 91 88 74 69 72 46 49 37 37 41 42 38 35 39 36
26 27 25 21 16 30 39 55 60 38 37 48 38 33 26 20 27 38 41 36 35 36 36 46 63 66 77 77 75 78 87 87 92 93 70 51 53 37 40 44 45 42 39 39 36
32 29 25 22 23 30 43 56 43 29 43 51 42 35 25 17 27 53 46 51 47 43 40 45 57 64 80 72 74 85 83 74 94 83 85 66 52 44 45 45 45 42 41 42 39
34 32 25 24 33 42 56 45 36 48 54 54 50 32 30 41 42 44 52 56 65 54 49 44 49 55 71 75 75 88 82 94 98 96 93 67 64 53 54 47 44 45 44 42 43
44 44 31 39 43 61 51 43 35 31 67 57 54 46 38 48 49 50 65 71 67 63 63 61 53 58 65 74 74 81 95 96 94 85 85 90 77 67 58 55 53 53 50 49 49
54 53 48 55 65 64 53 36 35 35 58 67 56 52 46 44 52 50 54 61 64 64 65 71 70 67 56 69 77 76 79 89 97 93 76 78 77 69 63 60 57 58 57 50 48
62 58 51 55 79 73 62 48 46 37 54 58 57 50 41 43 48 44 42 53 50 52 55 62 73 71 57 61 73 79 78 80 90 91 94 94 75 71 73 67 62 62 63 59 59
69 62 59 58 54 96 96 69 56 48 44 56 57 54 50 46 45 49 49 72 53 54 45 49 53 68 70 74 83 86 83 83 89 98 93 89 84 81 79 80 70 67 68 67 65
71 63 66 72 77 74 89 86 97 71 53 51 51 50 47 53 51 48 45 54 50 49 52 49 57 65 71 61 69 83 88 81 89 92 97 84 83 82 83 80 79 74 67 67 66
69 68 67 72 75 82 67 70 84 85 96 64 58 47 45 56 59 56 56 56 55 59 61 60 63 69 74 76 73 76 79 68 74 85 94 89 85 86 81 85 86 78 74 69 67
64 71 89 65 84 94 97 78 67 77 78 80 84 81 62 66 64 53 54 53 52 55 59 66 64 70 81 84 74 70 74 71 75 89 87 92 85 82 88 88 84 76 73 70 67

GFSSW_prec_cthk_072.txt.gz
RH
36 32 31 29 27 24 22 20 18 18 16 13 13 12 11 11 11 9 8 10 10 11 14 16 17 17 20 18 17 17 22 23 20 17 14 24 30 28 37 38 35 30 30 27 27
37 35 34 32 28 25 23 22 20 18 16 14 13 12 11 10 9 9 13 12 11 12 14 13 14 16 19 21 21 21 23 22 16 16 14 26 34 32 34 40 32 28 30 29 28
39 38 35 35 32 27 24 21 20 19 16 14 15 13 11 10 9 13 15 14 10 12 13 14 16 17 16 22 23 22 22 20 17 17 16 23 37 35 33 32 30 29 32 28 29
43 41 38 35 32 28 23 20 18 16 16 15 14 12 11 10 10 17 13 11 12 12 13 15 17 20 17 21 25 27 24 23 20 20 18 18 36 33 31 29 30 31 32 31 30
44 41 37 34 30 28 24 20 18 17 15 15 13 13 14 14 9 8 10 9 11 13 14 21 24 22 19 18 26 29 27 27 23 22 21 19 33 33 31 28 30 33 36 33 30
48 43 40 36 33 28 24 22 20 19 16 16 15 14 18 18 7 9 8 10 10 13 16 20 24 24 22 19 24 28 33 32 27 25 24 22 26 35 29 28 30 31 34 33 30
40 43 41 37 32 27 23 22 19 18 19 18 18 19 20 8 7 6 9 11 10 11 14 18 18 21 23 26 27 32 38 36 30 28 27 25 27 28 25 30 31 32 32 31 29
50 46 42 38 32 29 27 23 20 20 21 18 21 24 18 8 11 11 11 7 10 13 14 18 23 24 25 32 33 37 43 42 34 31 29 30 25 24 27 26 30 31 31 30 31
48 43 39 34 31 27 24 24 21 23 22 22 25 26 17 14 13 15 17 17 17 17 16 19 23 24 30 36 41 45 50 46 41 37 34 33 27 21 24 28 32 33 31 29 33
50 46 41 33 30 28 30 27 24 26 27 28 32 32 16 17 18 18 19 19 21 21 21 21 25 26 30 42 52 57 57 53 46 42 43 38 30 22 24 33 33 33 32 31 35
48 44 42 36 32 35 34 30 30 31 32 29 30 26 21 20 20 20 21 21 26 24 24 27 32 34 34 41 52 59 60 60 54 52 44 37 33 27 32 35 36 35 37 37 37
42 39 38 34 29 39 47 48 48 48 38 25 20 19 18 17 22 17 18 21 24 31 30 37 40 38 40 43 57 61 64 64 56 53 47 39 37 34 35 34 37 35 39 38 41
29 26 26 25 25 35 46 48 50 48 45 27 22 21 17 16 18 18 22 20 29 35 37 42 41 46 48 53 62 62 67 69 64 57 47 41 42 39 36 35 35 36 37 39 39
26 18 16 11 11 24 39 43 43 40 47 31 28 26 23 25 24 22 23 25 32 38 43 48 46 51 57 63 73 68 69 75 74 64 54 54 60 42 37 35 36 39 38 38 39
24 19 18 17 12 18 26 30 32 37 41 32 34 34 31 27 29 27 24 29 33 40 43 43 49 55 62 66 73 75 77 78 76 71 60 60 61 45 41 36 35 35 37 36 35
24 21 21 19 15 23 23 21 28 43 41 32 35 35 37 30 32 30 30 30 29 37 41 41 43 54 56 66 81 77 87 82 76 73 72 56 63 47 42 34 34 37 36 35 35
23 23 25 22 16 18 24 27 39 53 22 42 41 38 37 36 38 35 35 36 41 44 46 38 42 48 58 67 81 82 92 90 87 85 75 45 59 43 41 41 40 39 38 35 32
29 28 26 19 21 20 28 38 48 26 32 52 46 48 43 37 34 33 38 43 42 40 36 38 45 53 60 67 81 85 95 97 92 90 80 52 55 45 42 44 41 43 37 34 36
33 30 24 22 25 29 37 45 34 26 42 63 52 51 48 37 28 36 41 46 45 46 44 42 47 48 59 69 77 89 94 85 95 91 89 64 52 40 46 49 48 44 39 36 37
31 30 24 26 34 37 43 33 27 21 43 66 75 60 54 53 40 51 57 58 51 49 50 53 49 42 59 73 81 84 86 94 97 97 96 68 62 64 55 59 50 49 45 44 47
35 39 40 41 44 48 48 38 26 24 35 64 83 76 61 65 59 62 72 71 62 58 59 64 59 56 61 79 83 93 96 96 93 90 98 91 90 70 70 70 60 56 51 48 46
45 50 58 57 58 58 52 41 33 28 32 55 74 79 69 68 71 69 68 74 76 72 67 64 69 76 57 62 69 82 91 96 99 92 89 96 92 85 85 73 69 63 58 54 49
55 56 52 55 66 65 61 58 56 44 37 42 75 80 74 71 72 72 72 70 62 62 60 58 72 78 63 64 76 78 83 91 94 95 98 98 88 92 93 83 77 74 69 65 61
63 61 52 55 52 58 74 78 83 72 51 54 59 82 76 69 67 70 71 72 58 56 53 50 56 63 69 73 79 94 85 87 93 98 85 88 87 93 94 93 85 82 77 70 70
67 60 56 64 71 73 71 74 88 87 75 63 55 71 70 61 65 59 60 51 57 61 58 54 55 59 61 52 60 73 79 88 93 82 90 79 88 86 94 95 93 88 83 77 73
64 65 62 61 59 68 67 66 76 85 96 86 73 66 74 70 66 57 53 61 70 73 67 64 62 58 54 52 59 63 72 83 91 92 92 89 88 91 94 96 94 91 84 81 79
74 70 73 63 67 72 82 87 91 92 93 93 92 80 73 67 70 63 65 53 55 62 63 62 61 65 63 58 66 72 73 75 84 88 87 96 90 95 96 93 93 91 89 84 80

GFSSW_prec_cthk_075.txt.gz
RH
33 32 32 32 30 28 27 27 26 24 24 21 19 16 15 15 13 11 10 10 16 16 15 15 17 17 18 19 19 19 21 23 19 16 13 12 13 25 27 26 28 34 35 32 33
37 39 38 35 33 31 30 27 28 25 23 22 21 19 15 15 13 11 12 14 16 16 16 17 15 16 17 21 21 22 25 20 15 14 14 14 14 25 27 29 30 33 34 32 31
39 38 36 36 35 34 30 27 25 25 23 20 19 19 17 15 13 16 16 16 16 17 17 17 18 16 16 19 24 23 22 17 17 16 16 16 15 21 31 32 34 34 28 34 34
41 40 38 35 34 34 31 29 27 25 24 21 18 18 16 15 13 20 19 16 16 15 15 17 20 22 19 18 17 25 20 19 19 20 20 19 17 23 32 31 36 27 26 34 37
47 45 44 38 36 32 32 31 28 27 26 24 21 19 18 19 12 10 15 15 15 11 11 14 22 25 24 19 19 20 20 21 22 23 23 22 19 20 31 36 33 28 26 33 36
42 45 43 43 41 37 36 31 30 28 26 27 27 24 28 27 12 12 11 10 12 11 12 14 15 26 24 24 22 18 20 21 23 23 26 26 22 24 22 32 30 29 26 29 33
45 44 43 41 38 38 34 32 33 32 34 29 28 26 28 17 13 11 10 10 12 12 12 13 16 16 19 21 24 24 24 22 25 26 28 30 25 22 19 30 30 29 26 28 32
54 53 49 49 42 39 38 36 36 37 38 34 31 28 27 15 13 15 15 10 9 11 11 14 17 18 20 21 26 31 30 30 25 29 31 38 25 23 22 22 28 31 29 31 34
55 55 56 51 43 39 37 38 35 36 34 36 36 33 26 19 16 18 18 17 16 14 14 16 19 20 21 24 33 35 37 35 32 32 36 43 30 26 26 23 26 28 29 34 35
53 52 51 47 43 41 44 36 36 43 47 44 42 41 25 22 20 19 20 20 21 21 20 19 22 24 25 33 39 43 44 39 37 36 45 45 36 30 29 25 25 26 29 32 34
47 44 43 39 34 33 40 35 40 45 46 42 41 39 31 29 23 20 21 19 21 23 22 22 26 28 29 33 34 39 45 45 42 45 55 50 42 34 33 28 23 24 25 29 33
30 29 29 31 30 35 47 47 53 58 55 38 32 31 25 30 31 19 24 21 21 28 28 30 32 29 32 34 37 40 44 48 50 54 58 55 44 40 37 28 26 27 28 31 36
25 23 20 19 15 18 26 32 40 44 48 38 34 33 31 27 25 16 23 23 22 26 33 35 31 37 41 44 45 46 49 55 61 61 60 57 50 40 30 28 34 32 30 37 39
17 18 15 9 12 16 24 27 29 32 42 29 33 36 33 31 30 17 17 23 25 31 38 42 37 39 45 49 52 57 51 54 68 71 68 62 62 44 33 36 38 36 35 36 39
22 18 18 13 13 12 17 20 24 23 42 20 35 35 35 31 30 26 27 26 31 38 42 44 45 47 49 48 52 59 59 72 76 79 79 72 73 46 35 39 40 39 35 34 35
23 22 16 16 17 17 16 17 19 35 31 21 37 40 41 38 37 35 32 31 33 40 44 41 42 43 44 51 55 59 70 80 83 86 91 70 70 53 40 40 40 41 39 39 39
22 22 20 17 17 18 15 20 32 45 16 39 40 44 47 45 39 36 34 35 40 47 46 41 40 38 44 53 60 64 80 90 94 96 81 60 66 49 41 43 43 45 42 41 41
21 21 18 17 19 19 22 33 45 23 27 35 44 43 46 54 48 41 41 40 40 46 45 46 37 47 51 55 64 68 78 89 90 88 72 62 67 50 40 46 50 48 44 41 40
24 23 18 16 21 22 30 40 28 26 28 31 49 59 58 62 50 45 45 42 41 50 50 44 43 46 49 52 64 80 88 85 99 94 92 75 65 51 47 48 53 51 46 41 41
29 23 24 25 26 30 37 34 29 27 29 31 56 83 80 70 63 55 44 49 47 49 51 53 55 46 48 58 67 80 85 97 98 95 95 75 68 69 64 59 55 51 50 51 44
32 26 34 35 37 43 47 43 36 30 29 33 46 79 94 83 73 66 57 65 61 59 56 62 60 62 58 67 75 87 92 97 93 91 95 91 93 79 79 69 62 58 58 60 49
33 34 39 46 53 54 54 54 50 46 38 40 39 54 88 93 79 79 63 84 82 66 70 72 76 78 65 56 63 74 82 97 99 95 92 96 86 87 84 78 70 70 71 68 60
39 37 43 58 65 67 61 65 69 63 59 50 47 56 87 96 95 88 85 80 79 77 81 74 77 73 68 66 67 82 85 91 95 95 97 96 89 91 89 89 88 88 83 76 72
48 47 48 62 63 67 65 61 58 68 64 59 52 53 70 87 93 84 86 77 71 74 76 69 69 70 72 77 81 89 87 92 96 98 95 92 91 94 95 94 95 91 91 85 79
54 58 58 61 66 67 70 71 66 63 67 67 55 57 71 87 86 90 81 81 80 75 76 69 62 67 61 59 64 63 74 86 96 96 98 81 87 86 92 93 95 97 91 85 85
58 60 59 59 65 66 68 66 66 74 89 84 73 62 70 96 88 83 78 79 79 76 76 71 65 67 61 49 54 52 45 57 66 83 89 92 87 87 90 92 97 97 95 88 83
65 76 78 69 68 68 61 62 63 69 84 89 88 79 67 63 84 84 76 70 69 68 65 59 65 69 62 51 48 47 47 52 63 73 80 83 82 88 94 92 97 97 95 94 93

GFSSW_prec_cthk_078.txt.gz
RH
29 29 30 30 31 30 30 31 30 28 27 26 25 24 24 22 19 18 16 14 13 14 15 20 20 23 24 24 23 23 25 27 21 18 15 16 13 12 12 17 22 26 27 31 33
31 32 32 30 29 29 28 29 30 30 29 28 26 25 23 22 20 19 19 17 16 17 16 16 18 21 21 23 24 25 28 21 19 18 17 17 15 13 12 17 23 28 30 32 33
35 35 34 32 30 29 28 28 29 30 30 28 27 26 24 21 20 22 22 22 20 18 18 18 18 19 20 22 24 25 25 22 21 20 20 20 18 15 13 17 24 28 30 31 32
35 34 32 31 30 29 29 29 30 30 28 28 29 28 26 22 21 23 23 23 21 20 19 19 21 22 22 21 19 26 22 22 23 21 21 20 19 18 14 14 25 26 29 31 29
35 33 30 30 31 30 31 32 33 32 30 29 30 31 31 31 23 18 20 21 21 18 17 18 21 25 24 21 19 22 20 20 19 20 23 24 22 20 17 15 23 27 30 29 28
37 35 33 29 26 25 28 30 33 34 34 34 34 35 35 38 24 21 18 17 17 17 17 16 17 23 26 21 19 17 20 20 19 20 21 23 20 23 21 16 20 30 30 28 27
41 38 35 34 32 30 30 30 33 35 35 34 37 40 41 29 28 28 20 16 14 14 14 17 19 20 19 18 19 20 21 22 22 22 24 25 23 24 21 20 19 31 31 29 28
46 45 42 40 37 37 38 38 34 36 36 40 42 44 44 32 31 31 29 22 15 12 14 18 18 17 18 18 19 21 24 28 23 25 24 23 22 23 27 24 20 26 30 29 27
52 50 47 44 40 40 44 44 42 41 42 41 43 45 47 45 36 30 25 25 23 16 14 16 18 19 19 21 23 25 32 29 30 27 29 30 24 26 28 27 24 22 31 31 28
50 46 43 41 39 36 38 37 42 48 49 50 51 54 42 37 48 39 31 25 28 24 19 19 20 21 22 25 29 31 34 35 38 35 34 35 29 31 32 34 28 25 25 31 29
34 33 32 30 30 31 36 36 40 45 46 47 44 41 35 42 47 46 39 31 30 31 25 24 26 26 23 23 24 29 33 36 34 35 42 41 38 36 36 38 32 28 24 24 25
27 24 23 22 20 23 28 32 42 46 49 39 32 37 37 34 38 41 38 36 31 29 26 28 30 24 25 27 29 31 35 37 35 36 42 45 40 41 41 41 35 30 26 24 24
22 21 19 16 14 16 20 24 30 32 39 19 24 30 36 43 40 30 37 39 33 30 30 30 28 32 31 37 39 42 44 43 43 42 43 46 40 42 43 44 37 33 27 24 25
20 20 19 14 15 12 18 24 25 25 33 19 25 31 35 36 44 40 31 27 35 37 39 41 32 34 39 40 44 50 46 50 50 56 55 56 60 46 47 46 44 39 28 27 29
21 17 15 12 14 12 10 12 13 19 20 12 35 39 42 39 39 36 36 33 35 37 40 41 45 46 44 41 44 48 50 56 59 64 66 67 77 51 48 50 41 32 33 33 34
16 13 14 15 13 14 10 13 16 21 16 16 34 41 46 49 45 41 39 39 39 42 45 40 43 45 42 41 44 48 55 60 64 71 76 68 76 58 51 49 33 34 41 40 40
13 13 15 14 13 13 11 15 22 31 13 28 32 30 36 43 48 44 44 42 46 48 46 45 43 39 38 41 46 57 64 71 77 79 75 63 76 60 51 50 35 42 43 46 44
12 14 16 15 12 15 17 25 25 22 26 26 23 37 44 48 50 51 48 48 46 49 54 51 36 43 43 45 55 65 69 74 79 86 83 63 68 58 64 58 44 44 48 49 45
16 17 15 19 16 18 25 35 24 38 35 29 19 34 57 60 61 56 55 52 46 48 56 53 42 46 51 53 55 72 79 77 86 85 92 73 61 59 65 60 52 47 49 52 46
18 17 19 24 24 26 30 32 31 33 32 30 37 45 62 80 79 67 61 55 48 47 56 54 54 52 53 55 63 74 80 89 91 92 95 75 71 79 77 73 62 56 63 58 52
19 20 29 30 33 33 40 38 37 34 36 37 36 38 33 65 93 89 77 71 66 60 58 60 59 65 69 66 75 83 88 89 92 95 93 92 83 86 86 85 73 71 66 65 61
25 27 36 38 41 44 49 50 52 55 53 49 41 37 39 64 82 97 91 86 83 74 66 66 74 72 71 69 66 75 81 87 95 95 96 96 81 86 92 88 82 75 70 69 67
33 32 36 43 52 56 56 59 58 55 57 56 56 48 48 60 85 95 98 89 78 92 84 71 80 76 75 78 76 83 89 91 93 96 94 96 81 85 95 93 86 81 75 73 73
40 41 41 47 53 62 65 62 60 54 53 58 55 52 51 52 67 85 93 95 86 81 88 78 79 75 73 69 72 78 81 85 96 98 95 88 83 85 91 93 90 88 85 82 80
47 47 49 52 61 62 61 62 65 64 57 61 65 65 62 65 63 85 91 98 90 88 88 80 81 80 73 67 66 68 69 70 79 83 96 80 80 80 89 94 93 96 93 93 87
50 50 49 52 57 60 66 66 64 71 64 66 87 77 73 71 65 88 88 93 93 80 87 81 82 79 70 55 46 42 36 43 53 61 66 73 73 80 83 87 94 96 95 93 94
47 55 66 69 69 69 64 59 55 60 54 67 74 74 74 65 61 79 90 96 96 87 82 78 78 73 63 49 42 34 37 40 49 51 58 71 70 80 92 91 92 95 98 95 89

GFSSW_prec_cthk_084.txt.gz
RH
33 32 31 30 29 28 28 27 26 25 25 25 24 25 25 25 25 25 27 28 26 25 26 27 26 27 27 29 30 26 24 23 22 22 19 16 15 15 14 13 12 13 15 18 18
37 36 35 34 33 31 28 26 25 23 23 22 22 22 22 23 24 25 27 28 28 27 26 30 30 31 30 31 30 28 25 23 24 24 21 19 17 17 17 16 15 13 12 16 20
38 37 36 35 32 29 27 26 25 24 23 22 22 22 22 21 24 25 27 30 29 29 30 30 31 33 31 32 34 29 27 28 27 23 23 21 17 17 18 17 16 14 13 18 20
41 39 35 32 29 27 25 24 22 21 20 21 22 22 23 23 24 23 25 28 30 31 33 32 29 31 28 30 28 30 28 26 26 24 23 22 19 19 18 18 18 16 13 17 17
42 39 35 32 30 29 27 24 23 21 20 20 20 20 22 29 27 22 25 29 32 32 33 34 33 30 29 27 24 25 23 22 23 23 21 21 19 15 18 18 17 17 16 15 15
44 41 37 34 32 31 29 27 26 26 24 23 22 21 24 29 24 25 24 27 34 37 37 36 38 36 35 33 28 28 26 23 23 21 19 19 16 18 15 15 16 17 17 16 14
47 45 40 36 36 34 33 31 29 26 26 27 27 27 32 28 25 28 29 28 31 35 37 36 36 36 36 32 28 23 24 21 19 17 18 20 22 17 14 14 16 15 18 18 15
48 45 40 39 37 36 32 29 28 26 27 28 31 35 37 32 31 34 34 34 37 35 34 33 37 40 39 33 27 25 22 21 19 22 22 23 20 20 17 16 17 17 19 19 17
49 46 42 35 34 31 28 26 25 26 27 28 33 36 36 34 38 41 42 40 42 42 39 36 28 32 37 33 29 29 26 23 23 24 23 22 22 24 19 20 19 19 18 19 19
51 42 35 31 26 25 23 22 22 21 25 30 34 34 35 40 43 41 41 42 47 51 46 43 51 46 43 34 29 31 27 28 28 22 22 23 24 23 18 20 21 20 19 20 21
42 34 32 29 26 22 19 22 24 26 20 19 19 24 20 25 31 41 44 42 42 49 48 47 35 36 40 38 30 28 28 25 24 20 22 22 21 22 20 18 18 20 20 20 21
38 35 31 24 21 19 20 22 24 22 21 18 22 26 27 27 26 26 34 40 42 47 50 53 45 30 28 35 42 38 31 27 27 25 27 25 25 22 21 19 19 21 22 22 23
32 30 25 20 19 18 22 23 22 23 22 16 29 31 30 33 30 27 23 31 40 44 53 49 55 48 38 31 31 30 31 27 32 33 32 33 25 24 21 18 19 19 20 23 24
30 25 21 18 19 17 23 17 17 18 21 13 30 27 28 32 35 33 31 28 33 36 47 54 51 50 52 36 37 44 45 41 39 43 38 39 34 28 23 25 25 26 25 25 26
25 21 18 16 17 21 17 17 16 24 11 18 29 26 20 28 31 37 34 32 32 36 45 47 51 55 48 41 47 44 47 46 46 46 43 36 44 29 29 32 35 32 32 31 33
21 19 20 21 18 15 13 13 18 18 8 14 21 17 17 22 30 35 37 38 32 37 46 49 55 52 57 53 49 52 49 48 54 49 55 34 39 32 39 48 47 46 46 46 47
21 21 19 16 16 11 9 14 12 8 11 21 20 14 17 28 26 30 40 43 51 47 43 41 46 56 57 65 66 64 57 48 64 69 44 42 45 36 48 55 57 57 57 59 56
20 18 15 13 10 9 10 12 8 18 18 18 16 11 19 29 21 27 36 43 52 56 55 58 55 52 62 56 58 55 45 46 56 55 51 48 47 54 59 61 64 63 63 60 58
15 14 13 12 11 10 15 12 14 24 23 21 12 14 20 28 18 26 37 47 53 57 71 66 61 57 62 62 55 63 63 56 63 54 59 40 46 52 58 67 66 67 63 60 60
12 15 16 14 13 14 16 18 23 24 24 22 18 23 22 22 15 20 30 62 78 77 78 72 66 68 70 72 72 70 68 75 68 70 63 50 51 62 71 72 71 69 67 66 64
12 19 19 17 16 20 23 21 24 27 28 29 30 30 26 28 29 34 29 57 85 82 83 72 67 70 76 73 73 76 78 78 77 74 70 56 57 70 75 76 72 71 73 72 68
13 23 19 18 30 27 30 33 31 35 36 39 42 45 46 49 48 49 44 52 70 90 93 82 75 63 67 80 78 74 74 75 74 79 75 80 62 71 81 79 73 78 79 75 71
18 22 22 25 34 30 33 34 36 36 40 45 48 49 53 57 56 46 48 55 61 86 98 96 76 74 73 72 72 75 80 83 82 78 72 83 75 74 77 79 76 83 84 80 74
22 31 35 34 34 34 36 36 42 41 43 50 52 56 62 61 62 60 49 46 54 77 94 98 88 75 68 72 76 79 73 74 77 80 80 76 65 61 54 59 70 85 87 86 80
25 30 31 40 39 35 36 39 44 46 48 51 53 74 70 62 55 57 62 62 60 86 95 99 91 83 72 68 69 70 71 66 64 64 62 61 53 55 57 60 68 84 92 92 87
29 33 30 32 36 39 42 48 47 51 59 58 58 57 67 62 60 58 57 79 78 96 97 98 98 96 90 75 63 57 48 42 41 40 43 52 62 66 63 66 77 88 94 96 91
28 30 37 40 45 51 53 50 49 48 48 51 58 56 55 55 58 63 61 56 79 95 97 98 89 88 91 74 61 53 44 42 41 49 49 51 52 58 68 76 82 92 96 97 97

GFSSW_prec_cthk_087.txt.gz
RH
40 37 35 33 32 32 31 30 28 25 24 24 23 23 21 22 21 22 27 27 25 21 22 29 32 29 30 30 32 31 30 25 23 21 20 22 20 16 16 15 14 15 15 18 27
40 39 37 35 34 32 30 27 26 25 25 24 24 23 21 21 21 23 24 23 22 22 22 29 35 34 33 32 33 33 30 27 26 26 28 26 24 20 20 18 17 16 15 16 17
43 40 39 37 34 30 28 26 25 25 24 21 21 21 21 21 27 25 22 23 24 25 27 28 33 39 38 36 36 36 32 29 27 29 30 28 25 21 21 20 19 19 19 17 17
46 44 40 36 32 30 29 28 27 25 23 21 20 20 19 20 23 25 19 19 19 19 27 27 28 32 38 37 38 38 36 34 31 29 32 28 25 23 21 21 22 20 19 18 17
51 47 42 38 35 33 32 31 29 27 26 26 24 23 22 29 26 23 20 23 25 27 30 30 31 32 35 34 32 35 34 32 31 28 27 26 23 20 19 21 20 19 18 19 19
53 49 44 41 38 36 34 32 31 29 28 27 26 27 28 31 26 22 21 23 23 30 33 34 33 35 35 36 34 36 36 34 32 28 28 26 23 21 18 16 17 16 16 18 20
56 52 48 43 39 38 36 32 30 30 30 30 27 28 33 33 31 29 26 24 26 30 33 38 40 45 41 39 36 38 38 33 29 24 22 22 22 21 15 15 15 14 14 16 18
58 53 47 43 41 38 33 32 30 29 28 27 26 31 34 32 30 31 31 29 27 27 31 37 44 45 44 41 40 33 31 31 23 25 25 22 22 22 22 19 19 15 15 17 18
57 52 48 43 40 33 30 27 26 23 23 23 28 35 36 30 33 39 36 38 36 33 32 35 38 44 45 41 36 36 36 36 34 30 29 25 23 23 26 26 22 20 19 18 18
60 53 47 39 34 30 26 25 23 24 27 35 37 37 32 35 32 37 37 37 39 40 39 39 40 40 45 46 39 32 32 32 33 32 35 33 27 21 19 21 19 17 17 19 20
60 50 41 37 31 28 27 33 36 41 32 25 24 22 16 19 16 16 27 35 41 45 45 41 41 42 44 48 50 49 44 38 37 32 26 29 28 24 17 16 17 14 14 18 21
50 42 36 33 31 30 29 30 24 24 24 20 24 26 26 27 25 23 18 21 29 38 43 42 42 43 44 46 39 43 51 39 31 35 35 30 34 33 20 17 15 16 18 19 21
42 38 35 29 27 29 27 25 22 20 25 22 28 29 28 29 29 29 23 24 23 27 32 42 46 51 45 48 44 35 32 42 43 38 40 32 32 27 30 23 21 20 20 20 21
37 31 28 28 30 25 31 22 21 20 34 24 34 31 23 25 35 28 28 25 24 27 30 35 43 48 50 51 53 49 38 36 40 42 40 47 44 32 32 26 25 25 26 24 23
31 30 29 24 25 26 22 22 24 29 28 26 36 28 18 24 23 39 26 26 25 27 30 32 43 44 49 54 51 53 52 53 56 57 50 42 39 29 35 33 42 41 39 37 34
31 28 23 26 25 23 22 18 25 40 24 24 23 18 15 23 27 29 26 25 26 24 27 30 38 45 50 55 57 54 58 59 48 51 52 39 39 28 46 58 51 54 53 53 50
28 21 21 26 30 17 15 25 35 21 16 23 21 15 11 22 22 26 24 35 39 47 39 42 35 38 46 55 61 58 63 66 64 67 58 48 50 38 62 54 56 60 59 57 58
23 22 24 23 21 15 21 29 20 16 16 17 15 12 10 19 21 17 17 25 35 49 45 52 52 52 39 49 65 68 68 67 58 54 63 60 54 48 56 52 55 59 57 58 57
23 27 28 21 13 16 25 22 20 21 20 19 13 11 15 24 18 12 17 27 47 67 84 64 58 54 62 54 53 63 67 60 61 50 57 57 43 58 56 56 59 61 58 59 61
34 30 24 11 9 17 22 22 19 19 19 20 18 16 20 23 21 18 18 45 57 62 61 54 61 67 66 60 55 61 67 77 70 72 63 46 44 59 81 69 59 57 60 63 61
28 31 20 10 14 23 32 24 22 25 23 25 27 27 28 32 35 35 34 49 58 57 63 67 72 67 69 67 69 68 77 81 75 72 70 64 68 77 77 66 61 57 64 64 66
27 31 18 16 29 26 29 28 23 28 29 28 31 36 44 45 45 43 47 48 72 54 57 88 84 67 73 66 70 82 74 73 75 66 63 68 71 81 70 64 64 63 67 68 68
27 24 17 24 37 31 33 30 28 28 32 36 37 38 45 52 55 49 51 55 56 63 63 86 92 79 65 77 67 69 79 79 82 82 82 78 71 84 68 58 67 65 73 72 70
26 31 30 27 27 32 31 32 34 33 32 36 40 42 54 58 57 68 68 66 64 58 69 79 87 79 71 68 75 65 64 71 80 85 71 69 64 62 55 58 62 66 70 75 77
29 31 30 35 34 33 33 32 38 41 43 48 48 57 63 58 55 53 62 56 56 67 74 90 91 86 69 84 82 76 79 75 76 75 75 64 54 52 64 56 63 64 70 81 85
25 28 26 34 28 37 35 38 38 43 44 46 51 50 54 56 56 59 54 58 64 80 71 90 84 91 88 69 67 65 62 61 57 51 45 45 56 71 77 67 77 71 75 86 91
26 28 37 33 38 43 45 42 40 40 40 37 43 47 50 56 57 54 51 51 57 62 75 94 94 97 90 70 56 57 57 51 51 54 60 70 75 72 66 76 79 75 80 89 97

GFSSW_prec_cthk_093.txt.gz
RH
60 57 52 49 46 45 42 40 38 35 31 28 28 26 24 23 23 22 22 22 22 22 21 22 20 23 22 25 29 36 39 39 39 35 30 29 29 26 25 23 22 20 18 18 19
65 61 57 52 51 46 44 41 38 34 31 30 28 26 23 22 22 22 24 23 22 22 22 22 20 25 26 23 27 31 34 35 34 34 33 34 32 29 27 26 26 22 20 20 19
70 65 61 58 55 50 47 43 40 36 34 33 31 29 26 24 25 29 24 21 20 20 20 21 19 26 31 29 24 26 28 31 33 34 36 35 35 33 30 29 28 27 25 23 22
75 69 65 62 59 55 51 47 43 40 38 37 34 33 30 28 30 30 26 24 22 20 20 19 20 24 26 33 34 31 31 30 30 32 34 35 36 34 33 32 32 29 28 28 26
79 76 72 66 63 59 55 51 48 45 42 39 37 34 31 33 31 29 28 26 23 21 21 24 27 27 24 27 30 34 32 32 31 33 36 36 34 33 32 33 33 33 31 29 27
83 77 74 69 66 64 60 54 49 46 43 39 37 33 33 39 31 30 30 28 23 23 28 28 32 32 28 26 27 26 27 28 28 30 30 30 28 31 31 34 33 33 31 29 26
84 80 75 72 71 68 62 56 52 47 42 38 36 34 35 32 29 32 32 32 29 25 27 33 35 34 34 34 32 31 30 28 29 31 32 36 29 30 30 31 30 29 25 24 24
83 80 76 73 72 69 64 57 52 45 39 38 36 35 34 25 30 28 29 29 31 31 27 29 34 35 35 36 38 41 37 34 31 35 33 36 25 25 26 29 28 28 30 31 27
81 70 76 74 75 72 64 57 49 43 40 36 33 38 36 34 32 34 35 33 34 35 34 30 29 34 37 38 40 39 38 37 33 37 35 38 31 24 28 32 34 34 33 34 34
68 72 71 73 66 59 57 51 47 47 45 41 41 48 36 36 34 33 32 30 30 30 30 29 27 30 32 35 41 44 41 37 32 35 37 36 34 28 32 34 36 35 35 37 33
68 73 68 60 54 52 45 48 49 56 52 39 43 36 37 34 27 24 22 20 24 25 30 30 32 32 31 32 34 35 37 34 34 34 40 37 37 32 33 34 30 34 35 32 30
74 77 75 58 51 47 45 46 46 45 41 33 30 34 27 24 27 31 26 23 19 29 29 31 34 28 29 29 29 33 35 34 31 33 36 31 32 34 38 35 34 31 34 32 31
75 65 73 59 45 40 45 43 39 34 35 32 30 29 35 31 29 33 29 22 22 24 24 28 26 32 36 35 35 31 36 33 30 31 31 36 30 29 34 40 40 40 43 37 33
66 76 61 52 47 44 45 39 34 30 44 41 35 36 33 27 32 30 29 25 25 23 24 27 19 23 32 35 42 35 38 34 37 43 42 41 39 37 34 37 45 53 50 48 46
64 62 50 49 52 48 43 39 32 38 58 45 46 44 32 28 32 30 31 29 24 19 25 27 26 28 28 27 35 35 43 41 42 43 46 41 54 38 36 42 40 57 61 58 54
66 55 44 48 50 44 37 30 36 54 55 41 45 38 23 19 21 30 33 28 26 29 27 25 24 23 24 25 30 32 34 41 42 45 50 39 56 40 37 36 56 62 74 67 59
61 48 51 43 43 43 33 41 57 62 39 43 39 32 23 16 13 12 22 24 36 32 31 29 28 35 35 36 36 41 51 60 61 57 49 51 65 53 56 56 67 75 69 78 66
51 41 39 52 44 35 40 46 55 47 40 36 27 20 14 9 10 14 19 20 20 31 41 42 35 36 50 46 52 51 62 78 70 62 57 63 76 60 70 83 86 73 71 74 73
40 49 41 44 34 32 47 52 49 42 36 26 18 12 13 20 22 21 21 24 40 43 51 58 44 35 46 55 59 53 57 58 87 72 70 54 50 56 67 78 94 87 76 73 63
47 56 52 32 26 34 41 47 36 34 30 25 15 14 19 25 27 29 28 30 46 51 53 56 56 36 38 60 55 64 55 71 85 94 90 56 53 86 84 88 95 86 73 70 63
61 49 38 23 30 36 45 39 32 24 21 17 20 23 24 24 23 25 28 32 43 47 51 58 61 44 36 44 58 67 74 65 69 83 83 85 85 96 90 97 96 83 77 73 68
47 58 47 34 38 42 46 36 31 26 20 21 22 25 30 32 32 32 33 42 46 48 52 63 71 69 43 27 33 70 93 97 96 80 81 86 79 88 87 91 96 88 83 76 74
58 56 30 32 48 45 37 31 24 22 25 26 28 30 29 30 34 35 41 55 52 54 57 59 67 68 38 28 40 64 91 97 97 83 81 89 98 92 95 93 94 90 83 75 72
50 45 25 37 40 42 32 28 28 28 24 25 28 31 34 42 46 50 50 51 49 55 61 62 64 58 53 52 65 61 71 82 97 98 86 97 98 95 97 98 94 87 79 75 69
39 39 41 41 36 29 29 25 28 30 30 31 34 41 43 43 42 43 43 45 49 55 65 67 64 65 58 56 72 65 64 75 91 97 96 93 98 96 97 93 87 84 81 74 73
34 39 35 34 31 29 28 34 35 37 34 31 33 37 38 41 41 42 39 41 46 51 57 70 74 71 65 48 55 75 73 90 92 98 98 90 98 96 92 85 77 77 72 68 72
38 34 38 31 27 36 38 34 35 33 35 34 34 34 32 33 34 35 35 35 38 46 51 59 67 74 64 59 68 73 76 81 92 98 96 98 93 87 84 76 71 69 68 69 75

GFSSW_prec_cthk_096.txt.gz
RH
73 71 67 63 61 57 54 52 48 45 41 37 33 29 27 25 25 24 24 23 23 24 23 22 21 20 23 20 27 29 34 35 32 32 31 32 30 30 28 26 25 22 21 22 23
77 75 71 69 65 60 57 56 50 46 43 39 35 32 29 28 28 27 26 25 25 24 24 24 23 20 24 23 25 30 31 33 31 31 30 31 32 33 32 30 29 27 27 26 27
83 81 75 73 70 68 62 58 55 49 45 42 38 35 32 32 31 31 27 25 24 22 22 22 23 21 24 26 24 26 28 28 28 29 29 29 30 35 35 33 32 31 29 29 29
86 80 80 77 74 73 71 65 60 54 50 46 42 39 35 34 35 35 32 30 28 25 24 21 20 20 23 27 28 29 24 25 27 27 29 28 29 30 31 31 35 34 33 31 30
85 83 80 76 77 74 72 69 64 60 55 50 44 41 39 37 38 34 33 32 31 28 25 24 25 22 25 26 27 29 29 31 32 33 31 31 29 27 28 30 30 33 34 34 32
79 78 79 79 77 74 72 70 68 65 58 52 47 42 41 46 35 38 36 34 33 31 29 30 29 31 31 29 28 26 26 28 30 30 29 30 26 26 27 31 31 32 34 36 37
79 72 77 76 72 69 69 68 68 65 61 55 48 43 43 43 34 36 36 36 36 34 29 31 30 30 33 32 31 30 30 30 29 29 31 37 24 27 28 30 29 29 28 31 35
77 77 75 71 70 64 60 63 62 59 54 49 45 47 46 35 35 33 33 35 33 33 35 30 32 31 33 35 35 35 34 35 32 34 34 39 21 26 27 26 24 23 26 27 26
90 75 72 72 69 63 61 61 59 53 46 48 46 45 44 37 38 38 36 35 35 37 37 36 32 32 34 37 39 37 39 38 37 38 36 38 24 25 26 27 27 26 26 25 25
95 86 63 63 67 66 62 52 47 42 47 47 49 55 37 39 37 40 40 36 35 35 34 33 32 29 33 37 43 41 37 34 34 38 37 35 29 25 27 27 26 26 25 26 28
77 77 64 60 60 59 52 49 47 43 47 40 36 39 43 40 36 32 31 32 30 29 33 30 33 30 28 27 28 30 31 32 31 34 39 34 33 24 25 26 25 26 28 27 29
70 71 58 61 64 55 56 59 61 45 38 34 36 39 35 36 28 31 29 30 26 24 27 31 30 23 30 33 33 33 30 29 26 29 38 31 25 22 24 25 26 26 27 29 32
63 60 72 64 52 64 63 54 59 48 37 32 26 31 30 34 31 34 33 28 24 24 27 32 24 28 33 34 37 33 36 32 30 30 30 31 22 21 20 23 25 26 28 32 34
71 71 73 61 56 47 47 57 47 38 44 41 36 32 37 41 38 35 34 32 28 25 25 27 23 24 25 29 31 32 38 38 36 37 37 32 38 19 21 23 29 30 36 43 50
79 88 66 58 59 52 54 51 41 37 47 46 45 47 46 39 40 38 36 34 29 26 23 27 27 26 29 26 33 30 34 34 37 39 40 28 54 17 23 27 35 36 50 58 62
67 67 69 47 60 59 49 47 39 58 44 53 54 52 40 31 29 34 37 36 28 26 27 31 26 29 26 25 29 28 31 39 39 44 51 26 46 26 31 48 58 60 75 79 83
71 59 53 54 68 58 48 47 60 65 44 46 46 41 34 26 22 22 22 32 28 28 25 25 22 22 31 31 33 39 42 55 61 63 48 35 44 29 39 68 75 75 76 86 82
67 60 58 65 62 59 46 63 71 49 48 44 40 36 29 24 20 17 19 24 31 35 41 43 39 28 31 39 42 39 46 58 79 69 58 52 56 50 64 75 82 79 80 92 90
76 64 66 53 54 50 59 60 52 52 51 46 40 35 30 25 21 21 21 32 39 36 41 47 41 35 34 40 50 53 59 60 72 67 79 65 56 61 68 75 79 80 91 97 85
63 60 49 58 49 55 62 62 50 48 45 39 34 29 27 26 27 25 24 35 40 40 39 45 46 34 29 29 38 62 66 75 83 87 79 63 62 80 80 88 94 94 96 92 87
66 69 55 43 53 58 58 47 38 37 36 34 31 26 23 26 25 28 30 37 35 37 37 39 43 38 31 29 37 48 72 89 88 79 77 75 76 88 86 91 93 95 95 89 82
71 70 60 46 51 48 51 42 30 31 27 26 24 24 26 25 24 25 27 34 36 36 38 41 45 51 36 26 27 36 44 82 96 94 84 84 78 84 93 93 96 96 97 91 83
79 52 34 44 66 52 42 40 36 33 25 23 28 25 26 28 28 27 31 40 39 39 43 45 51 54 33 31 54 60 62 69 87 98 92 96 83 89 91 97 98 97 90 82 76
59 51 50 59 51 45 39 41 34 23 21 21 23 25 27 30 34 39 37 44 40 45 49 52 58 57 57 46 55 72 61 62 73 94 92 86 93 96 97 97 92 92 86 77 72
67 67 46 42 47 42 39 32 28 26 26 27 30 32 33 35 34 37 38 36 37 45 52 56 63 60 56 55 57 60 57 59 60 64 96 96 99 97 98 98 90 86 79 72 70
57 47 34 36 36 32 28 28 30 29 31 31 30 32 31 34 35 37 35 34 35 39 50 58 64 63 46 47 51 62 54 60 58 80 82 96 99 97 96 95 88 79 72 69 68
38 36 39 43 36 29 32 31 32 31 30 31 31 29 29 30 31 31 33 33 33 35 39 49 59 61 48 48 59 54 48 53 80 88 94 98 99 96 93 84 82 78 65 66 68

GFSSW_prec_cthk_099.txt.gz
RH
74 74 73 72 71 68 62 59 56 54 50 45 41 38 36 35 34 32 30 27 26 25 23 23 23 23 24 22 26 28 33 37 31 32 31 31 31 28 28 29 28 26 23 24 26
79 80 79 76 74 71 66 63 59 56 52 48 44 42 39 38 37 36 33 29 28 27 26 27 25 23 23 26 22 28 35 32 29 29 30 30 32 32 29 29 31 30 27 30 34
79 81 83 79 79 75 72 66 62 59 55 50 46 46 42 42 40 38 33 31 30 27 26 27 27 26 23 26 25 25 30 29 28 28 28 29 29 30 30 29 31 33 31 30 28
72 73 77 77 80 79 74 71 67 63 60 55 51 48 45 44 44 41 37 35 33 31 27 25 24 25 24 26 27 27 23 23 25 27 27 27 25 27 28 29 31 31 32 30 30
69 70 71 72 72 78 73 70 67 66 64 58 56 54 49 46 48 40 39 39 38 35 32 29 28 25 24 25 25 26 26 24 25 26 25 26 27 27 27 28 29 32 33 32 31
73 69 66 66 66 65 63 61 64 62 62 60 57 54 53 55 47 46 44 43 40 38 37 33 33 35 34 33 31 29 28 28 28 28 27 26 27 28 27 29 28 31 33 35 35
70 68 68 68 64 64 63 59 57 55 52 53 50 47 50 54 42 46 46 44 43 41 39 37 36 34 32 33 32 32 32 31 31 30 29 27 25 26 28 28 28 30 31 33 34
83 77 77 79 73 65 63 60 57 55 54 50 48 47 48 42 38 39 36 39 38 38 39 38 37 35 33 33 35 36 35 36 33 33 31 28 23 25 26 26 27 28 28 29 28
79 80 75 80 86 64 60 58 59 56 51 50 48 46 45 38 37 39 37 36 38 37 38 40 36 37 35 36 40 41 42 39 38 38 36 31 25 25 27 27 27 25 25 26 25
71 77 74 78 80 73 71 64 51 52 48 46 46 45 38 39 40 38 41 42 43 43 41 40 40 36 35 38 44 43 42 39 37 33 33 32 25 27 27 27 25 24 24 24 23
66 64 75 74 77 79 76 69 56 48 47 45 39 33 35 32 36 36 39 41 38 37 39 36 37 34 32 31 31 33 35 33 30 32 33 32 25 26 26 25 24 24 24 23 22
63 70 77 84 81 70 81 57 53 55 50 49 43 39 32 37 39 30 29 30 29 31 33 38 36 27 29 33 36 37 35 33 32 33 33 33 24 21 23 21 19 20 20 21 21
70 72 67 79 66 64 57 55 57 66 52 41 36 38 44 36 39 31 35 34 33 31 30 35 30 32 32 33 36 35 37 34 33 32 33 32 25 24 20 18 17 18 21 21 25
68 94 86 93 71 59 50 63 69 47 42 30 36 36 34 35 37 35 38 35 33 33 32 33 27 27 28 31 33 35 32 31 32 37 39 32 37 20 17 18 20 19 27 36 38
90 84 71 81 71 66 66 70 59 46 43 34 34 41 37 39 40 39 40 43 40 34 33 30 31 31 30 28 29 30 31 33 34 37 35 26 50 21 19 20 22 39 50 53 54
80 81 90 76 75 78 83 71 58 63 56 52 56 53 50 47 46 48 49 46 42 35 32 31 32 28 26 25 27 28 30 33 35 36 42 24 46 27 25 30 43 56 68 70 67
84 90 90 83 68 72 78 65 68 75 42 50 60 59 48 40 36 38 47 50 45 32 32 31 25 25 30 31 33 37 39 49 54 55 42 33 46 37 44 51 64 69 72 80 71
88 79 78 76 79 78 61 63 69 41 53 49 48 53 46 37 34 31 36 40 42 41 44 43 34 32 31 35 37 44 48 58 63 62 52 40 52 42 54 60 64 66 73 77 81
88 84 84 82 79 76 67 77 59 55 49 52 53 51 51 42 36 34 38 47 41 36 35 43 43 35 34 30 31 41 54 55 67 52 61 47 45 57 58 66 74 76 75 83 89
83 85 83 77 81 74 79 75 58 61 59 54 55 55 51 40 37 32 33 40 39 36 33 40 39 33 28 23 26 32 36 58 75 85 70 52 53 55 63 72 76 82 83 94 95
84 85 79 79 79 76 83 77 61 56 57 60 57 52 44 39 31 28 33 38 37 38 34 33 35 33 28 25 25 25 30 44 61 82 96 74 63 65 67 70 76 88 89 97 96
84 85 78 61 75 81 72 60 56 57 54 55 50 44 40 33 26 24 30 33 38 35 34 34 37 43 31 23 30 31 41 51 71 66 88 92 77 81 76 84 89 90 98 97 94
78 73 71 74 78 72 65 58 52 44 41 34 32 30 27 25 27 29 31 35 33 31 34 38 43 44 28 33 34 38 47 51 66 78 80 94 96 89 87 88 91 97 97 93 89
71 66 64 78 75 54 51 54 49 44 36 32 32 27 26 29 27 33 32 37 30 34 36 38 43 43 44 40 49 49 47 48 62 76 71 79 69 84 93 94 95 92 94 88 84
74 70 58 53 66 63 45 40 43 38 32 27 27 27 27 31 32 34 31 32 31 34 41 43 50 51 50 52 54 50 42 41 63 56 74 57 72 90 95 98 95 95 91 79 78
69 54 57 68 57 43 42 44 31 24 24 27 29 30 31 32 31 31 32 31 31 38 43 48 54 59 56 48 48 47 35 33 46 60 68 54 69 86 90 98 95 94 84 75 74
70 64 53 46 49 49 40 32 28 27 27 26 26 28 29 30 31 31 32 32 31 33 37 43 48 51 46 43 47 41 47 47 44 76 67 72 82 87 91 97 89 85 82 74 71

GFSSW_prec_cthk_102.txt.gz
RH
68 72 73 73 73 70 68 66 63 58 55 52 49 46 42 40 40 38 37 35 34 32 29 27 25 26 26 26 27 27 31 36 30 30 28 28 29 30 30 29 26 26 25 24 23
64 64 68 69 69 72 69 66 66 63 60 56 51 50 46 44 43 42 40 39 35 34 32 30 28 27 26 28 25 30 37 31 28 27 27 28 29 29 29 29 27 25 27 25 26
62 61 60 63 66 65 64 62 62 63 63 62 58 54 50 48 46 44 41 38 37 35 33 32 32 31 29 28 27 27 31 29 29 29 28 26 27 28 28 29 28 27 28 27 27
63 60 61 61 61 63 61 58 56 58 60 59 57 58 54 52 52 49 45 42 41 38 36 34 33 31 29 30 30 29 27 26 26 27 27 25 24 26 26 27 28 28 28 29 29
60 63 59 58 60 59 58 53 51 52 52 55 51 53 54 55 58 50 50 49 47 43 41 38 35 32 31 29 29 29 28 27 26 27 28 27 27 25 25 26 27 29 30 30 31
48 53 59 62 61 61 58 56 50 46 45 44 44 46 48 52 52 46 46 48 47 46 45 43 41 37 38 38 36 34 33 32 31 29 28 28 28 29 27 27 27 28 29 31 32
51 53 58 66 67 66 62 58 56 51 45 42 41 42 43 57 49 44 42 42 42 42 42 44 43 44 39 37 36 37 38 36 33 31 30 30 29 28 27 27 27 27 28 29 31
59 55 65 73 77 74 75 71 63 53 49 44 42 42 40 48 44 40 32 39 40 40 40 41 39 39 39 37 37 38 39 40 36 34 34 33 33 30 30 28 26 26 26 27 28
44 63 67 65 87 79 85 77 69 61 56 48 48 53 42 34 32 33 33 34 31 35 38 39 41 39 40 41 41 42 44 42 39 36 36 34 32 30 28 28 28 27 27 27 27
44 43 75 61 84 69 79 72 68 57 62 56 54 54 39 33 34 33 31 32 33 35 36 39 40 39 40 42 46 45 46 44 42 35 32 29 28 28 29 30 29 29 28 27 26
40 38 49 64 68 87 73 79 76 63 61 66 59 54 34 33 33 31 31 35 39 39 44 42 43 42 40 39 38 39 39 39 35 31 32 30 29 29 29 29 28 26 24 22 22
35 50 49 55 68 70 81 64 67 70 64 64 59 53 52 49 39 34 35 37 38 38 39 42 39 35 35 36 38 39 37 38 37 36 36 32 27 27 26 23 23 21 19 19 19
43 46 59 58 71 68 71 91 79 78 78 58 53 54 58 40 36 42 37 34 32 32 35 40 37 36 35 36 38 37 38 37 37 33 31 29 24 21 20 19 20 21 25 30 32
49 60 58 62 69 70 72 57 65 73 71 37 36 37 43 49 40 40 38 38 35 37 36 36 32 33 36 37 36 39 34 35 36 37 39 32 35 23 20 20 20 31 36 38 39
71 63 68 77 82 91 73 77 83 79 90 43 34 32 27 33 32 36 41 43 39 40 39 39 40 39 40 36 34 33 30 30 32 37 37 38 40 23 20 21 36 39 39 39 41
69 70 79 78 77 75 90 82 79 86 67 52 46 41 39 34 33 37 43 47 47 48 47 42 40 40 40 36 32 30 30 31 33 37 44 36 41 24 23 36 38 41 43 44 43
73 87 76 84 97 92 90 86 84 78 58 64 61 54 48 44 46 48 57 61 58 54 46 44 36 35 33 33 35 38 42 47 48 54 43 38 44 27 35 38 43 45 48 49 49
73 80 82 93 87 95 94 91 83 51 59 56 56 58 54 50 52 51 64 67 63 60 59 48 44 46 42 39 33 39 40 51 57 57 50 39 41 35 42 42 44 48 55 61 62
80 85 93 98 94 84 89 90 63 67 48 49 60 64 58 50 44 46 57 63 53 46 46 55 51 45 41 36 31 34 46 46 58 53 60 45 40 46 50 53 55 58 62 65 65
87 95 97 97 98 85 95 80 69 62 56 55 62 65 60 54 48 46 50 54 57 54 47 50 42 40 37 30 30 28 28 43 58 66 64 43 49 53 64 66 64 66 66 69 75
97 97 98 97 88 91 91 87 69 58 63 58 65 71 67 63 56 51 52 51 48 45 36 34 34 42 28 23 22 23 24 29 50 57 68 65 65 74 75 75 73 73 75 79 93
95 96 93 94 96 95 92 81 72 65 66 71 69 64 68 63 58 53 53 46 39 35 36 34 39 42 28 24 26 28 41 45 53 51 62 68 55 59 70 69 78 84 89 95 95
97 97 96 90 96 93 88 77 74 70 68 67 69 66 61 60 55 49 48 43 37 35 36 34 41 41 33 41 36 38 37 42 56 60 58 70 52 59 73 76 78 91 96 98 94
87 97 96 91 94 78 75 72 71 69 68 61 54 51 48 43 35 34 37 34 31 34 37 35 38 33 34 34 41 43 39 41 52 66 50 54 47 43 65 82 81 94 97 97 94
77 77 71 82 89 77 69 68 66 59 51 44 51 45 39 34 30 30 31 32 32 38 37 36 43 41 41 42 44 45 44 42 45 43 58 40 46 44 61 75 88 93 96 97 91
77 71 71 66 78 68 64 57 53 52 44 37 36 34 30 30 30 32 33 35 33 41 41 44 43 45 42 39 42 38 30 32 38 39 42 39 39 59 61 79 86 91 96 97 88
75 68 62 67 67 61 58 54 49 37 35 30 28 28 29 30 31 31 31 31 32 32 40 43 43 47 49 34 36 36 34 47 51 55 48 42 48 65 76 83 89 91 93 94 78

GFSSW_prec_cthk_105.txt.gz
RH
65 64 64 63 62 62 62 61 59 61 59 58 56 55 51 49 45 43 42 39 38 36 34 34 32 30 29 28 29 29 29 29 28 29 26 27 26 27 27 28 28 27 25 24 22
64 62 62 60 57 58 58 60 58 57 53 51 53 52 54 52 50 48 45 42 39 37 36 34 33 33 32 31 31 31 30 28 28 27 26 26 27 27 27 26 26 27 26 25 25
63 61 58 61 57 56 57 56 54 52 50 47 47 49 48 52 52 46 45 44 42 40 37 36 35 34 33 34 32 32 31 31 29 28 28 27 27 28 27 26 25 26 26 26 27
57 58 56 55 57 54 54 54 53 50 45 43 42 43 42 44 51 42 43 45 45 45 43 42 39 37 35 36 35 33 33 31 30 29 28 28 27 27 26 25 24 24 25 26 26
50 51 50 49 52 53 54 49 54 52 44 42 38 38 35 35 41 45 45 48 50 49 45 42 42 40 38 35 34 34 33 32 31 30 30 29 28 28 28 26 25 25 26 26 27
41 44 51 51 51 51 54 52 54 53 49 42 39 38 35 35 35 35 37 38 42 42 42 42 41 39 38 40 39 39 38 37 36 35 34 32 30 30 28 27 28 28 26 26 26
24 34 45 51 52 55 56 58 57 58 54 46 42 39 37 43 38 39 40 38 39 39 40 39 38 41 40 39 38 40 40 39 37 35 34 33 33 32 29 29 28 27 26 26 26
17 24 33 47 47 64 56 67 73 72 63 53 47 41 39 44 42 40 36 36 36 35 37 37 36 39 39 39 39 38 37 37 37 36 36 36 34 34 33 31 29 28 27 27 27
17 25 27 34 46 63 71 72 79 65 71 65 56 52 43 43 37 32 32 30 30 32 35 36 36 35 34 39 40 41 38 39 37 36 37 37 36 34 32 31 30 29 28 28 27
18 23 29 31 40 55 73 71 74 72 75 68 56 56 43 40 41 37 35 33 27 26 31 33 35 34 35 40 39 39 39 40 41 37 36 33 31 30 30 30 29 29 29 29 29
24 27 36 35 38 48 58 68 82 79 78 69 66 56 44 48 45 43 39 38 33 32 32 33 32 33 38 37 36 37 38 36 35 33 35 34 33 32 32 31 30 29 28 28 27
26 33 34 40 49 48 53 60 66 67 70 65 70 54 59 58 46 46 50 49 46 40 40 39 35 36 38 40 41 38 37 36 34 35 35 33 30 29 27 25 25 25 25 29 27
26 35 42 45 57 51 61 61 60 58 74 51 59 55 57 59 53 52 60 56 57 54 49 46 39 36 37 37 38 39 39 38 38 34 34 33 26 23 21 20 25 29 30 29 31
33 35 44 52 51 54 68 71 60 73 70 46 42 55 50 49 56 54 54 54 54 49 45 41 38 41 42 41 41 41 37 36 38 41 37 32 31 25 21 22 26 29 33 36 36
37 43 45 47 55 64 74 65 62 72 94 63 42 38 39 42 42 43 52 57 52 48 45 42 40 38 40 37 40 40 40 39 39 38 38 34 31 25 26 23 31 36 38 39 39
45 44 50 57 65 72 66 82 85 97 90 60 62 56 51 45 46 47 47 49 47 49 49 47 48 47 45 45 42 38 38 37 36 38 43 31 29 23 27 30 37 41 42 41 43
49 53 63 64 80 70 80 77 91 88 59 61 60 55 53 49 53 53 51 53 54 59 57 53 48 46 47 46 45 43 42 40 40 47 39 38 39 26 34 42 46 48 47 50 49
61 66 70 77 74 95 79 98 96 76 73 64 62 68 68 57 57 54 53 59 62 63 64 56 58 51 44 40 40 41 42 44 51 51 50 50 44 33 50 49 50 52 52 52 53
66 75 80 76 85 88 81 92 77 77 66 59 60 63 53 50 49 54 70 70 70 73 73 76 69 59 46 44 43 50 53 50 55 55 50 37 35 44 48 48 50 52 51 53 57
86 83 94 86 81 93 91 92 78 66 62 58 60 63 62 56 52 57 71 79 78 78 73 63 55 56 50 44 42 42 32 38 52 47 38 26 34 36 51 52 54 54 56 57 60
92 88 93 97 90 93 96 91 81 67 64 61 62 67 67 66 59 56 62 68 66 66 62 63 56 55 45 40 33 26 25 29 34 45 38 29 30 55 60 62 59 57 56 56 66
95 98 94 98 97 96 90 84 77 68 72 71 61 70 74 79 69 66 72 70 65 62 58 49 46 41 33 31 26 27 32 34 32 32 44 46 32 52 50 51 51 53 59 60 69
97 97 98 97 97 97 87 87 84 75 74 75 78 74 69 75 76 72 72 71 66 60 49 41 40 35 41 40 36 38 34 36 43 48 48 46 33 49 47 43 43 48 62 72 79
97 97 96 98 97 89 89 87 79 81 74 70 74 73 74 75 71 71 69 59 49 43 41 35 35 28 24 31 33 40 40 38 40 47 36 40 32 27 30 43 40 46 61 84 87
89 93 85 95 96 87 84 77 74 74 71 68 63 60 55 56 53 48 46 42 42 40 40 40 39 39 33 29 36 37 37 34 40 40 49 34 32 26 28 40 44 52 73 90 90
87 85 82 85 90 88 80 73 69 65 61 60 53 48 48 45 42 42 40 35 34 45 46 45 46 43 40 32 32 34 30 31 32 32 35 32 30 27 38 41 51 71 84 92 95
80 81 75 88 86 78 74 65 61 60 59 48 40 42 40 36 32 30 30 30 31 34 41 43 41 40 40 33 33 27 27 38 46 58 63 66 49 48 47 53 67 88 94 97 98

GFSSW_prec_cthk_108.txt.gz
RH
69 64 64 59 57 56 51 51 51 52 52 52 51 48 44 44 47 49 48 47 45 41 37 36 36 34 33 33 32 31 30 27 26 27 27 27 26 27 26 26 27 27 26 25 25
62 61 63 59 58 52 52 50 48 47 46 47 48 44 40 39 43 48 48 45 44 43 41 41 40 37 35 35 35 32 29 28 28 29 28 26 26 26 27 26 26 26 26 25 25
54 55 56 56 55 52 50 48 46 46 43 43 40 39 36 35 37 33 37 37 35 39 40 40 39 39 37 38 35 34 32 32 30 31 29 28 27 27 27 26 27 26 26 25 24
41 43 46 49 51 49 48 48 46 45 43 42 40 39 30 33 35 32 33 33 36 36 37 40 43 42 41 39 39 37 35 34 34 33 32 32 31 29 27 26 27 25 26 26 25
28 32 40 44 49 51 47 46 45 46 44 42 42 41 34 30 31 31 32 33 35 36 38 38 39 43 40 35 37 39 37 35 35 33 33 32 31 30 27 28 28 28 27 26 27
17 20 26 35 45 48 49 52 47 49 45 43 43 41 39 33 32 34 32 33 34 34 33 34 35 36 34 36 35 34 36 37 39 38 38 37 34 33 32 31 29 29 29 28 27
16 16 17 19 27 40 47 51 44 54 46 51 45 41 42 38 37 39 38 37 39 37 36 33 31 33 33 34 34 35 34 34 35 38 36 36 34 34 33 31 32 31 30 29 28
15 16 16 19 23 30 38 50 46 50 58 54 53 50 42 41 42 43 41 40 40 39 37 37 35 35 36 33 31 32 32 34 34 36 37 36 32 32 33 32 32 31 31 30 30
15 16 16 20 25 34 33 45 49 50 60 61 59 61 47 42 41 37 35 36 35 37 39 37 36 36 33 34 33 33 29 30 33 34 34 35 33 32 33 33 32 31 32 32 32
17 18 18 22 25 37 39 40 49 56 59 59 59 63 54 48 44 44 36 33 33 38 40 36 39 37 35 33 33 33 29 31 33 34 35 32 31 29 30 30 30 30 30 32 32
18 19 21 26 35 32 43 42 47 53 55 50 58 54 47 44 47 50 51 48 40 38 37 42 38 31 34 35 35 29 29 30 31 34 31 31 31 32 31 30 29 29 30 32 35
18 22 26 29 33 35 45 49 40 46 48 48 52 46 54 61 54 55 53 52 51 45 41 43 43 36 33 34 33 31 32 32 34 36 36 34 31 29 28 28 28 28 29 35 33
14 22 26 35 35 46 41 48 49 54 60 42 37 34 36 39 41 40 52 48 51 51 49 54 54 51 48 43 41 38 38 36 37 36 35 33 28 26 25 24 25 30 33 32 32
12 21 31 35 43 40 47 54 57 57 77 52 37 32 38 43 41 41 52 61 64 62 65 66 61 60 53 49 47 39 39 40 37 36 35 35 28 27 27 26 30 34 36 35 36
17 22 31 34 37 45 42 65 54 69 86 61 40 42 45 51 47 43 47 58 52 56 72 68 58 50 52 46 49 42 40 40 38 38 40 36 35 24 29 28 33 40 40 38 39
20 24 33 41 44 46 62 53 65 86 91 58 57 55 58 54 52 53 47 55 62 72 65 62 57 54 50 48 48 46 45 43 42 45 45 34 31 21 32 34 43 45 41 42 40
27 31 40 44 48 56 49 59 82 92 58 61 56 60 60 53 52 55 51 59 62 69 63 62 60 59 54 55 52 51 51 52 50 51 36 37 32 26 40 47 48 48 44 42 42
37 41 53 53 54 51 60 77 86 57 64 59 59 60 61 54 56 60 56 58 65 65 63 64 70 60 52 51 54 53 57 54 49 41 42 47 39 44 56 57 55 49 48 47 45
41 51 54 57 55 61 77 98 77 71 63 70 71 75 67 57 57 60 64 55 56 60 61 69 68 65 55 49 47 53 52 53 55 49 53 41 43 56 58 59 56 51 47 45 46
56 58 61 65 71 81 82 98 82 76 53 57 58 58 61 54 52 57 67 69 66 65 69 76 77 72 72 65 57 56 56 59 60 58 43 29 28 35 63 63 55 52 46 46 46
65 74 73 80 90 83 83 92 84 62 60 58 59 61 61 64 59 59 69 73 78 82 81 81 75 67 64 61 58 52 48 49 51 48 39 29 23 54 60 56 51 46 43 42 41
61 75 82 96 94 98 88 87 70 75 74 68 66 65 70 75 64 62 62 68 70 70 69 70 63 63 61 55 49 43 37 28 32 27 34 33 31 53 50 40 35 33 34 34 36
70 80 90 94 90 90 90 90 79 75 72 69 67 65 73 83 86 76 73 72 73 70 69 64 59 53 46 46 42 38 31 34 39 36 34 36 33 53 44 34 35 33 31 34 37
92 94 97 96 96 84 89 94 89 79 76 75 78 77 80 80 85 84 82 76 76 72 68 57 50 38 29 42 38 38 35 30 32 41 29 28 25 34 40 34 38 36 34 37 42
97 96 89 93 95 95 93 93 87 84 75 72 72 74 76 76 74 77 70 66 65 64 58 54 48 38 31 30 30 28 31 32 33 33 38 28 33 29 28 28 39 37 35 40 50
96 91 87 89 91 94 91 84 77 75 71 68 68 63 63 60 55 58 56 52 51 53 49 46 45 39 35 32 30 32 27 25 28 32 32 30 29 25 36 41 41 40 42 54 74
89 88 87 95 93 92 86 76 73 71 68 61 59 55 54 53 49 45 42 42 39 44 46 44 44 40 38 30 30 30 25 24 27 35 42 53 49 66 68 60 51 47 56 81 93

GFSSW_prec_cthk_114.txt.gz
RH
73 72 72 70 69 68 67 63 59 54 51 47 42 36 31 28 26 24 21 21 27 31 34 38 40 39 38 36 36 35 34 33 31 32 31 30 29 27 26 24 26 27 26 26 27
76 75 71 69 65 62 57 54 49 42 41 37 38 33 32 27 22 15 13 16 20 23 24 27 27 28 29 30 32 35 36 36 35 34 34 30 30 29 27 26 27 27 28 27 27
77 75 70 63 56 49 45 43 39 37 35 33 34 31 29 27 19 17 18 19 20 20 23 23 24 21 22 22 22 24 26 34 38 37 35 33 33 32 32 29 29 28 28 29 27
67 60 52 42 37 31 33 34 32 34 35 33 34 35 32 32 23 26 21 21 23 23 24 24 22 23 24 24 25 23 21 22 25 34 36 34 33 35 35 35 35 32 30 29 30
32 26 21 17 16 15 22 24 26 32 35 34 35 35 35 36 26 28 24 24 25 27 27 25 26 26 25 24 24 24 23 23 21 20 23 25 24 29 31 35 35 35 35 33 32
15 14 13 13 14 14 17 21 24 25 31 34 35 38 34 35 26 29 21 24 28 28 29 29 28 28 27 26 25 25 25 24 23 22 21 22 20 22 24 26 27 29 31 31 32
11 12 12 12 12 13 18 20 27 24 30 33 33 34 34 27 25 29 26 25 28 29 32 32 33 32 29 28 26 25 23 22 23 24 24 26 21 19 18 21 23 26 26 30 32
16 18 17 18 14 16 18 19 24 31 28 30 35 35 33 24 25 22 25 32 28 29 32 35 37 34 33 32 29 31 29 27 22 24 24 27 20 21 22 21 21 22 25 28 29
23 20 19 16 16 19 21 20 26 35 34 38 39 37 29 29 25 27 28 29 32 32 32 35 35 34 35 34 32 32 31 31 23 26 29 30 24 27 27 25 23 24 25 29 31
18 18 19 19 20 22 22 27 30 37 37 39 38 38 30 33 35 33 25 28 32 29 29 32 32 31 33 38 36 35 33 27 27 29 43 43 31 30 29 30 27 26 26 28 34
20 18 19 20 24 25 31 37 41 41 37 35 31 29 28 35 31 33 34 33 30 26 23 30 33 32 35 39 40 38 37 35 28 26 40 44 39 33 35 34 30 28 28 28 33
18 16 17 18 22 28 36 36 37 45 39 34 35 27 26 25 28 28 42 37 33 27 29 32 30 32 38 38 42 40 41 40 40 34 37 36 41 30 33 31 28 30 33 32 37
15 16 18 19 22 27 27 32 38 38 45 35 27 28 26 33 28 26 29 35 41 39 39 45 31 35 38 39 42 39 44 42 41 36 38 43 44 38 34 33 32 33 36 44 47
13 14 16 18 25 26 31 33 38 44 56 29 28 30 32 31 34 30 37 37 41 43 44 43 38 40 47 44 47 52 46 56 54 53 58 46 53 47 34 30 34 33 45 49 51
11 15 16 18 24 26 26 33 42 53 55 19 29 35 33 33 25 29 30 39 36 39 55 41 50 47 56 51 56 62 62 66 57 60 64 56 56 44 38 36 41 45 55 55 53
9 12 16 20 26 28 30 39 52 69 57 26 27 29 31 32 32 29 35 36 46 49 54 54 54 60 66 65 65 54 47 55 64 63 70 43 53 48 40 43 41 66 65 59 56
9 12 14 22 24 30 36 47 71 62 29 27 28 33 32 33 36 39 39 40 43 59 60 58 54 54 69 66 61 57 59 66 84 74 60 51 53 43 72 63 70 74 80 65 64
11 13 17 27 30 33 45 61 69 28 31 23 31 32 39 41 40 49 44 44 50 55 60 65 62 58 66 62 61 65 67 85 83 76 64 80 69 69 78 85 86 84 78 74 62
17 22 30 28 38 42 58 70 46 26 23 34 39 46 37 41 46 48 47 44 52 56 57 68 68 57 58 63 61 61 64 68 79 74 72 63 72 90 85 84 82 82 83 77 70
29 36 41 40 45 55 76 68 39 31 29 33 53 58 57 46 57 56 54 51 46 54 61 63 68 66 70 58 55 55 58 70 90 94 73 56 54 84 84 85 85 82 77 72 68
35 48 47 54 56 75 84 63 52 49 44 49 54 59 57 58 69 63 66 53 51 54 56 66 76 77 75 65 66 66 60 57 62 67 87 67 59 76 84 88 86 81 77 70 61
36 59 56 66 77 76 67 69 50 50 55 52 49 56 58 66 71 62 67 65 60 61 65 76 79 85 75 69 63 58 61 64 66 63 66 65 62 70 75 78 70 62 58 56 45
46 61 63 70 85 73 71 67 65 71 54 53 49 52 67 74 71 65 63 62 67 74 80 80 88 81 72 76 62 60 57 59 66 70 72 75 65 80 76 76 74 68 65 56 44
73 80 83 76 82 72 76 77 76 75 59 68 69 74 71 68 69 64 63 71 71 75 76 77 78 78 85 75 65 69 57 50 56 68 60 61 54 53 76 72 61 58 59 50 43
78 89 71 75 75 84 82 75 86 88 64 85 88 80 73 72 79 84 77 77 70 74 75 76 74 74 68 64 63 52 51 56 54 51 58 47 50 39 44 50 53 51 47 47 40
77 75 77 85 82 95 85 88 85 85 86 91 83 80 75 81 79 82 74 76 80 78 79 76 78 71 65 58 53 50 46 45 39 41 37 37 42 36 34 45 46 46 41 47 49
76 67 77 71 72 93 80 85 80 68 74 83 84 85 85 81 80 76 74 76 71 77 78 78 75 69 63 52 45 45 37 37 35 31 30 38 41 49 50 52 52 56 63 65 64

GFSSW_prec_cthk_117.txt.gz
RH
67 67 68 68 70 68 67 63 60 59 54 48 41 34 33 25 20 14 13 14 16 17 20 24 32 35 36 37 35 35 35 36 36 35 31 30 28 28 26 26 25 26 27 28 27
71 71 72 71 71 69 64 61 53 47 42 38 33 28 27 23 17 13 13 14 17 18 17 18 20 20 23 26 25 25 25 22 27 35 35 34 32 29 29 27 27 28 28 29 30
76 74 74 74 72 68 57 50 42 36 33 31 27 26 26 24 18 16 16 16 16 17 19 18 18 19 18 19 20 21 20 21 20 23 26 29 34 34 35 34 33 31 29 28 28
72 70 67 62 56 48 39 31 25 25 23 21 25 24 24 27 22 19 20 18 18 19 21 23 21 20 20 20 21 21 20 21 20 20 20 21 21 21 26 31 34 36 35 34 32
56 53 49 41 33 24 20 17 23 23 22 19 19 22 22 24 16 16 19 20 19 20 23 24 22 22 23 22 22 22 22 22 22 21 20 19 18 18 19 19 20 25 28 29 30
36 30 25 20 17 16 14 14 14 19 21 18 19 23 23 24 13 23 21 20 19 27 28 26 26 26 24 23 25 24 24 23 23 22 22 22 18 21 19 20 19 19 20 19 20
16 14 13 12 12 12 14 12 13 15 21 23 22 25 27 16 12 13 21 26 21 21 22 26 27 28 27 26 27 27 25 23 22 23 25 28 18 20 21 22 20 19 20 20 20
18 15 15 14 20 17 15 16 19 20 24 23 27 31 30 15 18 19 20 24 29 26 29 28 29 30 30 31 31 32 30 28 24 25 24 34 20 23 26 25 23 22 21 20 21
16 20 20 22 19 21 21 23 27 28 26 29 30 33 25 22 22 25 27 29 31 33 32 30 30 30 32 34 35 33 32 28 23 27 29 42 28 27 30 32 29 27 26 26 28
22 26 28 21 20 23 25 24 29 30 29 31 33 34 26 27 26 28 28 27 34 37 33 29 26 27 29 32 36 30 31 27 24 26 32 30 32 33 33 35 34 30 30 30 33
24 20 24 27 30 25 27 31 31 35 38 29 26 25 23 23 29 38 34 33 28 29 30 27 30 31 26 27 28 30 32 32 28 27 38 33 27 34 37 39 38 37 35 33 43
29 22 25 21 27 26 31 33 35 41 39 31 30 32 25 22 29 29 32 34 33 31 30 28 25 25 27 30 34 36 36 32 28 25 31 29 30 28 33 40 43 42 43 41 50
25 24 24 26 28 29 33 30 35 37 42 31 22 23 25 30 27 23 27 29 36 42 42 32 29 33 37 40 45 43 46 44 42 39 38 38 36 28 28 28 27 32 33 36 53
23 24 26 27 27 29 31 29 37 40 46 30 25 28 33 34 34 27 30 30 34 36 41 40 41 43 44 45 45 42 47 57 57 61 61 45 61 46 37 33 33 40 51 55 67
24 22 21 24 33 36 29 28 37 43 50 19 30 33 34 30 26 27 28 33 30 32 44 30 38 44 52 49 49 50 58 56 55 61 71 52 68 41 36 39 48 65 71 76 70
26 24 25 23 28 35 32 31 41 49 56 23 26 28 30 32 34 31 32 38 37 42 46 38 37 47 47 51 57 60 66 60 61 62 70 41 65 41 42 50 68 72 82 79 80
26 25 25 25 29 34 39 52 51 55 22 19 21 28 31 33 36 36 36 39 42 43 43 46 42 46 56 62 59 68 70 76 74 73 59 54 57 45 62 71 80 70 75 84 82
20 19 17 20 26 42 44 50 56 28 23 18 27 32 33 35 40 42 39 43 40 43 47 54 60 56 61 61 69 72 69 83 82 77 69 61 65 82 90 83 87 88 79 76 78
22 18 17 17 23 40 50 63 44 27 22 22 15 20 24 23 45 45 44 49 48 50 53 59 59 52 53 56 63 63 70 68 72 71 78 60 62 82 83 96 91 95 95 94 90
27 24 21 33 37 50 65 53 36 24 20 26 37 39 34 39 52 51 44 46 52 52 56 61 66 58 55 51 55 64 64 77 89 92 84 66 63 94 98 96 95 91 88 84 82
34 36 26 30 53 58 68 60 40 34 40 48 38 41 44 45 47 64 61 58 74 62 55 56 60 63 62 62 60 65 66 67 76 84 91 84 71 74 84 90 82 82 73 65 60
41 48 34 47 66 81 79 54 45 41 49 40 51 52 53 49 55 54 60 79 78 60 61 62 70 81 75 68 64 65 65 70 81 68 70 73 67 67 75 87 77 69 62 60 61
57 45 44 49 73 70 47 53 56 49 50 53 55 57 59 54 55 50 58 63 70 67 65 67 81 83 77 76 71 75 67 70 72 73 77 84 80 71 75 77 78 72 70 66 62
71 62 58 59 66 65 73 62 64 58 55 56 55 69 72 56 52 59 60 63 63 61 65 67 80 80 79 85 78 75 70 65 66 79 66 66 64 61 73 75 80 78 72 64 58
74 84 64 58 60 65 69 61 63 70 67 70 68 77 67 58 66 76 75 71 65 69 70 74 77 76 77 74 76 82 66 57 61 61 68 60 65 55 64 71 70 65 63 62 55
70 80 92 67 72 78 74 69 64 68 75 76 71 69 84 69 84 87 81 81 79 77 75 74 81 77 77 72 71 70 60 56 54 56 59 54 53 68 67 67 65 64 61 55 53
61 75 81 85 83 86 72 79 73 93 88 77 78 91 89 79 89 89 82 81 80 75 77 78 81 82 82 67 63 61 53 54 50 53 55 66 68 62 60 61 61 60 55 50 48

GFSSW_prec_cthk_120.txt.gz
RH
58 60 58 57 59 59 57 58 56 54 50 44 40 32 27 24 17 14 13 12 14 16 15 15 17 26 35 37 32 30 27 29 32 34 32 32 31 30 30 29 29 29 29 30 31
72 68 66 62 61 61 59 58 55 50 42 34 29 26 23 20 15 10 12 14 16 16 15 17 16 15 17 20 22 21 22 21 20 21 23 31 33 32 31 32 31 30 31 32 32
75 72 70 65 63 62 60 52 47 41 29 22 21 19 19 15 12 13 14 17 18 16 17 18 18 18 17 15 16 17 16 18 17 18 19 18 19 22 25 31 35 34 33 33 33
67 65 63 60 53 54 46 40 33 27 19 16 16 18 17 14 14 14 15 14 15 18 19 21 19 19 19 18 18 18 18 18 17 19 19 17 16 16 19 18 20 25 28 29 31
61 56 54 53 47 40 37 31 24 19 17 16 16 17 15 16 10 8 11 14 18 17 19 22 21 21 21 20 20 20 19 20 20 20 20 18 17 18 16 15 17 18 19 20 21
46 44 44 42 33 26 25 20 16 15 14 14 16 17 18 17 8 13 15 15 16 17 22 25 25 26 27 23 23 20 21 21 21 22 23 20 19 20 16 18 17 17 17 18 20
24 23 24 25 20 18 15 14 14 12 12 16 21 22 19 11 9 11 13 16 19 19 20 26 27 28 28 29 27 25 25 24 24 25 27 22 20 20 19 21 20 19 19 19 20
19 18 18 17 17 16 16 18 16 15 18 21 26 26 24 11 13 19 20 18 20 24 25 28 30 30 31 32 30 30 29 29 26 27 27 25 20 22 20 20 19 20 21 22 23
29 24 21 25 27 21 19 20 19 21 24 27 27 33 24 18 21 22 23 23 22 26 30 36 34 32 34 34 35 32 33 28 27 26 28 26 20 21 22 23 22 23 25 25 27
33 27 23 20 17 18 19 22 26 30 30 31 33 36 26 25 24 26 23 23 27 30 31 32 33 31 31 33 41 34 34 32 33 31 28 29 21 19 23 25 26 26 29 32 36
30 28 24 25 22 23 24 24 32 38 38 29 28 24 21 20 26 32 32 31 31 32 34 32 35 35 26 28 28 32 35 34 31 33 29 28 24 21 21 21 25 34 35 42 44
31 27 24 24 26 25 32 27 30 36 36 30 24 26 20 22 26 20 32 32 31 30 32 36 38 29 28 29 32 36 39 37 29 34 39 35 30 29 24 23 22 33 43 51 58
33 30 27 29 28 29 27 27 32 39 40 33 29 32 26 26 30 23 30 36 36 34 30 35 33 31 34 36 38 36 42 39 38 38 41 45 37 36 24 30 30 32 39 56 69
33 32 30 32 31 34 29 25 36 43 46 32 29 29 33 34 35 29 27 31 36 35 36 44 37 34 35 42 42 42 46 46 47 47 49 42 59 36 26 35 34 41 43 54 65
33 33 34 31 35 33 24 27 38 40 28 22 29 34 31 32 27 26 26 31 30 29 34 40 39 42 47 38 52 42 54 58 53 55 63 36 75 41 40 34 47 53 57 59 64
36 35 32 30 32 31 31 38 40 41 32 23 31 34 34 30 30 30 31 33 33 37 39 39 36 42 39 40 49 52 56 61 62 61 72 48 63 43 64 70 69 72 78 82 75
31 35 36 36 33 33 41 48 48 50 22 23 26 33 34 35 37 36 37 41 43 50 44 34 34 36 43 45 55 63 71 89 82 76 74 55 59 71 80 82 84 85 79 89 83
34 30 27 25 23 29 44 57 57 29 27 23 26 28 32 39 43 41 45 46 39 42 47 50 46 41 46 51 56 63 70 91 91 81 67 56 59 73 81 81 82 90 95 87 97
28 30 29 23 21 32 46 65 41 30 26 25 19 21 23 25 34 39 47 47 40 45 53 52 47 43 45 49 53 61 67 67 76 76 84 62 69 78 79 87 96 96 97 98 93
31 28 22 23 30 35 53 46 35 24 21 27 30 28 29 26 29 34 41 48 48 49 51 51 52 54 53 51 50 59 64 73 87 92 89 69 65 80 84 78 85 90 94 94 88
40 37 25 26 47 58 61 47 37 32 27 30 26 34 35 38 38 45 45 52 51 53 55 60 66 64 60 56 57 57 61 61 75 85 91 85 68 69 69 74 76 78 78 80 78
52 46 34 43 60 74 64 41 37 40 41 34 36 37 44 47 50 52 55 56 53 56 63 71 79 76 68 64 57 59 62 68 86 84 80 80 64 63 66 70 76 78 78 78 77
63 51 45 59 69 55 53 44 47 41 48 47 49 47 47 47 61 54 55 59 56 55 58 71 79 80 74 71 67 69 67 69 75 79 79 89 68 66 72 77 78 84 83 86 80
76 71 62 56 79 59 52 48 51 40 61 64 59 57 58 64 61 72 65 61 56 55 61 65 77 78 71 68 68 72 76 74 77 89 85 82 68 65 73 77 76 81 86 78 75
84 77 62 64 55 59 59 53 51 54 54 56 56 57 69 68 63 70 74 66 53 60 71 78 79 78 77 74 77 90 91 81 75 69 74 66 70 75 72 76 79 77 72 73 70
81 68 72 67 52 54 63 49 45 39 58 64 66 64 73 70 66 75 80 64 59 74 80 80 85 79 76 73 73 81 79 69 61 59 61 60 79 78 76 74 74 74 73 71 67
81 69 75 76 74 72 57 43 46 53 55 51 62 83 75 66 78 81 85 82 78 81 84 85 85 83 83 70 70 73 68 62 63 71 68 71 73 75 74 75 77 80 75 67 59

GFSSW_prec_cthk_123.txt.gz
RH
53 54 52 51 50 48 48 47 47 47 44 39 35 29 21 17 13 11 13 16 17 17 14 14 13 15 20 30 35 35 32 29 31 35 33 32 32 30 30 29 28 28 29 30 31
58 60 60 59 56 55 51 50 47 46 41 36 29 21 15 13 12 11 15 16 19 18 12 13 14 13 14 16 17 18 21 21 20 20 19 24 29 31 31 31 30 30 31 31 31
63 60 61 60 56 56 50 47 42 40 36 31 24 18 14 12 12 16 16 17 17 14 14 15 16 16 15 15 16 16 16 17 16 15 16 16 17 20 22 23 25 29 31 33 30
62 60 58 58 55 50 46 42 39 37 33 26 20 15 14 13 12 15 14 15 13 11 14 17 17 17 17 18 17 16 17 18 17 17 17 17 16 17 19 16 18 21 22 23 26
51 51 45 46 49 46 43 40 35 30 26 20 16 14 13 14 10 10 10 11 10 15 17 17 19 19 20 20 22 22 20 19 19 18 18 18 18 19 16 16 19 19 19 19 18
45 43 41 38 41 38 34 32 24 19 18 16 14 13 16 17 9 12 12 13 13 14 14 19 20 22 22 22 24 23 25 24 23 20 21 20 20 20 17 19 20 20 19 19 19
38 34 30 27 27 23 21 20 18 16 15 15 17 19 18 10 11 12 10 10 16 15 15 20 23 24 26 28 28 27 26 26 25 25 23 22 21 20 21 22 21 21 21 21 21
37 35 29 26 22 20 18 17 17 16 16 16 19 25 20 15 16 19 18 16 15 20 20 26 27 29 29 29 29 32 33 33 26 24 21 23 26 24 22 22 22 22 22 21 20
36 36 33 33 26 23 21 23 21 22 21 28 26 30 24 21 22 22 20 22 19 19 22 31 34 34 32 34 38 34 37 32 29 25 26 27 26 26 24 22 20 20 21 22 22
29 30 31 35 37 34 29 22 21 24 29 29 32 32 27 23 27 25 23 23 26 26 29 33 38 38 34 36 43 34 35 34 34 29 31 30 26 24 22 21 19 18 20 26 28
28 26 25 26 27 28 27 24 25 29 31 24 25 26 28 30 30 27 30 31 30 34 34 35 40 40 32 33 33 35 36 37 36 33 34 31 27 28 27 27 23 21 23 27 36
34 31 27 25 25 24 23 22 28 34 32 25 24 26 21 24 27 22 28 34 32 33 33 36 40 32 31 32 34 35 36 39 38 36 37 34 28 26 27 27 31 29 29 31 34
36 34 34 30 29 26 25 24 30 36 39 30 31 31 27 28 31 27 24 34 36 34 33 37 34 33 35 35 37 36 41 38 44 42 41 39 32 27 25 32 35 35 36 43 45
34 33 31 30 31 31 32 31 33 40 46 32 33 33 35 35 38 32 28 25 36 36 36 39 31 30 34 39 37 45 38 41 47 54 54 46 50 31 34 45 45 48 49 50 53
35 33 35 32 34 30 34 35 40 40 29 24 31 33 33 34 32 31 29 27 31 34 36 37 32 35 41 35 43 49 46 48 48 52 49 48 65 36 51 55 54 54 57 61 62
37 37 37 36 36 31 37 43 44 42 27 22 32 36 36 33 30 32 34 33 32 36 39 38 36 40 38 41 39 44 48 51 53 59 73 45 68 53 63 64 59 63 65 67 74
38 44 41 41 34 35 43 47 48 44 24 25 34 34 34 36 37 37 38 37 37 44 44 41 41 36 41 49 45 51 60 76 79 73 70 55 61 63 65 67 70 73 73 75 82
34 39 35 30 29 37 45 55 60 30 28 32 34 38 45 40 40 41 44 46 41 42 44 45 43 36 38 44 50 57 63 82 85 82 70 60 61 60 67 70 71 73 77 85 90
38 37 35 28 26 38 52 60 42 31 27 27 26 31 32 34 39 44 49 46 45 45 49 50 47 39 41 44 51 58 67 67 82 78 81 61 67 69 74 73 72 74 77 83 88
39 37 31 28 29 40 60 51 41 32 29 30 29 23 27 27 30 32 37 35 38 43 45 46 52 48 47 49 52 56 64 73 86 93 88 66 65 71 74 76 77 77 75 72 74
45 40 30 28 39 47 56 43 33 31 33 34 34 34 30 35 36 38 43 45 48 45 48 52 52 53 58 59 65 65 65 69 81 86 89 83 65 67 72 70 75 75 75 73 69
53 48 37 37 56 55 50 29 24 26 31 32 36 39 34 35 43 43 43 46 52 63 67 65 73 78 68 74 70 64 62 70 84 79 85 84 64 68 71 74 79 78 74 68 70
61 53 50 57 63 58 44 38 37 36 41 40 41 43 39 40 47 43 40 43 48 54 62 69 79 83 69 78 75 72 67 68 73 78 77 87 75 79 81 86 86 80 75 72 74
73 67 61 69 63 58 50 44 46 36 41 45 49 56 53 51 59 69 61 54 54 55 56 63 67 63 58 63 68 74 71 74 78 89 83 82 79 79 88 86 83 81 81 83 84
82 70 66 74 61 63 65 51 51 45 43 49 53 48 52 68 73 66 67 70 66 67 75 78 73 62 63 70 76 77 80 82 85 84 95 83 78 82 80 84 84 86 88 92 87
83 72 74 66 64 68 71 65 51 36 44 47 54 42 62 71 56 59 67 68 64 75 74 76 75 70 79 79 79 84 82 81 80 82 81 73 76 76 77 80 87 91 92 86 82
84 77 79 70 76 84 62 51 48 46 49 43 48 55 62 47 73 73 73 76 74 72 89 84 86 92 94 83 77 73 70 73 71 73 74 75 71 76 81 82 85 84 82 81 80

GFSSW_prec_cthk_126.txt.gz
RH
47 47 46 48 50 48 45 44 44 42 38 35 32 30 26 20 13 10 10 12 14 16 16 15 15 14 15 17 21 30 35 37 35 36 34 34 34 33 32 31 32 31 31 30 30
52 51 53 52 54 54 48 47 44 39 35 32 30 28 24 17 11 11 14 15 16 19 17 13 14 14 12 13 15 17 21 21 19 19 19 21 25 29 32 29 29 30 31 31 31
58 58 55 55 55 53 49 45 44 38 34 31 28 26 21 15 11 14 16 15 18 18 15 13 14 14 14 14 15 16 16 15 15 15 16 16 17 18 19 19 25 26 27 27 25
65 62 56 54 53 50 46 43 40 36 33 29 26 24 19 14 11 14 14 15 15 16 12 14 15 15 15 16 15 16 16 17 16 16 17 17 17 19 18 17 20 20 20 20 22
62 60 54 51 48 46 39 38 37 31 32 30 21 21 17 14 10 10 12 13 14 14 14 17 18 16 17 19 19 19 19 19 19 19 19 19 18 20 19 19 20 20 20 19 17
57 55 50 47 43 38 35 33 32 29 28 26 17 16 15 16 12 12 12 12 14 16 15 16 17 17 20 20 21 21 21 22 21 21 23 24 23 22 22 22 22 21 20 19 18
56 51 44 39 35 31 28 25 24 23 23 21 17 15 15 12 11 12 12 13 15 16 14 18 21 20 21 23 24 24 24 25 23 23 23 22 22 23 24 24 23 23 22 20 19
48 44 41 34 30 31 27 24 23 22 22 20 19 18 14 13 13 14 16 20 20 17 19 19 24 26 27 27 29 29 29 31 25 23 21 22 27 23 23 24 23 23 21 21 21
46 42 39 34 34 32 31 30 27 24 21 20 21 22 18 18 22 25 24 25 25 21 22 27 31 28 29 32 38 36 40 33 28 24 27 28 32 30 27 26 24 22 21 20 19
34 33 31 26 30 30 29 29 31 31 28 26 26 27 22 22 27 29 29 28 28 28 28 31 38 37 34 37 41 38 37 36 36 29 27 31 30 30 29 28 26 26 27 26 27
33 28 25 24 26 26 25 26 27 29 31 26 24 21 21 24 27 26 29 32 33 35 36 36 45 46 36 35 37 39 39 39 34 29 34 35 35 34 30 26 28 27 26 33 33
37 30 25 23 26 26 24 22 23 28 27 21 20 23 21 23 24 26 30 32 34 39 40 41 45 40 38 38 39 40 40 40 34 34 36 36 37 34 31 33 35 34 35 38 39
38 33 30 29 26 25 27 26 30 31 30 23 25 26 23 24 28 27 24 29 37 38 39 42 37 32 36 39 40 39 42 39 42 38 38 40 38 36 38 38 41 42 41 43 45
44 37 34 35 33 31 32 33 30 36 40 25 30 32 34 33 34 34 32 26 32 35 37 38 32 34 37 36 32 40 34 42 43 48 57 44 50 38 47 46 46 48 48 48 49
44 40 36 33 29 32 36 34 36 35 31 25 32 34 37 35 37 37 32 29 30 33 34 35 35 37 38 34 38 38 40 45 49 52 49 51 51 45 50 48 52 53 52 53 55
47 42 38 35 31 36 38 42 43 40 28 23 36 40 40 38 39 37 34 33 30 35 37 36 36 35 34 37 40 43 47 50 53 52 65 53 58 40 48 48 52 55 57 57 58
48 46 46 46 37 36 45 45 46 42 24 27 36 39 42 42 40 39 41 41 42 46 44 41 39 36 37 40 42 46 55 70 72 73 68 55 60 42 51 50 52 56 63 63 64
47 44 45 38 36 45 56 56 57 29 30 36 36 41 45 42 42 44 47 46 44 46 49 49 47 40 42 45 49 54 60 76 78 72 63 61 64 48 50 54 57 61 63 68 70
44 40 43 36 34 39 54 60 41 36 32 37 30 36 38 40 49 48 52 51 47 48 54 55 50 41 42 47 52 61 69 67 81 79 83 64 53 54 57 58 59 60 67 70 70
48 45 40 38 34 43 57 44 40 31 28 33 27 25 29 31 35 35 35 32 30 33 35 50 59 51 49 48 52 57 67 77 85 88 82 64 59 56 61 61 66 71 72 76 77
53 47 43 39 40 50 55 44 35 34 35 35 36 37 37 41 43 41 44 38 42 45 49 55 60 57 58 55 57 68 74 78 83 85 90 82 57 53 55 62 71 73 81 83 83
58 55 45 46 50 43 43 33 31 30 31 31 36 37 35 35 41 44 44 40 38 42 50 61 72 69 72 62 71 70 65 72 90 84 84 85 55 54 60 69 73 82 85 85 86
62 61 56 58 55 46 30 29 34 32 35 31 32 32 28 30 38 36 33 28 25 29 43 50 74 91 82 77 77 69 62 71 81 83 71 87 66 72 76 82 84 87 88 86 85
69 69 66 70 50 43 39 38 41 32 33 36 46 47 44 43 44 48 49 51 53 63 70 70 78 77 76 67 69 69 58 65 77 90 73 67 69 79 84 87 91 90 88 88 89
81 72 59 63 58 59 60 48 44 41 38 46 45 41 49 54 51 54 52 53 58 60 79 86 81 80 75 71 71 63 61 70 78 77 86 67 74 76 77 78 84 88 87 88 90
86 76 72 63 54 65 70 48 53 40 50 50 48 47 57 53 45 41 48 48 65 61 68 78 80 81 77 74 78 73 76 82 83 83 80 76 74 78 81 79 80 82 86 90 92
94 85 76 71 70 71 56 48 45 49 52 48 57 58 58 43 54 48 52 72 73 77 75 81 82 83 90 86 83 81 69 76 73 72 71 74 71 77 81 82 82 83 86 89 84

GFSSW_prec_cthk_132.txt.gz
RH
37 38 39 40 40 40 40 41 40 39 36 33 32 29 26 23 22 18 19 14 12 12 13 12 12 11 11 13 15 18 19 23 28 30 29 31 33 35 34 33 33 32 32 31 31
41 40 41 43 44 43 43 42 41 40 35 33 31 30 26 22 20 19 18 15 14 14 14 15 13 11 13 14 14 15 17 22 19 24 26 26 25 29 31 31 33 32 29 26 24
47 47 48 50 49 47 45 43 40 38 33 31 29 24 23 21 21 20 19 16 16 17 16 16 13 12 14 15 15 15 15 16 15 16 16 16 16 15 17 18 20 21 21 21 21
54 53 52 50 49 49 46 42 38 38 32 29 23 23 22 24 21 19 17 16 16 17 17 14 14 18 18 17 15 15 15 15 14 15 15 16 16 16 17 18 17 17 17 18 19
60 55 56 54 52 53 46 41 41 36 32 26 22 22 22 26 23 20 20 20 18 16 14 15 17 19 19 18 17 17 16 17 17 17 17 17 18 18 19 19 18 19 19 21 22
67 65 59 57 51 48 46 41 37 35 29 24 23 21 22 23 20 19 19 18 18 19 16 16 18 19 18 18 18 19 18 18 18 17 18 18 20 19 20 20 21 21 24 24 25
70 67 61 59 56 52 49 45 37 31 28 25 23 20 19 19 17 18 17 17 17 18 20 20 21 19 21 22 22 23 19 17 20 18 19 18 19 19 22 20 21 23 27 26 27
71 68 64 65 59 55 52 46 37 31 29 29 27 23 22 17 17 18 18 15 14 15 21 22 23 23 24 26 27 24 22 18 23 21 21 20 18 23 25 25 25 25 28 29 28
69 66 63 57 54 52 50 46 37 33 34 29 30 26 26 22 22 22 24 23 20 22 23 24 27 28 28 28 29 31 22 28 25 23 24 22 20 23 25 26 29 28 33 33 32
67 63 61 58 55 51 46 43 39 37 35 31 30 30 26 25 27 27 25 26 24 23 25 27 31 30 30 32 25 26 30 31 30 28 28 27 26 25 29 29 28 30 33 34 33
72 64 57 52 47 44 41 36 35 37 31 29 28 27 25 26 22 26 27 27 27 27 27 33 30 30 28 30 33 34 33 33 33 33 32 29 29 30 32 31 30 34 33 35 34
64 57 51 47 45 42 38 39 34 33 31 28 24 26 25 21 20 21 24 29 31 27 33 32 32 32 35 37 36 37 36 34 32 32 34 32 33 32 33 32 33 34 35 36 36
66 62 57 48 47 43 38 36 33 38 41 29 27 26 26 24 21 19 24 29 29 29 31 31 33 32 36 37 35 34 34 32 34 33 31 34 30 35 35 34 35 36 37 38 38
72 64 57 54 52 49 48 43 38 32 34 28 31 35 35 31 29 31 25 27 30 29 33 34 32 35 35 34 33 35 35 32 33 37 37 42 28 31 38 34 34 37 39 39 41
73 62 56 53 48 47 43 37 35 35 36 31 36 37 41 37 41 41 35 29 26 31 32 30 34 35 37 34 35 34 35 36 39 42 39 40 43 31 36 35 37 37 40 41 43
68 66 62 53 48 49 43 43 41 43 34 31 41 45 45 42 44 42 39 39 39 36 34 32 35 34 32 34 35 40 41 44 44 41 39 36 40 26 41 39 39 38 40 42 45
75 65 51 47 48 47 46 52 49 44 33 35 41 43 44 41 45 45 40 41 40 42 39 37 36 35 37 40 41 43 48 44 44 52 40 44 42 33 45 38 38 42 42 45 48
76 72 63 53 50 53 51 50 52 33 32 40 38 43 40 42 44 48 48 44 42 40 42 40 41 41 42 41 45 49 48 51 52 43 44 54 45 39 40 39 41 44 47 48 52
79 79 66 60 60 63 73 70 39 34 33 33 32 31 35 43 44 47 48 50 49 49 53 57 49 46 45 47 47 62 56 53 59 55 59 46 40 50 50 46 47 47 50 53 57
73 77 80 66 58 66 68 50 40 44 47 44 41 41 38 37 43 49 54 56 55 52 55 57 42 36 45 41 45 46 55 59 64 69 61 45 46 49 57 57 56 54 55 59 62
61 62 61 62 67 69 75 60 50 48 42 39 37 36 36 41 36 41 36 50 51 50 44 46 41 38 48 43 42 60 53 59 60 63 71 63 45 56 56 58 57 59 63 65 68
60 63 55 51 56 56 54 52 51 46 43 38 36 36 32 36 37 39 42 50 50 51 46 47 49 48 50 60 56 52 47 59 81 70 83 79 51 57 52 55 59 64 64 69 74
69 69 65 62 58 49 37 37 39 39 34 38 35 33 31 31 35 32 33 30 32 35 39 43 38 45 35 51 57 53 48 62 85 97 87 85 61 68 61 54 57 65 69 74 77
84 78 77 70 54 48 41 37 39 38 36 39 37 35 33 32 33 31 34 40 41 41 40 45 46 52 44 42 61 70 70 72 80 87 70 66 61 54 69 63 66 69 75 81 81
98 90 66 66 56 54 52 40 39 41 43 40 37 37 40 43 40 41 40 41 40 41 44 49 48 52 53 54 59 58 60 65 69 67 80 54 65 46 63 68 75 85 83 84 83
99 95 74 61 59 61 55 42 40 43 44 45 40 42 38 39 39 45 49 49 43 44 47 50 44 48 43 43 51 52 44 47 54 56 65 63 59 59 71 71 80 82 79 80 81
94 95 85 76 70 71 49 49 50 53 50 47 47 50 52 48 52 54 53 52 48 53 58 54 58 62 53 55 62 60 30 39 44 49 56 71 58 72 71 72 72 72 72 74 76

GFSSW_prec_cthk_135.txt.gz
RH
32 33 34 34 35 34 35 35 34 34 32 30 29 27 24 22 22 20 19 18 16 13 12 12 13 13 11 12 11 13 17 21 30 31 33 28 28 28 30 31 31 31 32 31 31
35 36 37 37 37 37 36 36 35 33 31 29 27 26 23 20 21 20 19 16 16 15 15 16 16 14 13 13 12 12 18 23 28 26 27 28 28 28 31 32 33 33 34 34 32
37 38 38 39 40 40 41 41 42 35 31 28 25 23 21 17 19 19 16 17 16 15 19 17 16 14 13 14 16 16 14 22 21 19 16 16 16 16 17 21 24 22 22 21 24
46 44 44 44 44 42 39 39 38 35 35 29 25 24 21 17 20 24 19 19 18 18 20 19 16 17 15 17 18 15 15 15 16 16 14 14 15 15 16 18 17 16 16 20 20
60 55 54 53 49 47 43 44 40 39 36 30 27 23 20 20 20 23 20 19 20 22 21 20 18 19 17 19 17 16 16 18 17 15 15 16 15 15 17 19 18 19 22 23 21
77 73 67 60 55 53 51 46 45 40 38 31 23 22 24 22 22 19 17 18 21 23 24 21 21 21 18 18 17 20 19 18 19 19 17 18 17 17 18 19 19 20 24 25 23
81 76 71 68 59 55 52 50 48 46 40 31 25 25 28 24 21 18 17 16 20 22 23 22 20 20 23 22 22 20 18 18 19 21 22 17 17 19 20 20 19 20 28 27 25
75 74 71 68 64 60 55 50 49 48 43 34 30 31 35 29 23 20 19 20 18 16 17 22 20 22 23 25 22 22 21 21 21 24 23 18 16 26 25 23 21 23 29 32 30
69 69 66 66 65 58 54 52 48 47 47 39 37 41 35 32 28 26 25 29 23 20 20 21 21 24 27 24 25 27 26 27 30 29 25 24 19 23 28 28 25 26 29 36 33
69 68 66 61 61 59 51 49 48 46 45 46 45 43 35 32 34 31 32 31 30 25 23 23 24 24 24 26 28 27 31 32 31 31 31 28 26 24 24 27 31 33 38 42 38
83 75 68 63 63 57 54 53 54 54 47 45 44 40 34 34 28 29 33 32 32 27 26 31 29 27 28 28 31 29 26 26 27 30 32 32 31 28 28 31 32 33 41 42 37
81 70 66 64 63 56 51 52 52 47 39 39 37 35 32 31 28 29 33 31 32 30 27 30 31 28 28 32 31 27 28 29 31 30 30 30 29 31 30 33 34 32 38 39 36
80 76 69 61 53 51 54 51 46 45 41 36 36 35 33 33 32 25 30 30 29 31 27 28 29 30 33 35 35 32 31 32 32 30 29 28 27 30 33 35 33 31 36 38 37
77 71 65 60 58 59 52 52 49 44 49 40 43 42 39 36 31 28 27 32 32 30 29 28 29 29 32 31 29 30 32 33 33 30 30 37 36 35 37 41 37 35 36 38 40
77 78 71 66 75 64 68 59 50 51 55 41 43 45 45 36 44 39 32 27 27 32 29 30 32 32 30 31 33 33 37 33 31 31 34 32 37 30 38 43 47 41 39 41 42
74 70 68 63 57 64 56 55 56 58 49 41 45 43 43 41 42 44 38 35 31 30 31 32 37 35 33 34 31 33 34 36 37 40 42 36 37 29 40 46 51 47 41 41 43
85 73 63 61 65 59 51 59 58 58 37 37 39 42 46 45 48 45 42 41 39 39 37 34 34 31 29 33 36 33 37 40 42 46 48 46 42 39 48 48 51 58 47 43 45
82 82 74 63 58 59 60 59 69 39 43 41 42 48 43 49 51 51 46 46 40 37 42 44 50 40 36 31 36 50 49 52 58 49 43 45 49 46 50 60 61 52 49 49 49
79 77 75 62 53 47 59 69 37 45 37 38 46 53 50 55 54 55 52 50 54 44 41 43 47 48 47 39 40 42 50 52 57 56 58 42 43 39 50 52 59 57 53 53 54
65 71 71 69 58 71 77 59 42 44 46 43 38 36 36 38 39 48 48 49 55 55 54 51 52 58 55 51 51 49 43 56 68 80 60 48 42 41 63 66 63 64 60 58 59
63 66 60 62 62 73 74 61 59 54 53 50 45 46 48 45 42 45 46 59 69 61 50 53 55 49 44 49 52 47 56 54 50 49 61 59 50 44 66 67 71 73 64 64 65
69 65 63 61 69 64 61 57 61 58 60 51 50 56 51 50 52 50 48 57 74 59 46 46 44 42 46 45 57 64 69 62 69 72 67 80 71 53 68 68 67 65 72 74 72
76 70 65 65 63 52 45 52 60 61 59 59 52 46 44 43 46 47 42 55 57 55 51 57 51 47 42 40 43 47 49 53 51 58 63 76 64 69 72 71 70 66 72 70 78
91 83 77 68 51 45 43 41 44 48 50 47 50 46 49 41 44 43 46 51 49 45 44 39 35 39 35 32 44 60 68 69 69 89 84 75 68 57 62 78 70 84 69 80 78
98 97 70 66 55 51 54 43 41 46 48 44 44 43 40 38 42 38 42 42 62 47 37 44 44 46 46 43 53 61 56 41 55 48 56 47 66 55 64 64 68 84 71 87 75
99 99 90 85 74 66 60 48 54 50 51 54 49 48 48 46 50 51 57 55 51 58 56 47 45 50 35 33 45 47 35 31 38 33 44 53 48 39 55 67 66 77 76 80 79
98 97 94 87 85 80 54 52 54 63 59 50 58 57 55 58 59 60 53 55 52 54 59 59 63 62 56 61 61 58 28 38 38 42 47 58 43 47 58 65 71 80 78 78 76

GFSSW_prec_cthk_138.txt.gz
RH
31 30 30 30 30 30 32 32 31 30 29 28 26 24 22 21 21 19 18 19 18 14 12 12 12 13 11 11 13 12 13 15 25 33 33 29 28 27 25 27 26 29 31 32 32
31 31 32 32 33 33 33 33 32 31 30 29 26 24 22 18 19 18 17 16 14 13 17 19 18 16 13 15 16 13 14 19 25 31 33 29 25 32 26 29 30 30 30 32 35
32 33 33 35 34 35 34 33 33 32 31 30 30 28 20 17 16 20 15 12 12 13 16 19 18 16 14 14 16 16 14 19 23 24 29 28 19 20 23 23 28 26 24 22 27
38 37 37 39 39 38 38 36 33 32 32 31 30 26 21 18 21 22 21 19 16 16 17 19 20 18 19 19 20 18 14 15 19 18 15 15 13 17 18 17 19 19 17 20 20
59 55 53 51 48 47 43 40 39 36 35 33 32 24 22 23 21 21 20 19 19 21 23 22 19 20 20 21 21 18 14 16 18 15 13 13 14 15 15 18 15 18 18 20 21
81 74 70 67 63 61 51 48 48 47 45 39 35 26 23 24 24 23 21 19 19 20 21 21 23 24 21 20 21 19 19 19 17 17 17 18 17 17 16 21 18 18 23 21 21
86 82 80 77 73 68 63 60 53 50 46 43 40 32 28 26 27 25 24 21 19 20 23 22 21 20 20 21 21 20 20 18 18 18 19 22 20 16 18 24 20 20 27 29 23
83 79 78 77 75 70 65 63 57 52 47 42 40 36 33 30 31 31 28 24 21 20 19 19 20 18 19 20 20 20 20 20 19 22 25 25 21 16 24 26 25 22 29 36 35
82 76 75 72 70 69 64 63 59 55 51 48 45 50 42 38 35 39 33 32 26 24 22 22 20 21 22 20 20 21 22 26 28 26 29 28 27 28 29 29 29 27 29 36 42
79 74 72 71 67 63 62 57 55 54 50 49 48 47 42 37 40 40 37 35 33 30 28 25 24 23 22 25 25 22 26 29 31 31 30 29 28 26 27 28 29 30 33 37 42
85 83 77 71 67 61 60 60 62 65 58 53 50 46 44 42 41 37 39 35 36 34 32 32 30 27 24 25 26 26 26 27 27 29 27 28 28 28 29 28 27 29 34 39 43
93 90 86 83 81 74 68 66 64 65 50 49 47 39 39 34 36 36 38 37 36 37 35 33 34 29 28 26 28 31 30 25 23 26 28 28 27 27 27 27 29 33 38 40 43
92 90 87 80 73 67 63 65 62 56 52 44 43 39 37 34 33 33 32 37 35 39 38 34 29 33 31 29 30 32 30 28 27 27 28 30 25 26 28 34 33 35 42 41 40
89 81 81 76 71 74 70 67 58 50 53 40 39 37 37 36 34 32 29 32 38 40 36 34 32 28 33 30 29 29 26 25 29 29 29 29 28 28 33 37 36 38 41 45 45
86 87 79 68 76 70 83 71 60 57 63 44 39 42 43 39 43 38 34 34 35 35 35 33 32 31 31 30 33 31 33 34 34 33 29 26 36 20 28 37 41 42 46 46 44
84 83 82 80 70 76 71 63 60 74 66 50 47 45 47 43 40 50 44 35 31 30 31 32 31 33 33 32 33 35 36 33 33 35 39 31 41 25 32 43 52 59 52 49 46
89 84 80 77 79 74 62 63 71 70 47 47 48 46 46 46 42 45 41 37 37 35 33 31 30 35 35 34 36 36 34 38 39 46 46 35 41 42 42 46 50 60 58 55 56
91 90 81 73 73 68 68 70 73 46 49 44 43 50 52 53 51 50 48 43 39 39 42 43 45 38 35 30 34 39 45 53 57 53 46 38 46 38 44 48 53 57 67 61 62
77 84 88 84 73 63 73 83 51 48 43 42 44 43 50 48 51 60 55 50 49 44 45 41 45 46 41 40 38 35 42 41 53 52 55 41 34 37 32 39 57 59 64 74 68
75 68 73 80 75 74 80 66 52 48 47 48 39 45 51 50 59 62 67 61 57 61 60 48 51 52 53 51 46 50 48 51 55 77 68 50 45 45 57 58 67 73 73 75 72
89 78 60 74 73 67 72 56 51 53 56 53 51 45 41 43 45 45 41 58 62 65 65 60 56 54 57 66 57 51 56 57 57 54 60 55 41 54 66 65 69 75 83 85 76
83 81 70 75 70 62 52 43 49 58 59 59 57 53 53 48 51 50 48 62 59 63 63 58 56 53 51 56 52 53 56 61 73 69 79 88 74 52 71 69 74 78 76 79 89
95 82 71 74 74 55 39 40 47 52 62 61 61 59 54 57 59 60 57 67 60 63 67 68 57 53 41 39 39 45 46 48 51 53 57 67 48 37 60 66 71 72 76 74 93
99 98 93 82 65 59 49 43 45 46 58 62 65 64 61 59 56 57 53 56 56 59 61 60 53 49 54 48 46 46 49 51 50 69 66 63 63 50 54 57 60 63 69 73 85
99 98 92 84 66 56 58 48 45 44 46 56 60 59 62 65 63 58 55 51 59 54 51 50 49 42 38 32 35 41 43 41 49 58 69 54 52 40 37 52 59 57 61 72 78
98 98 89 71 71 70 60 48 39 45 51 55 50 47 51 51 57 57 52 47 46 50 53 54 50 46 40 35 43 49 33 27 29 34 42 41 40 26 36 40 55 63 55 65 73
98 98 97 83 83 79 62 54 60 58 59 54 60 60 57 55 65 60 66 70 72 65 73 76 82 68 57 50 60 68 29 34 41 44 50 52 49 43 48 56 52 60 77 74 87

GFSSW_prec_cthk_141.txt.gz
RH
29 28 28 27 27 27 28 28 28 27 26 25 25 24 23 20 19 16 15 16 16 15 16 13 12 13 12 10 12 13 15 15 21 27 29 29 29 31 28 28 27 27 29 31 29
31 30 29 29 29 29 30 30 30 28 26 26 26 25 24 20 16 14 16 14 13 14 15 12 15 16 15 14 14 15 15 18 23 27 31 33 33 32 29 25 29 27 27 26 29
32 31 31 31 31 31 31 31 31 29 28 27 26 25 24 20 18 21 17 14 14 13 13 13 16 17 16 16 17 18 16 18 21 20 25 29 33 31 30 28 27 27 24 21 23
34 36 36 35 35 35 35 35 35 33 30 29 26 26 25 19 19 21 19 20 19 17 16 15 17 19 19 19 18 19 17 18 20 17 20 24 25 26 24 18 20 25 26 22 21
48 49 50 50 48 46 46 46 43 37 35 35 31 30 28 20 18 20 19 18 18 20 19 21 21 19 20 21 22 21 21 17 16 16 15 15 13 13 14 18 17 17 19 20 22
65 66 70 73 69 63 62 57 53 46 42 41 36 37 34 29 22 21 19 18 20 21 21 20 20 21 21 21 22 22 20 17 16 17 15 15 15 16 13 18 20 19 21 20 21
88 87 86 86 82 78 74 70 65 61 56 48 40 38 36 34 28 26 26 23 23 23 22 21 21 20 20 18 19 19 19 17 16 16 17 19 20 19 18 23 25 23 25 25 24
95 93 90 88 83 77 74 73 67 64 59 53 47 42 37 38 35 30 29 31 29 25 22 21 22 21 18 17 19 19 19 19 15 18 19 21 24 23 22 24 27 29 30 31 31
97 93 92 85 80 76 72 69 66 62 59 54 46 47 44 42 39 39 36 36 37 32 25 21 25 22 22 22 22 20 21 21 23 23 24 25 28 25 23 26 29 31 30 30 32
95 92 87 81 78 75 73 70 64 59 54 52 49 49 43 43 39 43 40 37 37 34 31 28 27 28 26 28 31 23 26 26 28 28 30 32 31 28 26 27 28 31 33 33 33
94 92 88 86 78 72 71 69 67 64 63 55 53 51 48 43 43 42 40 41 42 40 35 31 33 33 28 27 25 27 27 28 26 32 28 32 30 28 27 27 28 33 33 33 33
95 94 94 92 87 80 77 73 72 70 64 60 56 50 49 45 40 39 41 42 41 41 36 35 38 35 33 30 31 30 30 31 27 28 32 29 27 26 27 27 30 31 34 34 34
95 95 92 91 88 82 74 78 78 75 61 48 48 44 50 45 38 40 38 40 39 42 40 37 33 37 37 37 33 30 31 31 30 28 26 26 22 24 25 25 28 34 36 37 36
93 95 91 87 85 80 82 79 74 66 67 47 45 41 43 41 38 39 35 35 38 37 37 38 37 37 40 37 34 32 33 32 31 31 34 31 32 24 24 27 33 41 41 40 41
89 91 90 81 83 79 87 80 69 68 80 48 43 44 39 39 39 36 34 31 31 34 36 36 36 36 35 33 34 33 34 35 34 36 35 33 41 21 23 24 35 37 42 42 43
87 86 88 87 79 83 78 79 61 84 80 54 52 49 46 44 42 49 39 36 33 33 36 38 37 36 33 33 33 33 37 37 37 40 46 32 36 26 31 33 44 52 49 48 52
84 84 81 84 89 84 77 71 81 85 55 55 52 48 48 50 46 50 51 43 38 37 34 31 32 31 33 35 36 36 40 48 47 54 51 33 42 38 39 43 46 48 53 56 60
78 83 85 80 87 87 82 87 89 56 56 51 49 48 46 46 48 45 51 50 43 38 40 39 40 31 30 32 38 39 42 54 57 54 48 36 41 36 43 41 46 52 53 57 55
76 75 77 88 82 83 86 87 63 56 51 54 53 49 54 53 52 55 56 53 46 41 47 47 42 39 37 38 41 43 50 47 60 62 59 46 37 34 44 49 55 62 65 68 69
84 81 69 77 90 84 85 66 57 52 57 56 53 49 50 49 58 62 65 63 59 56 62 54 54 42 44 42 43 47 49 59 66 72 73 52 47 46 55 62 71 80 88 86 90
90 87 80 81 80 86 78 60 55 56 61 59 59 54 50 54 55 62 61 73 67 63 63 61 58 51 60 58 57 59 60 60 62 68 74 64 49 48 52 58 65 70 73 87 88
94 86 85 94 91 67 55 55 57 56 62 64 60 60 55 56 58 59 60 61 55 65 70 69 71 62 60 60 63 65 59 60 79 75 83 81 66 52 63 59 66 65 67 70 68
99 93 88 90 97 82 49 48 51 52 60 64 62 62 61 59 58 55 58 60 53 59 68 71 69 69 65 59 57 55 56 60 59 64 69 83 66 47 53 61 63 54 59 62 63
99 99 99 96 76 70 61 54 50 46 45 56 62 64 64 65 61 60 58 64 58 57 57 63 69 66 67 59 54 56 51 53 51 71 62 64 62 44 49 56 57 61 50 58 64
99 98 92 98 76 71 71 55 50 43 42 50 63 60 63 66 65 65 57 60 61 59 60 59 62 59 56 48 48 48 43 46 49 54 62 55 56 47 38 46 50 43 52 59 62
98 98 92 77 77 86 83 63 56 49 48 47 58 56 57 59 56 58 61 60 60 58 56 58 61 59 56 49 51 51 41 39 37 38 48 48 47 43 52 52 44 45 53 62 62
99 98 95 93 86 87 72 52 53 54 50 45 50 51 51 51 56 56 56 59 61 63 68 72 78 83 71 61 66 62 32 35 35 37 39 45 35 43 42 50 51 49 57 63 64